[[{"header":{"parameterUnit":"m.s-1","parameterCategory":1,"la1":30.6,"la2":29.2853,"lo1":-89.7004,"lo2":-87.6739,"dy":0.0162,"dx":0.0183,"nx":112,"ny":82,"refTime":"2026-05-06T12:00:00:Z","depth":0,"parameterNumber":2,"parameterNumberName":"U-component_of_WINDS"},"data":[0.0,0.0,0.0,0.0,0.0,0.0,0.0,0.0,0.0,0.0,0.0,0.0,0.0,0.0,0.0,0.0,0.0,0.0,0.0,0.0,0.0,0.0,0.0,0.0,0.0,0.0,0.0,0.0,0.0,0.0,0.0,0.0,0.0,0.0,0.0,0.0,0.0,0.0,0.0,0.0,0.0,0.0,0.0,0.0,0.0,0.0,0.0,0.0,0.0,0.0,0.0,0.0,0.0,0.0,0.0,0.0,0.0,0.0,0.0,0.0,0.0,0.0,0.0,0.0,0.0,0.0,0.0,0.0,0.0,0.0,0.0,0.0,0.0,0.0,0.0,0.0,0.0,0.0,0.0,0.0,0.0,0.0,0.0,0.0,0.0,0.0,0.0,0.0,0.0,0.0,0.6061,0.5847,0.5687,0.5507,0.5314,0.5075,0.4817,0.4525,0.0,0.0,0.0,0.0,0.0,0.0,0.0,0.0,0.0,0.0,0.0,0.0,0.0,0.0,0.0,0.0,0.0,0.0,0.0,0.0,0.0,0.0,0.0,0.0,0.0,0.0,0.0,0.0,0.0,0.0,0.0,0.0,0.0,0.0,0.0,0.0,0.0,0.0,0.0,0.0,0.0,0.0,0.0,0.0,0.0,0.0,0.0,0.0,0.0,0.0,0.0,0.0,0.0,0.0,0.0,0.0,0.0,0.0,0.0,0.0,0.0,0.0,0.0,0.0,0.0,0.0,0.0,0.0,0.0,0.0,0.0,0.0,0.0,0.0,0.0,0.0,0.0,0.0,0.0,0.0,0.0,0.0,0.0,0.0,0.0,0.0,0.0,0.0,0.0,0.0,0.0,0.0,0.0,0.0,0.0,0.0,0.0,0.0,0.0,0.0,0.0,0.0,0.0,0.0,0.5719,0.5579,0.5593,0.5512,0.531,0.5164,0.4919,0.4517,0.0,0.0,0.0,0.0,0.0,0.0,0.0,0.0,0.0,0.0,0.0,0.0,0.0,0.0,0.0,0.0,0.0,0.0,0.0,0.0,0.0,0.0,0.0,0.0,0.0,0.0,0.0,0.0,0.0,0.0,0.0,0.0,0.0,0.0,0.0,0.0,0.0,0.0,0.0,0.0,0.0,0.0,0.0,0.0,0.0,0.0,0.0,0.0,0.0,0.0,0.0,0.0,0.0,0.0,0.0,0.0,0.0,0.0,0.0,0.0,0.0,0.0,0.0,0.0,0.0,0.0,0.0,0.0,0.0,0.0,0.0,0.0,0.0,0.0,0.0,0.0,0.0,0.0,0.0,0.0,0.0,0.0,0.0,0.0,0.0,0.0,0.0,0.0,0.0,0.0,0.0,0.0,0.0,0.0,0.0,0.0,0.0,0.0,0.0,0.0,0.0,0.0,0.0,0.5905,0.5712,0.557,0.5652,0.5592,0.5319,0.5246,0.5047,0.4678,0.4662,0.0,0.0,0.0,0.0,0.0,0.0,0.0,0.0,0.0,0.0,0.0,0.0,0.0,0.0,0.0,0.0,0.0,0.0,0.0,0.0,0.0,0.0,0.0,0.0,0.0,0.0,0.0,0.0,0.0,0.0,0.0,0.0,0.0,0.0,0.0,0.0,0.0,0.0,0.0,0.0,0.0,0.0,0.0,0.0,0.0,0.0,0.0,0.0,0.0,0.0,0.0,0.0,0.0,0.0,0.0,0.0,0.0,0.0,0.0,0.0,0.0,0.0,0.0,0.0,0.0,0.0,0.0,0.0,0.0,0.0,0.0,0.0,0.0,0.0,0.0,0.0,0.0,0.0,0.0,0.0,0.0,0.0,0.0,0.0,0.0,0.0,0.0,0.0,0.0,0.0,0.0,0.0,0.0,0.0,0.0,0.0,0.0,0.0,0.0,0.0,0.0,0.0,0.5818,0.5681,0.554,0.5626,0.5572,0.5329,0.5311,0.5155,0.482,0.476,0.0,0.0,0.0,0.0,0.0,0.0,0.0,0.0,0.0,0.0,0.0,0.0,0.0,0.0,0.0,0.0,0.0,0.0,0.0,0.0,0.0,0.0,0.0,0.0,0.0,0.0,0.0,0.0,0.0,0.0,0.0,0.0,0.0,0.0,0.0,0.0,0.0,0.0,0.0,0.0,0.0,0.0,0.0,0.0,0.0,0.0,0.0,0.0,0.0,0.0,0.0,0.0,0.0,0.0,0.0,0.0,0.0,0.0,0.0,0.0,0.0,0.0,0.0,0.0,0.0,0.0,0.0,0.0,0.0,0.0,0.0,0.0,0.0,0.0,0.0,0.0,0.0,0.0,0.0,0.0,0.0,0.0,0.0,0.0,0.0,0.0,0.0,0.0,0.0,0.0,0.0,0.0,0.0,0.0,0.0,0.0,0.0,0.0,0.0,0.0,0.0,0.0,0.5622,0.554,0.5352,0.5325,0.5325,0.5297,0.5285,0.5155,0.4828,0.4617,0.0,0.0,0.0,0.0,0.0,0.0,0.0,0.0,0.0,0.0,0.0,0.0,0.0,0.0,0.0,0.0,0.0,0.0,0.0,0.0,0.0,0.0,0.0,0.0,0.0,0.0,0.0,0.0,0.0,0.0,0.0,0.0,0.0,0.0,0.0,0.0,0.0,0.0,0.0,0.0,0.0,0.0,0.0,0.0,0.0,0.0,0.0,0.0,0.0,0.0,0.0,0.0,0.0,0.0,0.0,0.0,0.0,0.0,0.0,0.0,0.0,0.0,0.0,0.0,0.0,0.0,0.0,0.0,0.0,0.0,0.0,0.0,0.0,0.0,0.0,0.0,0.0,0.0,0.0,0.0,0.0,0.0,0.0,0.0,0.0,0.0,0.0,0.0,0.0,0.0,0.0,0.0,0.0,0.0,0.0,0.0,0.0,0.0,0.0,0.0,0.0,0.0,0.5544,0.538,0.5301,0.5297,0.5297,0.5297,0.5297,0.5144,0.4828,0.0,0.0,0.0,0.0,0.0,0.0,0.0,0.0,0.0,0.0,0.0,0.0,0.0,0.0,0.0,0.0,0.0,0.0,0.0,0.0,0.0,0.0,0.0,0.0,0.0,0.0,0.0,0.0,0.0,0.0,0.0,0.0,0.0,0.0,0.0,0.0,0.0,0.0,0.0,0.0,0.0,0.0,0.0,0.0,0.0,0.0,0.0,0.0,0.0,0.0,0.0,0.0,0.0,0.0,0.0,0.0,0.0,0.0,0.0,0.0,0.0,0.0,0.0,0.0,0.0,0.0,0.0,0.0,0.0,0.0,0.0,0.0,0.0,0.0,0.0,0.0,0.0,0.0,0.0,0.0,0.0,0.0,0.0,0.0,0.0,0.0,0.0,0.0,0.0,0.0,0.0,0.0,0.0,0.0,0.0,0.0,0.0,0.0,0.0,0.0,0.0,0.0,0.5735,0.5549,0.5409,0.5409,0.5409,0.5357,0.5305,0.5276,0.5106,0.4824,0.0,0.0,0.0,0.0,0.0,0.0,0.0,0.0,0.0,0.0,0.0,0.0,0.0,0.0,0.0,0.0,0.0,0.0,0.0,0.0,0.0,0.0,0.0,0.0,0.0,0.0,0.0,0.0,0.0,0.0,0.0,0.0,0.0,0.0,0.0,0.0,0.0,0.0,0.0,0.0,0.0,0.0,0.0,0.0,0.0,0.0,0.0,0.0,0.0,0.0,0.0,0.0,0.0,0.0,0.0,0.0,0.0,0.0,0.0,0.0,0.0,0.0,0.0,0.0,0.0,0.0,0.0,0.0,0.0,0.0,0.0,0.0,0.0,0.0,0.0,0.0,0.0,0.0,0.0,0.0,0.0,0.0,0.0,0.0,0.0,0.0,0.0,0.0,0.0,0.0,0.0,0.0,0.0,0.0,0.0,0.0,0.0,0.0,0.0,0.0,0.0,0.0,0.5616,0.5612,0.5612,0.5612,0.5612,0.5514,0.5317,0.519,0.5003,0.0,0.0,0.0,0.0,0.0,0.0,0.0,0.0,0.0,0.0,0.0,0.0,0.0,0.0,0.0,0.0,0.0,0.0,0.0,0.0,0.0,0.0,0.0,0.0,0.0,0.0,0.0,0.0,0.0,0.0,0.0,0.0,0.0,0.0,0.0,0.0,0.0,0.0,0.0,0.0,0.0,0.0,0.0,0.0,0.0,0.0,0.0,0.0,0.0,0.0,0.0,0.0,0.0,0.0,0.0,0.0,0.0,0.0,0.0,0.0,0.0,0.0,0.0,0.0,0.0,0.0,0.0,0.0,0.0,0.0,0.0,0.0,0.0,0.0,0.0,0.0,0.0,0.0,0.0,0.0,0.0,0.0,0.0,0.0,0.0,0.0,0.0,0.0,0.0,0.0,0.0,0.0,0.0,0.0,0.0,0.0,0.0,0.0,0.0,0.0,0.0,0.0,0.0,0.5756,0.5789,0.5807,0.5807,0.5689,0.5588,0.551,0.5255,0.5003,0.4816,0.0,0.0,0.0,0.0,0.0,0.0,0.0,0.0,0.0,0.0,0.0,0.0,0.0,0.0,0.0,0.0,0.0,0.0,0.0,0.0,0.0,0.0,0.0,0.0,0.0,0.0,0.0,0.0,0.0,0.0,0.0,0.0,0.0,0.0,0.0,0.0,0.0,0.0,0.0,0.0,0.0,0.0,0.0,0.0,0.0,0.0,0.0,0.0,0.0,0.0,0.0,0.0,0.0,0.0,0.0,0.0,0.0,0.0,0.0,0.0,0.0,0.0,0.0,0.0,0.0,0.0,0.0,0.0,0.0,0.0,0.0,0.0,0.0,0.0,0.0,0.0,0.0,0.0,0.0,0.0,0.0,0.0,0.0,0.0,0.0,0.0,0.0,0.0,0.0,0.0,0.0,0.0,0.0,0.0,0.0,0.0,0.0,0.0,0.0,0.0,0.0,0.0,0.5864,0.5944,0.602,0.602,0.5922,0.5766,0.5624,0.5352,0.508,0.482,0.0,0.0,0.0,0.0,0.0,0.0,0.0,0.0,0.0,0.0,0.0,0.0,0.0,0.0,0.0,0.0,0.0,0.0,0.0,0.0,0.0,0.0,0.0,0.0,0.0,0.0,0.0,0.0,0.0,0.0,0.0,0.0,0.0,0.0,0.0,0.0,0.0,0.0,0.0,0.0,0.0,0.0,0.0,0.0,0.0,0.0,0.0,0.0,0.0,0.0,0.0,0.0,0.0,0.0,0.0,0.0,0.0,0.0,0.0,0.0,0.0,0.0,0.0,0.0,0.0,0.0,0.0,0.0,0.0,0.0,0.0,0.0,0.0,0.0,0.0,0.0,0.0,0.0,0.0,0.0,0.0,0.0,0.0,0.0,0.0,0.0,0.0,0.0,0.0,0.0,0.0,0.0,0.0,0.0,0.0,0.0,0.0,0.0,0.0,0.0,0.0,0.0,0.5922,0.6094,0.6236,0.6236,0.6219,0.6033,0.564,0.5426,0.5136,0.473,0.0,0.0,0.0,0.0,0.0,0.0,0.0,0.0,0.0,0.0,0.0,0.0,0.0,0.0,0.0,0.0,0.0,0.0,0.0,0.0,0.0,0.0,0.0,0.0,0.0,0.0,0.0,0.0,0.0,0.0,0.0,0.0,0.0,0.0,0.0,0.0,0.0,0.0,0.0,0.0,0.0,0.0,0.0,0.0,0.0,0.0,0.0,0.0,0.0,0.0,0.0,0.0,0.0,0.0,0.0,0.0,0.0,0.0,0.0,0.0,0.221,0.2217,0.0,0.0,0.0,0.0,0.0,0.0,0.0,0.0,0.0,0.0,0.0,0.0,0.0,0.0,0.0,0.0,0.0,0.0,0.0,0.0,0.0,0.0,0.0,0.0,0.0,0.0,0.0,0.0,0.0,0.0,0.0,0.0,0.0,0.0,0.0,0.0,0.0,0.0,0.0,0.0,0.6145,0.6282,0.6359,0.6359,0.6265,0.6033,0.564,0.5426,0.4926,0.4078,0.3507,0.0,0.0,0.0,0.0,0.0,0.0,0.0,0.0,0.0,0.0,0.0,0.0,0.0,0.0,0.0,0.0,0.0,0.0,0.0,0.0,0.0,0.0,0.0,0.0,0.0,0.0,0.0,0.0,0.0,0.0,0.0,0.0,0.0,0.0,0.0,0.0,0.0,0.0,0.0,0.0,0.0,0.0,0.0,0.0,0.0,0.0,0.0,0.0,0.0,0.0,0.0,0.0,0.0,0.0,0.0,0.0,0.0,0.0,0.0,0.2343,0.2295,0.0,0.0,0.0,0.0,0.0,0.0,0.0,0.0,0.0,0.0,0.0,0.0,0.0,0.0,0.0,0.0,0.0,0.0,0.0,0.0,0.0,0.0,0.0,0.0,0.0,0.0,0.0,0.0,0.0,0.0,0.0,0.0,0.0,0.0,0.0,0.0,0.0,0.0,0.0,0.0,0.6306,0.6371,0.6387,0.6387,0.6331,0.6132,0.5774,0.5395,0.482,0.4033,0.3288,0.0,0.0,0.0,0.0,0.0,0.0,0.0,0.0,0.0,0.0,0.0,0.0,0.0,0.0,0.0,0.0,0.0,0.0,0.0,0.0,0.0,0.0,0.0,0.0,0.0,0.0,0.0,0.0,0.0,0.0,0.0,0.0,0.0,0.0,0.0,0.0,0.0,0.0,0.0,0.0,0.0,0.0,0.0,0.0,0.0,0.0,0.0,0.0,0.0,0.0,0.0,0.0,0.0,0.2673,0.2698,0.2706,0.2644,0.265,0.27,0.2559,0.2461,0.2367,0.2501,0.0,0.0,0.0,0.0,0.0,0.0,0.0,0.0,0.0,0.0,0.0,0.0,0.0,0.0,0.0,0.0,0.0,0.0,0.0,0.0,0.0,0.0,0.5859,0.6037,0.6517,0.6747,0.6065,0.0,0.0,0.0,0.0,0.0,0.0,0.0,0.0,0.0,0.0,0.0,0.6392,0.6392,0.6387,0.6387,0.6387,0.6274,0.5917,0.5332,0.474,0.4128,0.3097,0.2408,0.0,0.0,0.0,0.0,0.0,0.0,0.0,0.0,0.0,0.0,0.0,0.0,0.0,0.0,0.0,0.0,0.0,0.0,0.0,0.0,0.0,0.0,0.0,0.0,0.0,0.0,0.0,0.0,0.0,0.0,0.0,0.0,-0.2247,-0.1887,0.0,0.0,0.0,0.0,0.0,0.0,0.0,0.0,0.0,0.0,0.0,0.0,0.0,0.2068,0.266,0.2661,0.2707,0.2759,0.2714,0.2721,0.277,0.2709,0.2713,0.2773,0.2801,0.0,0.2646,0.2662,0.0,0.0,0.0,0.0,0.0,0.0,0.0,0.0,0.0,0.0,0.0,0.0,0.0,0.0,0.0,0.0,0.0,0.0,0.0,0.0,0.0,0.0,0.5955,0.5922,0.6474,0.697,0.6861,0.6857,0.6951,0.7297,0.7107,0.6983,0.0,0.0,0.0,0.0,0.0,0.0,0.6416,0.6404,0.6387,0.6387,0.6387,0.6274,0.5917,0.5332,0.4594,0.3649,0.2961,0.2319,0.1718,0.1624,0.0,0.0,0.0,0.0,0.0,0.0,0.0,0.0,0.0,0.0,0.0,0.0,0.0,0.0,0.0,0.0,0.0,0.0,0.0,0.0,0.0,0.0,0.0,0.0,0.0,0.0,0.0,0.0,0.0,-0.2409,-0.1984,-0.1789,-0.1657,-0.1558,0.0,0.0,0.0,0.0,0.0,0.0,0.0,0.0,0.0,0.1662,0.2189,0.2622,0.2978,0.2951,0.2951,0.2978,0.2951,0.2953,0.2978,0.295,0.2953,0.298,0.3007,0.2987,0.2932,0.2822,0.2738,0.2653,0.0,0.0,0.0,0.0,0.259,0.2605,0.2553,0.2552,0.2567,0.2533,0.0,0.0,0.0,0.0,0.0,0.0,0.0,0.3968,0.486,0.5581,0.6301,0.6973,0.7213,0.7323,0.755,0.7343,0.7109,0.729,0.722,0.7121,0.7168,0.6967,0.0,0.0,0.0,0.6668,0.6593,0.6572,0.6534,0.6395,0.6387,0.6148,0.549,0.4905,0.4146,0.3161,0.2518,0.2017,0.1719,0.1651,0.1647,0.0,0.0,0.0,0.0,0.0,0.0,0.0,0.0,0.0,0.0,0.0,0.0,0.0,0.0,0.0,0.0,0.0,0.0,0.0,0.0,0.0,0.0,0.0,0.0,0.0,0.0,0.0,0.0,-0.2086,-0.1553,-0.1247,-0.0732,-0.0384,0.0,0.0,0.0,0.0,0.0,0.0,0.141,0.1913,0.2209,0.2301,0.2771,0.3081,0.3144,0.3127,0.312,0.312,0.3105,0.3105,0.312,0.3104,0.3105,0.312,0.312,0.3112,0.309,0.3001,0.29,0.276,0.276,0.2752,0.2738,0.2738,0.2748,0.2758,0.2744,0.2748,0.2751,0.2691,0.2661,0.2636,0.2575,0.0,0.0,0.0,0.0,0.4433,0.5399,0.6155,0.6896,0.7864,0.7834,0.7684,0.7953,0.7719,0.7418,0.7374,0.7296,0.7203,0.708,0.6894,0.0,0.684,0.6805,0.6777,0.6772,0.6737,0.6643,0.6505,0.6279,0.5865,0.5225,0.4414,0.3624,0.2925,0.2224,0.1842,0.1842,0.1755,0.1749,0.1839,0.0,0.0,0.0,0.0,0.0,0.0,0.0,0.0,0.0,0.0,0.0,0.0,0.0,0.0,0.0,0.0,0.0,0.0,0.0,0.0,0.0,0.0,0.0,0.0,0.0,0.0,0.0,0.0,0.0,0.0551,0.0414,0.0,0.0,0.0,0.0,0.0963,0.1935,0.256,0.2609,0.2897,0.302,0.3031,0.3082,0.311,0.3171,0.3114,0.3086,0.3085,0.3076,0.3079,0.3085,0.3123,0.308,0.3086,0.3086,0.3102,0.3095,0.309,0.305,0.299,0.299,0.2957,0.291,0.291,0.2944,0.2983,0.2928,0.2946,0.2982,0.2924,0.2822,0.2763,0.2702,0.2683,0.0,0.0,0.455,0.5504,0.6338,0.7203,0.7947,0.8,0.7992,0.7943,0.782,0.7934,0.799,0.7812,0.7372,0.7109,0.742,0.0,0.7038,0.7164,0.707,0.6971,0.6999,0.6824,0.6692,0.6684,0.5944,0.5441,0.5401,0.401,0.3151,0.3077,0.2401,0.1994,0.1994,0.1988,0.1987,0.1994,0.1469,0.0,0.0,0.0,0.0,0.0,0.0,0.0,0.0,0.0,0.0,0.0,0.0,0.0,0.0,0.0,0.0,0.0,0.0,0.0,0.0,0.0,0.0,0.0,0.0,0.0,0.0,0.0,0.0,0.099,0.143,0.0,0.1915,0.1866,0.1986,0.2392,0.2595,0.2781,0.2866,0.2975,0.3035,0.3055,0.3211,0.3326,0.3347,0.3326,0.3315,0.3315,0.3293,0.3294,0.3315,0.3293,0.3294,0.3315,0.3315,0.3303,0.3283,0.3283,0.3227,0.3063,0.3063,0.3051,0.3033,0.3033,0.3045,0.3061,0.304,0.3047,0.3061,0.304,0.3018,0.2989,0.2926,0.2882,0.3018,0.3873,0.4324,0.4917,0.6466,0.7052,0.7379,0.8036,0.8101,0.7996,0.7935,0.8004,0.8024,0.7962,0.77,0.7472,0.7344,0.7208,0.7122,0.7076,0.7086,0.7086,0.7004,0.6935,0.6853,0.6708,0.5914,0.5213,0.4716,0.3751,0.2952,0.2482,0.2241,0.2103,0.2064,0.21,0.2121,0.2121,0.1532,0.1002,0.0,0.0,0.0,0.0,0.0,0.0,0.0,0.0,0.0,0.0,0.0,0.0,0.0,0.0,0.0,0.0,0.0,0.0,0.0,0.0,0.0,0.0,0.0,0.0,0.0,0.0428,0.1022,0.1325,0.1997,0.2454,0.2507,0.242,0.2555,0.2926,0.288,0.2911,0.2981,0.3092,0.3153,0.3171,0.3333,0.3388,0.3282,0.3388,0.3377,0.3252,0.3358,0.3413,0.3413,0.3413,0.3413,0.3413,0.3413,0.3413,0.3413,0.3413,0.3318,0.322,0.3198,0.3177,0.311,0.311,0.311,0.311,0.311,0.3097,0.3079,0.3079,0.3113,0.3088,0.3048,0.301,0.3152,0.4092,0.4561,0.5129,0.6742,0.7292,0.7614,0.824,0.8292,0.8182,0.8117,0.8105,0.8089,0.8024,0.79,0.7704,0.7465,0.7354,0.7273,0.7188,0.7236,0.7157,0.6776,0.671,0.6489,0.6061,0.5243,0.454,0.403,0.3315,0.268,0.2189,0.2173,0.2176,0.2155,0.2174,0.2195,0.225,0.1418,0.0651,0.0,0.0,0.0,0.0,0.0,0.0,0.0,0.0,0.0,0.0,0.0,0.0,0.0,0.0,0.0,0.0,0.0,0.0,0.0,0.0,0.0,0.0,0.0,0.0,0.0343,0.0499,0.0915,0.1608,0.2163,0.2382,0.2132,0.2373,0.2504,0.2506,0.2827,0.2988,0.2992,0.3206,0.3393,0.3448,0.3449,0.3341,0.3126,0.3341,0.3314,0.3049,0.3261,0.3421,0.3421,0.3418,0.3418,0.3418,0.3418,0.3418,0.3418,0.3418,0.3417,0.3409,0.3347,0.3288,0.3185,0.3185,0.3185,0.3185,0.3185,0.3148,0.3099,0.3097,0.3105,0.3105,0.3101,0.3099,0.3336,0.4373,0.5365,0.6327,0.7214,0.814,0.8787,0.8665,0.8629,0.8575,0.8349,0.8308,0.8251,0.8065,0.7894,0.7816,0.7808,0.7657,0.7496,0.7492,0.7492,0.0,0.6321,0.607,0.5675,0.4782,0.3907,0.3417,0.3417,0.2669,0.2237,0.2296,0.2246,0.2241,0.2299,0.2248,0.2245,0.2266,0.1205,0.0036,-0.113,0.0,0.0,0.0,0.0,0.0,0.0,0.0,0.0,0.0,0.0,0.0,0.0,0.0,0.0,0.0,0.0,0.0,0.0,0.0,0.0,0.0,0.0847,0.1329,0.1329,0.1505,0.1787,0.1956,0.2125,0.2234,0.2382,0.2497,0.2679,0.2931,0.277,0.2746,0.2759,0.2649,0.2613,0.2655,0.2885,0.3058,0.3234,0.329,0.3455,0.3556,0.3627,0.3605,0.3604,0.3559,0.354,0.354,0.354,0.354,0.354,0.354,0.3514,0.3467,0.341,0.3377,0.3362,0.3362,0.3362,0.3362,0.3362,0.3352,0.333,0.3286,0.326,0.323,0.3142,0.3115,0.3442,0.5197,0.5884,0.6488,0.8188,0.8834,0.9011,0.8962,0.895,0.8901,0.8714,0.8674,0.8625,0.8446,0.8268,0.8101,0.7967,0.7902,0.7825,0.7743,0.7722,0.7356,0.6331,0.607,0.5675,0.4782,0.3907,0.3417,0.3417,0.2713,0.2281,0.2297,0.2322,0.2342,0.2358,0.2385,0.2215,0.1807,0.1474,0.0928,0.0,0.0,0.0,0.0,0.0,0.0,0.0,0.0,0.0,0.0,0.0,0.0,0.0,0.0,0.0,0.0,0.0,0.0,0.0,0.0,0.0,0.0,0.1361,0.1761,0.1733,0.1891,0.1998,0.1958,0.196,0.2021,0.2201,0.2257,0.2385,0.2595,0.2542,0.2507,0.2554,0.2498,0.2567,0.2709,0.2885,0.3119,0.3297,0.3414,0.3473,0.3356,0.3617,0.3657,0.354,0.3623,0.3664,0.3664,0.3664,0.3664,0.3661,0.3636,0.3605,0.3564,0.0,0.0,0.0,0.0,0.3413,0.3413,0.3413,0.3413,0.3407,0.3371,0.336,0.3346,0.3224,0.3185,0.3506,0.5138,0.5917,0.6594,0.8171,0.8875,0.9185,0.9116,0.9096,0.9068,0.8958,0.8934,0.8909,0.8808,0.8637,0.0,0.8369,0.8162,0.7979,0.7882,0.7866,0.7396,0.5995,0.5747,0.5216,0.391,0.333,0.304,0.304,0.2606,0.0,0.0,0.0,0.2431,0.2456,0.2541,0.0,0.0,0.0,0.0,0.0,0.0787,0.0,0.0,-0.0344,-0.0305,0.0,0.0,0.0,0.0,0.0,0.0,0.0,0.0,0.0,0.0,0.0,0.0,0.0,0.0,0.0,0.0,0.1816,0.1784,0.1838,0.1799,0.1829,0.1797,0.1803,0.1816,0.1785,0.1846,0.1857,0.1943,0.2181,0.23,0.2304,0.2539,0.0,0.0,0.0,0.3196,0.3195,0.3492,0.3374,0.284,0.3427,0.3601,0.3305,0.3654,0.3829,0.3829,0.3829,0.3829,0.3823,0.3711,0.3684,0.3668,0.3552,0.3476,0.3432,0.3432,0.3432,0.3432,0.3432,0.0,0.0,0.3424,0.3422,0.3421,0.3414,0.3375,0.3536,0.4604,0.5613,0.6617,0.7576,0.8609,0.9396,0.9194,0.9157,0.9149,0.9133,0.9129,0.912,0.91,0.895,0.8775,0.8684,0.8319,0.8023,0.7879,0.7875,0.7233,0.5373,0.5154,0.4473,0.2694,0.2525,0.0,0.253,0.2474,0.2463,0.2518,0.247,0.2467,0.2529,0.2635,0.2417,0.1835,0.183,0.1555,0.1008,0.1011,0.1012,0.1011,0.0929,0.088,0.0,0.0,0.0,0.0,0.0,0.0,0.0,0.0,0.0,0.0,0.0,0.0,0.0,0.0,0.0,0.1778,0.1827,0.1864,0.1875,0.1867,0.1853,0.1834,0.1853,0.187,0.1877,0.2053,0.2232,0.224,0.2298,0.2311,0.2398,0.2162,0.2114,0.2264,0.2265,0.2386,0.2628,0.269,0.2813,0.2996,0.332,0.0,0.3419,0.3672,0.3829,0.3829,0.3829,0.3829,0.3827,0.3815,0.3722,0.3672,0.3598,0.3563,0.3553,0.3553,0.3553,0.3553,0.3553,0.3553,0.3545,0.3496,0.348,0.3471,0.3427,0.3403,0.0,0.4621,0.5665,0.6692,0.772,0.8776,0.9567,0.9531,0.9527,0.9482,0.9384,0.9351,0.931,0.9125,0.895,0.8544,0.7811,0.8126,0.819,0.7271,0.7123,0.6389,0.4423,0.4163,0.3786,0.2782,0.2613,0.2604,0.2653,0.2601,0.2571,0.2583,0.2572,0.2594,0.2654,0.268,0.2645,0.2508,0.2518,0.2439,0.2313,0.2398,0.2419,0.2374,0.1302,0.0831,0.0,0.0,0.0,0.0,0.0,0.0,0.0,0.0,0.0,0.0,0.0,0.1134,0.1644,0.0,0.181,0.1855,0.1876,0.1891,0.1907,0.1909,0.1897,0.1866,0.1877,0.1892,0.1907,0.2028,0.2094,0.2172,0.2172,0.218,0.2195,0.2015,0.2022,0.2221,0.2222,0.2406,0.2775,0.2775,0.2775,0.2775,0.3245,0.3355,0.3232,0.3632,0.386,0.386,0.386,0.386,0.3858,0.3827,0.3838,0.3718,0.3657,0.3615,0.3587,0.3587,0.3587,0.3587,0.3587,0.3587,0.3582,0.3552,0.3542,0.3537,0.3508,0.3478,0.3554,0.4051,0.4926,0.5821,0.6326,0.7222,0.8021,0.8021,0.8021,0.8001,0.7923,0.7909,0.7885,0.7766,0.7634,0.7319,0.6827,0.6979,0.6971,0.6393,0.672,0.6276,0.4316,0.4051,0.3696,0.2779,0.2665,0.2659,0.2689,0.2665,0.2647,0.2647,0.2676,0.2706,0.2736,0.2767,0.2783,0.2783,0.2783,0.2783,0.2783,0.2813,0.2828,0.2828,0.2184,0.1868,0.0,0.0,0.0,0.0,0.0,0.0,0.0,0.0,0.0511,0.1449,0.1698,0.174,0.1825,0.1821,0.1815,0.1863,0.1915,0.1912,0.1937,0.194,0.1933,0.1913,0.1907,0.1913,0.1937,0.194,0.195,0.1975,0.1977,0.1977,0.1977,0.1977,0.2099,0.2406,0.2406,0.253,0.2776,0.2776,0.2653,0.2406,0.3086,0.3271,0.3023,0.3642,0.3889,0.3889,0.3889,0.3889,0.3884,0.3886,0.3891,0.384,0.3719,0.3666,0.362,0.3595,0.3587,0.3587,0.3587,0.3587,0.3587,0.3587,0.3587,0.3587,0.3587,0.3553,0.3512,0.35,0.4169,0.4954,0.4918,0.5667,0.64,0.6429,0.6423,0.6423,0.6423,0.6423,0.6423,0.6423,0.6282,0.6125,0.5886,0.5818,0.574,0.5473,0.6074,0.5904,0.4156,0.3928,0.3644,0.2818,0.2717,0.271,0.271,0.271,0.2714,0.2726,0.2763,0.2789,0.2801,0.2893,0.292,0.292,0.292,0.292,0.292,0.292,0.2925,0.2935,0.2935,0.2929,-0.4575,-0.387,-0.2895,-0.1889,-0.1565,-0.1,0.0,0.0855,0.059,0.1573,0.1764,0.1834,0.1865,0.1898,0.1863,0.1869,0.1951,0.1967,0.1971,0.1971,0.1979,0.2001,0.1981,0.1968,0.1971,0.1971,0.1973,0.1976,0.1977,0.1977,0.1977,0.1977,0.2038,0.2038,0.2038,0.2099,0.2099,0.2099,0.2099,0.2038,0.2716,0.3023,0.3023,0.3642,0.3889,0.3889,0.3889,0.3889,0.3884,0.3886,0.3916,0.3903,0.3841,0.3813,0.3736,0.3627,0.3587,0.3587,0.3587,0.3587,0.3587,0.3587,0.3587,0.3587,0.3587,0.3582,0.3565,0.3512,0.4244,0.5058,0.495,0.567,0.6455,0.6398,0.6423,0.6423,0.6423,0.6423,0.6423,0.6423,0.6282,0.5909,0.5023,0.5415,0.5557,0.4591,0.4565,0.4251,0.3176,0.3041,0.2995,0.2899,0.2805,0.2773,0.2773,0.2773,0.2796,0.2895,0.2809,0.2808,0.2906,0.2915,0.292,0.292,0.292,0.292,0.292,0.292,0.2946,0.2996,0.2996,0.2967,-0.3947,-0.3479,-0.2903,-0.1693,-0.0993,-0.032,0.0599,0.0986,0.1274,0.1715,0.1854,0.1881,0.193,0.1962,0.1981,0.1981,0.2007,0.2021,0.2003,0.2016,0.2025,0.2019,0.2024,0.2027,0.2027,0.2027,0.2027,0.2027,0.2027,0.2027,0.2027,0.2027,0.2027,0.2027,0.2027,0.2019,0.2001,0.2001,0.1992,0.2038,0.2654,0.3023,0.3023,0.3642,0.3889,0.3889,0.3889,0.3889,0.3887,0.3924,0.3913,0.3906,0.3846,0.3883,0.3867,0.3685,0.364,0.3635,0.36,0.3587,0.3587,0.3587,0.3587,0.3587,0.3587,0.3587,0.3582,0.3556,0.3851,0.4134,0.4074,0.4364,0.4648,0.4612,0.4566,0.4529,0.4529,0.4529,0.4529,0.4529,0.4503,0.4316,0.3829,0.4037,0.412,0.3683,0.4042,0.401,0.3059,0.2939,0.292,0.292,0.2896,0.2837,0.2837,0.2837,0.2892,0.2918,0.2895,0.2892,0.2918,0.2951,0.2969,0.2969,0.3004,0.3022,0.3022,0.3022,0.3054,0.3063,0.3075,0.3065,-0.3497,-0.3032,-0.2536,-0.1327,-0.0272,0.0501,0.0555,0.1232,0.1819,0.1799,0.1883,0.1917,0.1977,0.2005,0.2021,0.203,0.205,0.2056,0.2034,0.2043,0.205,0.2044,0.2055,0.2135,0.2152,0.2138,0.2128,0.2128,0.2128,0.2128,0.2128,0.2128,0.2128,0.2128,0.2128,0.2053,0.2031,0.2022,0.2008,0.1988,0.2597,0.29,0.3023,0.3642,0.3889,0.3889,0.3889,0.3889,0.3889,0.3889,0.3889,0.3885,0.3902,0.3886,0.3872,0.3767,0.3707,0.3672,0.3628,0.3601,0.3587,0.3587,0.3587,0.3587,0.3587,0.3587,0.3587,0.3587,0.3556,0.3518,0.35,0.3433,0.3361,0.333,0.3288,0.32,0.3184,0.318,0.318,0.318,0.318,0.3167,0.3122,0.3116,0.315,0.3105,0.3662,0.3793,0.3125,0.2993,0.2968,0.2968,0.2968,0.2968,0.2968,0.2968,0.2968,0.2968,0.2968,0.2968,0.2968,0.3008,0.303,0.303,0.3075,0.3097,0.3097,0.3097,0.308,0.3089,0.3094,0.3116,-0.352,-0.2433,-0.1352,-0.0053,0.1025,0.1766,0.1767,0.1781,0.1798,0.1856,0.1929,0.1947,0.2006,0.2018,0.2028,0.2058,0.2128,0.2128,0.2127,0.2038,0.2041,0.2099,0.2081,0.2152,0.2213,0.2164,0.2128,0.2128,0.2128,0.2128,0.2128,0.2128,0.2128,0.2128,0.2128,0.2128,0.2127,0.2033,0.2018,0.2017,0.236,0.2714,0.3023,0.3642,0.3889,0.3889,0.3889,0.3889,0.3889,0.3889,0.3889,0.3889,0.3887,0.3887,0.3879,0.3877,0.3838,0.3679,0.3676,0.3636,0.3587,0.3587,0.3587,0.3587,0.3587,0.3587,0.3587,0.3587,0.3586,0.3571,0.3512,0.3493,0.3462,0.3349,0.332,0.3303,0.3192,0.318,0.318,0.318,0.318,0.318,0.3179,0.3177,0.3177,0.3176,0.3173,0.3113,0.3102,0.3093,0.3091,0.3091,0.3091,0.3091,0.3091,0.3091,0.3091,0.3091,0.3091,0.3091,0.3091,0.3093,0.3094,0.3094,0.3095,0.3097,0.3097,0.3097,0.308,0.309,0.3089,0.3152,-0.2512,-0.1341,-0.0162,0.0988,0.1564,0.1815,0.1778,0.1856,0.1882,0.1923,0.1871,0.1949,0.2007,0.2035,0.2052,0.2126,0.2164,0.2183,0.2097,0.2103,0.2109,0.2109,0.2118,0.219,0.2125,0.2124,0.219,0.219,0.219,0.219,0.219,0.219,0.219,0.219,0.219,0.2114,0.2094,0.2084,0.2059,0.2018,0.2361,0.2775,0.3332,0.3517,0.3703,0.3889,0.3889,0.3889,0.3889,0.3889,0.3889,0.3889,0.3889,0.3889,0.3887,0.3928,0.3869,0.3847,0.3706,0.3665,0.3642,0.3601,0.3587,0.3587,0.3587,0.3587,0.3587,0.3587,0.3587,0.3582,0.3563,0.3526,0.3486,0.3447,0.3377,0.3316,0.3296,0.3208,0.318,0.318,0.318,0.318,0.318,0.318,0.318,0.318,0.3129,0.3119,0.3105,0.3097,0.3097,0.3097,0.3097,0.3097,0.3097,0.3097,0.3097,0.3097,0.3097,0.3097,0.3097,0.3089,0.3109,0.3109,0.3149,0.317,0.317,0.317,0.32,0.3208,0.3168,0.3193,-0.2087,-0.1107,-0.0168,0.1421,0.1842,0.1859,0.1812,0.1888,0.1911,0.1941,0.1947,0.1962,0.2009,0.2044,0.2132,0.2078,0.2188,0.2215,0.2128,0.2133,0.2135,0.2126,0.2133,0.2135,0.2126,0.2143,0.2222,0.2222,0.2222,0.2222,0.2222,0.2222,0.2222,0.2222,0.2222,0.2212,0.2125,0.2115,0.2079,0.2018,0.2485,0.29,0.3332,0.3517,0.3765,0.3889,0.3889,0.3889,0.3889,0.3889,0.3889,0.3889,0.3889,0.3889,0.3889,0.3889,0.3927,0.3879,0.3778,0.3714,0.3672,0.3632,0.3605,0.3587,0.3587,0.3587,0.3587,0.3587,0.3587,0.3587,0.3587,0.3557,0.3523,0.3501,0.3439,0.3377,0.3358,0.3323,0.3296,0.3296,0.3296,0.3296,0.3296,0.3278,0.3219,0.3292,0.3193,0.3183,0.3121,0.3115,0.3115,0.3115,0.3115,0.3115,0.3115,0.3115,0.3115,0.3115,0.3115,0.3115,0.3115,0.3151,0.3122,0.3122,0.316,0.318,0.318,0.318,0.32,0.3289,0.322,0.3283,-0.23,-0.159,-0.1038,0.1291,0.1887,0.1896,0.1924,0.1932,0.1941,0.1971,0.1977,0.1984,0.0,0.2042,0.2074,0.2104,0.2135,0.2223,0.2224,0.2131,0.2122,0.2218,0.2129,0.2123,0.2219,0.2222,0.2222,0.2222,0.2222,0.2222,0.2222,0.2222,0.2222,0.2222,0.2222,0.2222,0.2222,0.2123,0.2078,0.202,0.2673,0.2961,0.3023,0.3642,0.3889,0.3889,0.3889,0.3889,0.3889,0.3889,0.3889,0.3889,0.3889,0.3889,0.3889,0.3889,0.3889,0.3881,0.3884,0.3845,0.3687,0.368,0.3639,0.3591,0.3589,0.3587,0.3587,0.3587,0.3587,0.3587,0.3587,0.3587,0.3572,0.3515,0.3499,0.3481,0.3428,0.3414,0.3413,0.3413,0.3413,0.3413,0.3413,0.3364,0.3346,0.3403,0.3364,0.3305,0.3196,0.3189,0.3188,0.3185,0.3185,0.3184,0.318,0.318,0.318,0.318,0.318,0.318,0.318,0.318,0.318,0.318,0.318,0.3181,0.3185,0.3185,0.3187,0.3191,0.3298,0.3327,-0.2258,-0.1165,-0.0117,0.1471,0.1903,0.1922,0.1929,0.1949,0.1967,0.1975,0.1977,0.1979,0.1986,0.2029,0.2074,0.2104,0.2135,0.223,0.2185,0.2162,0.2213,0.2221,0.2215,0.2213,0.2221,0.2222,0.2222,0.2222,0.2222,0.2222,0.2222,0.2222,0.2222,0.2222,0.2222,0.2222,0.2222,0.2102,0.2067,0.2052,0.2436,0.2775,0.3023,0.3394,0.3703,0.3889,0.3889,0.3889,0.3889,0.3889,0.3889,0.3889,0.3889,0.3889,0.3889,0.3889,0.3889,0.3887,0.3872,0.3877,0.3858,0.3707,0.3668,0.3647,0.3601,0.3587,0.3587,0.3587,0.3587,0.3587,0.3587,0.3587,0.3583,0.3568,0.3529,0.3492,0.3478,0.3441,0.3413,0.3413,0.3413,0.3413,0.3413,0.3399,0.3394,0.341,0.3399,0.3384,0.3368,0.3367,0.3349,0.3304,0.3298,0.323,0.3184,0.318,0.318,0.318,0.318,0.318,0.318,0.318,0.318,0.318,0.318,0.3203,0.3298,0.3298,0.3322,0.3367,0.3383,0.3412,-0.237,-0.1433,-0.048,0.1443,0.1939,0.1951,0.1951,0.1964,0.1973,0.196,0.1967,0.1969,0.1941,0.2006,0.2069,0.2086,0.2137,0.2181,0.2198,0.2185,0.217,0.2224,0.2222,0.2222,0.2222,0.2222,0.2222,0.2222,0.2222,0.2222,0.2222,0.2222,0.2222,0.2222,0.2222,0.2222,0.2222,0.2108,0.2077,0.2128,0.252,0.2794,0.3023,0.3455,0.3765,0.3889,0.3889,0.3889,0.3889,0.3889,0.3889,0.3889,0.3889,0.3889,0.3889,0.3889,0.3889,0.3889,0.3889,0.3928,0.3884,0.3789,0.374,0.3707,0.3646,0.3627,0.3621,0.3595,0.3587,0.3587,0.3587,0.3587,0.3587,0.3587,0.3561,0.3537,0.3537,0.3512,0.3489,0.3489,0.3489,0.3489,0.3489,0.3467,0.3459,0.3485,0.3466,0.3459,0.3486,0.3444,0.3399,0.3365,0.3361,0.3347,0.3313,0.3311,0.3311,0.3311,0.3285,0.3282,0.3309,0.3208,0.3205,0.3309,0.3285,0.33,0.3361,0.3361,0.3379,0.3414,0.3465,0.3492,-0.2772,-0.201,-0.1416,0.1111,0.1853,0.1975,0.1971,0.1967,0.1957,0.193,0.1943,0.1945,0.19,0.1979,0.2121,0.2068,0.2136,0.2191,0.2199,0.2196,0.2185,0.2225,0.2222,0.2222,0.2222,0.2222,0.2222,0.2222,0.2222,0.2222,0.2222,0.2222,0.2222,0.2222,0.2222,0.2222,0.2222,0.2125,0.2094,0.2128,0.2733,0.3005,0.3023,0.3642,0.3889,0.3889,0.3889,0.3889,0.3889,0.3889,0.3889,0.3889,0.3889,0.3889,0.3889,0.3889,0.3889,0.3889,0.3889,0.3889,0.388,0.388,0.3884,0.3829,0.3709,0.3684,0.3668,0.3615,0.3594,0.3587,0.3587,0.3587,0.3587,0.3587,0.3587,0.3587,0.3587,0.3587,0.3587,0.3587,0.3587,0.3587,0.3587,0.3544,0.3526,0.3579,0.3542,0.3527,0.358,0.3499,0.3433,0.3424,0.3424,0.3421,0.3413,0.3413,0.3413,0.3413,0.3362,0.3357,0.341,0.3311,0.3305,0.341,0.3361,0.3367,0.3436,0.3436,0.344,0.345,0.3552,0.3571,-0.397,-0.2763,-0.1601,-0.0062,0.1173,0.197,0.1945,0.1919,0.0,0.1895,0.1878,0.1876,0.1916,0.1961,0.2016,0.2089,0.2115,0.2142,0.2193,0.2178,0.2228,0.2223,0.2222,0.2222,0.2222,0.2222,0.2222,0.2222,0.2222,0.2222,0.2222,0.2222,0.2222,0.2222,0.2222,0.2222,0.2222,0.2125,0.2094,0.2128,0.2733,0.3005,0.3023,0.3642,0.3889,0.3889,0.3889,0.3889,0.3889,0.3889,0.3889,0.3889,0.3889,0.3889,0.3889,0.3889,0.3889,0.3889,0.3889,0.3889,0.388,0.388,0.3913,0.3892,0.3831,0.3718,0.3676,0.3666,0.3627,0.3587,0.3587,0.3587,0.3587,0.3587,0.3587,0.3587,0.3587,0.3587,0.3587,0.3587,0.3587,0.3587,0.3587,0.3578,0.3575,0.3586,0.3578,0.3575,0.3586,0.357,0.3538,0.3488,0.3481,0.3463,0.3417,0.3413,0.3413,0.3413,0.3402,0.3401,0.3412,0.3392,0.3391,0.3412,0.3402,0.345,0.3557,0.3557,0.3583,0.3632,0.3653,0.3657,-0.4237,-0.3445,-0.2646,-0.1354,-0.0062,0.0798,0.0121,0.0,0.0,0.0173,0.0,0.0,0.0114,0.059,0.1044,0.1129,0.1669,0.2107,0.2168,0.2231,0.2222,0.2222,0.2222,0.2222,0.2222,0.2222,0.2222,0.2222,0.2222,0.2222,0.2222,0.2222,0.2222,0.2222,0.2222,0.2222,0.2222,0.214,0.211,0.2128,0.2755,0.3028,0.3023,0.3642,0.3889,0.3889,0.3889,0.3889,0.3889,0.3889,0.3889,0.3889,0.3889,0.3889,0.3889,0.3889,0.3889,0.3889,0.3889,0.3889,0.3884,0.3917,0.3907,0.3895,0.3835,0.3855,0.3824,0.3734,0.3681,0.3635,0.3635,0.361,0.3587,0.3587,0.3587,0.3587,0.3587,0.3587,0.3587,0.3587,0.3587,0.3587,0.3587,0.3587,0.3587,0.3587,0.3587,0.3587,0.3587,0.3587,0.3576,0.3546,0.3544,0.3533,0.3506,0.3503,0.3503,0.3503,0.3474,0.347,0.3501,0.3473,0.3486,0.3549,0.3519,0.3546,0.3635,0.3602,0.3602,0.3631,0.3664,0.3661,-0.4616,-0.4122,-0.369,-0.2646,-0.1413,-0.061,-0.1622,-0.1013,0.0,-0.1467,-0.1648,-0.1648,-0.1518,-0.0793,-0.0237,-0.012,0.0931,0.1738,0.1734,0.201,0.2214,0.2221,0.2222,0.2222,0.2222,0.2222,0.2222,0.2222,0.2222,0.2222,0.2222,0.2222,0.2222,0.2222,0.2222,0.2222,0.2222,0.2222,0.2194,0.2138,0.2788,0.3069,0.3052,0.3664,0.3907,0.3907,0.3893,0.3889,0.3889,0.3889,0.3889,0.3889,0.3889,0.3889,0.3889,0.3889,0.3889,0.3889,0.3889,0.3889,0.3889,0.3889,0.3889,0.388,0.3894,0.3871,0.391,0.3862,0.3745,0.3695,0.3681,0.3643,0.3604,0.359,0.3587,0.3587,0.3587,0.3587,0.3587,0.3587,0.3587,0.3587,0.3587,0.3587,0.3587,0.3587,0.3587,0.3587,0.3587,0.3587,0.3587,0.3587,0.3587,0.3587,0.3587,0.3587,0.3587,0.3587,0.3555,0.355,0.3586,0.3553,0.3574,0.3657,0.3612,0.3617,0.3679,0.363,0.3606,0.3608,0.3655,0.3646,-0.5732,-0.4802,-0.3875,-0.3752,-0.2678,-0.1681,-0.1834,0.0,-0.1633,-0.1737,-0.1752,-0.1677,-0.1609,-0.1439,-0.1404,-0.149,-0.0423,0.0433,0.0327,0.132,0.2123,0.2218,0.2222,0.2222,0.2222,0.2222,0.2222,0.2222,0.2222,0.2222,0.2222,0.2222,0.2222,0.2222,0.2222,0.2222,0.2222,0.2222,0.2138,0.2105,0.2764,0.3068,0.3083,0.3737,0.3965,0.3962,0.3911,0.3889,0.3889,0.3889,0.3889,0.3889,0.3889,0.3889,0.3889,0.3889,0.3889,0.3889,0.3889,0.3889,0.3889,0.3889,0.3889,0.3888,0.3883,0.3903,0.3919,0.3913,0.3867,0.3748,0.3694,0.3674,0.3655,0.3601,0.3587,0.3587,0.3587,0.3587,0.3587,0.3587,0.3587,0.3587,0.3587,0.3587,0.3587,0.3587,0.3587,0.3587,0.3587,0.3587,0.3587,0.3587,0.3587,0.3587,0.3587,0.3587,0.3587,0.3587,0.3634,0.3639,0.359,0.3635,0.364,0.3597,0.359,0.3617,0.3679,0.3673,0.367,0.367,0.3676,0.3646,-0.5902,-0.5483,-0.5111,-0.5111,-0.4017,-0.3176,-0.3952,-0.3466,-0.2994,-0.3709,-0.3819,-0.3772,-0.3692,-0.3055,-0.262,-0.2687,-0.1671,-0.0887,-0.1079,0.0064,0.0961,0.0926,0.1661,0.2134,0.222,0.2222,0.2222,0.2222,0.2222,0.2222,0.2222,0.2222,0.2222,0.2222,0.2222,0.2222,0.2222,0.2222,0.2139,0.2109,0.2769,0.3076,0.3097,0.3781,0.407,0.397,0.3948,0.392,0.3889,0.3889,0.3889,0.3889,0.3889,0.3889,0.3889,0.3889,0.3889,0.3889,0.3889,0.3889,0.3889,0.3889,0.3889,0.3889,0.3889,0.3872,0.3914,0.3914,0.3871,0.3869,0.3749,0.3679,0.3617,0.3593,0.3587,0.3587,0.3587,0.3587,0.3587,0.3587,0.3587,0.3587,0.3587,0.3587,0.3587,0.3587,0.3587,0.3587,0.3587,0.3587,0.3587,0.3587,0.3587,0.3587,0.3587,0.3587,0.3587,0.3587,0.361,0.3613,0.3589,0.3646,0.3668,0.3643,0.3642,0.3654,0.3679,0.3642,0.3624,0.3624,0.3624,0.361,-0.5853,-0.5896,-0.591,-0.5884,-0.5081,-0.4525,-0.5389,-0.4784,-0.4302,-0.509,-0.5186,-0.5165,-0.5037,-0.4358,-0.3843,-0.3921,-0.2912,-0.2255,-0.2417,-0.1307,-0.0314,0.0065,0.0916,0.1713,0.2138,0.2216,0.2222,0.2222,0.2222,0.2222,0.2222,0.2222,0.2222,0.2222,0.2222,0.2222,0.2222,0.2222,0.2211,0.2255,0.2852,0.3167,0.3332,0.3901,0.413,0.4086,0.3987,0.395,0.3912,0.3896,0.3889,0.3889,0.3889,0.3889,0.3889,0.3889,0.3889,0.3889,0.3889,0.3889,0.3889,0.3889,0.3889,0.3889,0.3889,0.3889,0.3889,0.3889,0.3894,0.3883,0.384,0.3679,0.3587,0.3587,0.3587,0.3587,0.3587,0.3587,0.3587,0.3587,0.3587,0.3587,0.3587,0.3587,0.3587,0.3587,0.3587,0.3587,0.3587,0.3587,0.3587,0.3587,0.3587,0.3587,0.3587,0.3587,0.3587,0.3587,0.3604,0.3606,0.3589,0.3646,0.367,0.3651,0.3651,0.3651,0.3651,0.3608,0.3587,0.3587,0.3587,0.3587,-0.5819,-0.5847,-0.5896,-0.5804,-0.5712,-0.5562,-0.5529,-0.5443,-0.5382,-0.538,-0.5235,-0.5108,-0.5106,-0.5032,-0.5032,-0.5162,-0.4212,-0.356,-0.3735,-0.2682,-0.1393,-0.0064,0.0129,0.0649,0.1975,0.2137,0.2222,0.2222,0.2222,0.2222,0.2222,0.2222,0.2222,0.2222,0.2222,0.2222,0.2222,0.2222,0.2357,0.2694,0.3027,0.343,0.3831,0.4044,0.4215,0.4209,0.4087,0.3971,0.3967,0.3912,0.3889,0.3889,0.3889,0.3889,0.3889,0.3889,0.3889,0.3889,0.3889,0.3889,0.3889,0.3889,0.3889,0.3889,0.3889,0.3889,0.3889,0.3889,0.3864,0.3829,0.3829,0.3679,0.3587,0.3587,0.3587,0.3587,0.3587,0.3587,0.3587,0.3587,0.3587,0.3587,0.3587,0.3587,0.3587,0.3587,0.3587,0.3587,0.3587,0.3587,0.3587,0.3587,0.3587,0.3587,0.3587,0.3587,0.3587,0.3587,0.3644,0.365,0.359,0.3646,0.365,0.359,0.3589,0.3589,0.3589,0.3587,0.3587,0.3587,0.3587,0.3587,-0.5944,-0.5829,-0.5665,-0.5694,-0.5618,-0.5543,-0.5514,-0.5443,-0.5363,-0.53,-0.5192,-0.509,-0.5026,-0.4941,-0.4979,-0.5288,-0.4943,-0.4782,-0.5188,-0.3276,-0.169,-0.1284,0.0393,0.173,0.2139,0.2216,0.2222,0.2222,0.2222,0.2222,0.2222,0.2222,0.2222,0.2222,0.2222,0.2222,0.2222,0.2222,0.2357,0.2694,0.3027,0.3431,0.3834,0.4152,0.4256,0.4214,0.4176,0.4112,0.397,0.3952,0.3923,0.3889,0.3889,0.3889,0.3889,0.3889,0.3889,0.3889,0.3889,0.3889,0.3889,0.3889,0.3889,0.3889,0.3889,0.3889,0.3889,0.3889,0.3862,0.3829,0.3829,0.3679,0.3587,0.3587,0.3587,0.3587,0.3587,0.3587,0.3587,0.3587,0.3587,0.3587,0.3587,0.3587,0.3587,0.3587,0.3587,0.3587,0.3587,0.3587,0.3587,0.3587,0.3587,0.3587,0.3587,0.3587,0.3587,0.3587,0.3605,0.3608,0.3589,0.3605,0.3606,0.3589,0.3587,0.3587,0.3587,0.3587,0.3587,0.3587,0.4033,0.4283,-0.5886,-0.5884,-0.5754,-0.56,-0.5549,-0.55,-0.5467,-0.5418,-0.5365,-0.5308,-0.5196,-0.509,-0.5035,-0.4949,-0.4983,-0.5282,-0.5337,-0.525,-0.5129,-0.365,-0.2255,-0.1284,0.079,0.2138,0.2138,0.2215,0.2222,0.2222,0.2222,0.2222,0.2222,0.2222,0.2222,0.2222,0.2222,0.2222,0.2222,0.2357,0.2558,0.2894,0.3229,0.3632,0.3971,0.4172,0.4286,0.4249,0.4226,0.4173,0.0,0.399,0.3951,0.3918,0.3897,0.3889,0.3889,0.3889,0.3889,0.3889,0.3889,0.3889,0.3889,0.3889,0.3889,0.3889,0.3889,0.3889,0.3889,0.3889,0.3862,0.3829,0.3829,0.3679,0.3587,0.3587,0.3587,0.3587,0.3587,0.3587,0.3587,0.3587,0.3587,0.3587,0.3587,0.3587,0.3587,0.3587,0.3587,0.3587,0.3587,0.3587,0.3587,0.3587,0.3587,0.3587,0.3587,0.3587,0.3587,0.3587,0.3587,0.3587,0.3587,0.3587,0.3587,0.3587,0.3587,0.3587,0.3587,0.3587,0.3587,0.3589,0.403,0.429,0.0,-0.5975,-0.5996,-0.5616,-0.548,-0.5457,-0.538,-0.5367,0.0,-0.5363,-0.5233,-0.5116,-0.5108,-0.5039,-0.5041,-0.517,-0.5396,-0.5133,-0.4095,-0.393,-0.2917,-0.0387,0.1113,0.1914,0.1782,0.1937,0.2019,0.1885,0.2019,0.2019,0.1885,0.2087,0.2155,0.2019,0.2155,0.2222,0.2222,0.2492,0.2828,0.3228,0.3565,0.3969,0.4308,0.4308,0.4308,0.4304,0.4247,0.4221,0.4207,0.4094,0.3979,0.3967,0.3915,0.3892,0.3889,0.3889,0.3889,0.3889,0.3889,0.3889,0.3889,0.3889,0.3889,0.3889,0.3889,0.3889,0.3889,0.3889,0.3867,0.3834,0.383,0.3681,0.3593,0.3589,0.3587,0.3587,0.3587,0.3587,0.3587,0.3587,0.3587,0.3587,0.3587,0.3587,0.3589,0.3593,0.359,0.3589,0.3593,0.359,0.3587,0.3587,0.3587,0.3587,0.3587,0.3587,0.3587,0.3587,0.3587,0.3587,0.3587,0.3587,0.3587,0.3587,0.3587,0.3587,0.3587,0.3595,0.36,0.3604,0.3783,0.3871,-0.6936,0.0,-0.5613,-0.5534,-0.5366,-0.5196,0.0,-0.5226,-0.5257,-0.5188,0.0,-0.5138,-0.512,-0.509,-0.5137,-0.532,-0.5439,-0.5464,-0.5362,-0.4565,-0.3361,-0.179,-0.0334,0.0067,-0.1002,-0.0134,0.0067,-0.1007,-0.0067,0.0067,-0.1007,0.1009,0.1682,0.0538,0.1615,0.2222,0.2222,0.2289,0.2625,0.3228,0.3295,0.3701,0.4308,0.4308,0.4308,0.4307,0.4292,0.426,0.4214,0.4185,0.4119,0.397,0.3958,0.3926,0.3889,0.3889,0.3889,0.3889,0.3889,0.3889,0.3889,0.3889,0.3889,0.3889,0.3889,0.3889,0.3889,0.3889,0.3897,0.3888,0.384,0.3713,0.3646,0.3598,0.3587,0.3587,0.3587,0.3587,0.3587,0.3587,0.3587,0.3587,0.3587,0.3587,0.3604,0.365,0.3617,0.3604,0.3651,0.3616,0.3587,0.3587,0.3587,0.3587,0.3587,0.3587,0.3587,0.3587,0.3587,0.3587,0.3587,0.3587,0.3587,0.3587,0.3587,0.3587,0.3587,0.3681,0.3726,0.3787,0.4331,0.4594,-0.741,-0.6933,-0.6299,-0.5572,-0.5343,-0.5269,-0.5108,0.0,0.0,0.0,0.0,-0.5167,-0.5118,-0.5108,-0.5167,-0.5353,-0.5453,-0.5366,-0.5007,-0.3874,-0.2811,-0.2125,-0.1405,-0.1276,-0.2014,-0.141,-0.1276,-0.2014,-0.141,-0.1276,-0.2081,-0.0605,-0.0134,-0.094,-0.0202,0.0874,0.2155,0.2357,0.2693,0.3228,0.3363,0.3768,0.4308,0.4308,0.4308,0.4308,0.4308,0.4289,0.4256,0.4228,0.4161,0.4076,0.4076,0.3962,0.3892,0.3918,0.3911,0.3889,0.3889,0.3889,0.3889,0.3889,0.3889,0.3889,0.3889,0.3889,0.3889,0.3889,0.3907,0.3913,0.388,0.3745,0.367,0.3636,0.3608,0.3595,0.3623,0.3606,0.3595,0.3624,0.363,0.363,0.363,0.3653,0.3681,0.3715,0.3692,0.3683,0.3717,0.3691,0.367,0.367,0.367,0.367,0.367,0.3646,0.3617,0.359,0.3587,0.3587,0.3587,0.3587,0.3587,0.3587,0.3615,0.363,0.363,0.3752,0.387,0.3874,0.4271,0.4455,-0.7707,-0.768,-0.7271,-0.5748,-0.543,-0.5404,-0.5177,0.0,0.0,0.0,0.0,0.0,-0.5128,-0.5151,-0.522,-0.5375,-0.5484,-0.5255,-0.4385,-0.3292,-0.2627,-0.2705,-0.2533,-0.255,-0.2752,-0.255,-0.255,-0.2752,-0.255,-0.255,-0.2752,-0.2349,-0.2215,-0.2416,-0.2215,-0.094,0.1547,0.1817,0.2153,0.2486,0.2823,0.3228,0.3632,0.3834,0.3969,0.4038,0.4239,0.4308,0.4304,0.4252,0.4194,0.4139,0.413,0.3995,0.3907,0.3944,0.393,0.3889,0.3889,0.3889,0.3889,0.3889,0.3889,0.3889,0.3889,0.3889,0.3889,0.3889,0.3914,0.3872,0.3923,0.3842,0.3703,0.3695,0.3653,0.363,0.3681,0.3651,0.3631,0.3683,0.3692,0.3692,0.3692,0.3734,0.3831,0.3841,0.3834,0.3831,0.3841,0.3834,0.3829,0.3829,0.3829,0.3829,0.3829,0.3722,0.367,0.3619,0.3598,0.3591,0.3601,0.3593,0.3597,0.3615,0.3657,0.3687,0.3706,0.3828,0.3887,0.3891,0.406,0.4018,-0.8617,-0.8196,-0.7388,-0.6118,-0.5629,-0.539,-0.5203,0.0,0.0,0.0,0.0,0.0,0.0,-0.5345,-0.5455,-0.5484,-0.5629,-0.5776,-0.5865,-0.5668,-0.5606,-0.5811,-0.4696,-0.4434,-0.5711,-0.4702,-0.4501,-0.5711,-0.4635,-0.4501,-0.5778,-0.349,-0.2685,-0.3896,-0.2752,-0.1879,-0.1477,-0.141,-0.1208,-0.0872,-0.0805,-0.0269,0.0672,0.1612,0.2351,0.3026,0.3902,0.4308,0.4307,0.4297,0.4258,0.4198,0.4146,0.4083,0.3954,0.3916,0.3896,0.3889,0.3889,0.3889,0.3889,0.3889,0.3889,0.3889,0.3889,0.3889,0.3889,0.3889,0.3883,0.3925,0.3873,0.3906,0.3878,0.3827,0.3748,0.3744,0.3753,0.3748,0.3744,0.3812,0.3813,0.3813,0.3813,0.3822,0.3845,0.3898,0.3862,0.3847,0.3899,0.386,0.3829,0.3829,0.3829,0.3829,0.3829,0.3819,0.3751,0.3743,0.3644,0.361,0.3662,0.3615,0.3635,0.3739,0.37,0.3729,0.3892,0.395,0.4008,0.4011,0.4142,0.4165,-0.8649,-0.7847,-0.6797,-0.6265,-0.5939,-0.5611,-0.5253,-0.512,0.0,0.0,0.0,0.0,0.0,-0.5422,-0.5555,-0.5704,-0.58,-0.5931,-0.6149,-0.6223,-0.6286,-0.637,-0.5887,-0.578,-0.6453,-0.5915,-0.578,-0.6453,-0.5848,-0.578,-0.6453,-0.524,-0.4769,-0.5444,-0.4836,-0.45,-0.45,-0.45,-0.349,-0.161,-0.161,-0.1275,-0.0604,-0.0067,0.0537,0.1277,0.1747,0.2218,0.2555,0.2555,0.2867,0.3292,0.2703,0.3123,0.4076,0.3955,0.3603,0.3208,0.3703,0.3889,0.3889,0.3889,0.3889,0.3889,0.3889,0.3889,0.3889,0.3889,0.3889,0.3883,0.3917,0.3884,0.3913,0.3885,0.3852,0.3837,0.387,0.3851,0.3838,0.3872,0.3877,0.3877,0.3877,0.3845,0.3876,0.3905,0.3886,0.3877,0.3905,0.3884,0.3867,0.3867,0.3867,0.3867,0.3867,0.3837,0.3863,0.383,0.3717,0.3698,0.3726,0.37,0.3711,0.3827,0.3833,0.3863,0.392,0.3977,0.3971,0.3974,0.4125,0.4135,-0.8658,-0.75,-0.6282,-0.629,0.0,-0.5826,-0.545,-0.5231,0.0,0.0,0.0,0.0,-0.5369,-0.5486,-0.5655,-0.5908,-0.5965,-0.6033,-0.619,-0.6272,-0.6325,-0.6345,-0.6411,-0.652,-0.652,-0.652,-0.652,-0.652,-0.652,-0.652,-0.652,-0.652,-0.652,-0.652,-0.652,-0.652,-0.652,-0.652,-0.524,-0.2752,-0.2752,-0.255,-0.2081,-0.1878,-0.1208,-0.0336,-0.0134,0.0403,0.1075,0.1075,0.1536,0.2184,0.1401,0.1977,0.3346,0.355,0.3004,0.2293,0.3212,0.358,0.358,0.358,0.3703,0.3889,0.3889,0.3889,0.3889,0.3889,0.3889,0.3889,0.3889,0.3916,0.3882,0.3882,0.3845,0.3824,0.3871,0.3845,0.3826,0.3872,0.3882,0.3882,0.3882,0.392,0.3889,0.3889,0.3889,0.3889,0.3889,0.3889,0.3889,0.3889,0.3889,0.3889,0.3889,0.3909,0.3861,0.3815,0.3785,0.3834,0.3849,0.3836,0.3782,0.3811,0.3903,0.3934,0.3902,0.3991,0.3971,0.3973,0.4082,0.4072,-0.9087,-0.7777,-0.6273,-0.6241,-0.5999,-0.586,-0.6004,-0.5545,0.0,-0.5326,0.0,0.0,-0.538,-0.559,-0.5823,-0.595,-0.611,-0.6194,-0.6294,-0.6313,-0.6349,-0.65,-0.6516,-0.652,-0.652,-0.652,-0.652,-0.652,-0.652,-0.652,-0.652,-0.652,-0.652,-0.652,-0.652,-0.652,-0.652,-0.652,-0.6386,-0.6116,-0.6116,-0.5781,-0.5042,-0.4028,-0.2819,-0.1411,-0.0403,0.0403,0.1075,0.1075,0.1142,0.1206,0.106,0.1046,0.1223,0.2156,0.1891,0.1194,0.2231,0.259,0.259,0.259,0.3208,0.3889,0.3889,0.3889,0.3889,0.3889,0.3889,0.3889,0.3889,0.3885,0.3883,0.3883,0.388,0.3877,0.3881,0.388,0.3877,0.3881,0.3883,0.3883,0.3883,0.3887,0.3889,0.3889,0.3889,0.3889,0.3889,0.3889,0.3889,0.3889,0.3889,0.3889,0.3889,0.3885,0.3881,0.3876,0.3831,0.3854,0.3912,0.3859,0.3822,0.3873,0.3887,0.3914,0.4022,0.3967,0.3971,0.3971,0.3975,0.3948,-0.9012,-0.7662,-0.6306,-0.6316,-0.6259,0.0,0.0,-0.5786,-0.5618,-0.5518,-0.5545,0.0,-0.5618,-0.5759,-0.5906,-0.597,-0.6019,-0.6131,-0.6219,-0.6282,-0.6329,-0.6364,-0.6419,-0.652,-0.652,-0.652,-0.652,-0.652,-0.652,-0.652,-0.652,-0.652,-0.652,-0.652,-0.652,-0.6494,-0.637,-0.6425,-0.6425,-0.637,-0.6494,-0.6386,-0.6051,-0.5644,-0.4903,-0.3966,-0.3562,-0.2688,-0.1546,-0.1546,-0.0941,0.0202,0.0802,0.0198,-0.0783,0.09,0.089,0.0189,0.1239,0.1973,0.2529,0.2529,0.3146,0.3889,0.3889,0.3889,0.3889,0.3889,0.3889,0.3889,0.3889,0.3889,0.3889,0.3889,0.3889,0.3889,0.3889,0.3889,0.3889,0.3889,0.3889,0.3889,0.3889,0.3889,0.3889,0.3889,0.3889,0.3889,0.3889,0.3889,0.3889,0.3889,0.3889,0.3889,0.3889,0.3889,0.3889,0.3889,0.3846,0.3892,0.3916,0.3894,0.3903,0.3888,0.3928,0.3939,0.392,0.392,0.392,0.392,0.392,0.391,-0.8631,-0.7459,-0.6339,-0.6368,0.0,0.0,-0.6107,-0.5978,-0.5956,-0.5759,-0.5706,-0.5706,-0.5769,-0.5855,-0.5947,-0.5976,-0.6013,-0.6114,-0.6172,-0.6233,-0.6274,-0.6274,-0.6355,-0.6411,-0.6411,-0.6504,-0.652,-0.652,-0.652,-0.652,-0.652,-0.652,-0.652,-0.652,-0.6491,-0.6394,-0.6359,-0.6394,-0.6394,-0.6362,-0.6425,-0.652,-0.652,-0.652,-0.6118,-0.5381,-0.5381,-0.4572,-0.3228,-0.3228,-0.2354,-0.0942,-0.0202,-0.0869,-0.192,-0.013,-0.0128,-0.0886,0.0186,0.0986,0.1541,0.1541,0.2405,0.3455,0.3455,0.3642,0.3889,0.3889,0.3889,0.3889,0.3889,0.3889,0.3889,0.3889,0.3889,0.3889,0.3889,0.3889,0.3889,0.3889,0.3889,0.3889,0.3889,0.3889,0.3889,0.3889,0.3889,0.3889,0.3889,0.3889,0.3889,0.3889,0.3889,0.3889,0.3889,0.3889,0.3889,0.3889,0.3889,0.3889,0.3889,0.3889,0.3889,0.3889,0.3889,0.3889,0.3889,0.3889,0.3889,0.3889,0.3889,0.3889,-0.8001,-0.7076,-0.6387,-0.6387,0.0,0.0,-0.6512,-0.6198,-0.5998,-0.5922,-0.5845,-0.5782,-0.5782,-0.5857,-0.5947,-0.5974,-0.6123,-0.6178,-0.618,-0.618,-0.618,-0.618,-0.6261,-0.6317,-0.6317,-0.6398,-0.652,-0.652,-0.652,-0.652,-0.652,-0.652,-0.652,-0.652,-0.6366,-0.6362,-0.6518,-0.6364,-0.6364,-0.652,-0.652,-0.652,-0.652,-0.652,-0.6118,-0.5381,-0.5381,-0.4574,-0.3228,-0.3228,-0.2826,-0.2222,-0.2222,-0.2222,-0.208,-0.0978,-0.1225,-0.1927,-0.0872,-0.0493,-0.0493,-0.0493,0.0863,0.2529,0.2529,0.3146,0.3889,0.3889,0.3889,0.3889,0.3889,0.3889,0.3889,0.3889,0.3889,0.3889,0.3889,0.3889,0.3889,0.3889,0.3889,0.3889,0.3889,0.3889,0.3889,0.3889,0.3889,0.3889,0.3889,0.3889,0.3889,0.3889,0.3889,0.3889,0.3889,0.3889,0.3889,0.3889,0.3889,0.3889,0.3889,0.3889,0.3889,0.3889,0.3889,0.3889,0.3889,0.3889,0.3889,0.3889,0.3889,0.3889,-0.8048,-0.7076,-0.6408,-0.6492,-0.6926,0.0,0.0,-0.6474,0.0,0.0,-0.5896,-0.5876,-0.5876,-0.59,-0.5925,-0.5953,-0.598,-0.6019,-0.6082,-0.6143,-0.618,-0.618,-0.6261,-0.6317,-0.6317,-0.6341,-0.6384,-0.6516,-0.652,-0.652,-0.652,-0.652,-0.652,-0.652,-0.6494,-0.6394,-0.6357,-0.6394,-0.6394,-0.6357,-0.6423,-0.652,-0.652,-0.652,-0.6386,-0.6185,-0.6185,-0.531,-0.3899,-0.2893,-0.2356,-0.2222,-0.2222,-0.2222,-0.2147,-0.176,-0.187,-0.2055,-0.1684,-0.111,-0.0493,-0.0493,0.0863,0.2529,0.2529,0.3146,0.3889,0.3889,0.3889,0.3889,0.3889,0.3889,0.3889,0.3889,0.3889,0.3889,0.3889,0.3889,0.3889,0.3889,0.3889,0.3889,0.3889,0.3889,0.3889,0.3889,0.3889,0.3889,0.3889,0.3889,0.3889,0.3889,0.3889,0.3889,0.3889,0.3889,0.3889,0.3889,0.3889,0.3889,0.3889,0.3889,0.3889,0.3889,0.3889,0.3889,0.3889,0.3889,0.3889,0.3889,0.3889,0.3889,-0.7712,-0.6933,-0.6622,-0.679,-0.7122,-0.7277,-0.6793,-0.6517,-0.6276,-0.5968,-0.5947,-0.5959,-0.5923,-0.5947,-0.591,-0.591,-0.591,-0.6002,-0.6092,-0.6147,-0.6168,-0.6133,-0.6208,-0.6261,-0.6261,-0.6296,-0.6355,-0.6514,-0.652,-0.652,-0.652,-0.652,-0.652,-0.652,-0.6419,-0.6372,-0.6317,-0.6335,-0.6335,-0.6317,-0.6335,-0.6364,-0.64,-0.6504,-0.652,-0.6453,-0.6185,-0.558,-0.4638,-0.3162,-0.2625,-0.2558,-0.2289,-0.2214,-0.2131,-0.2147,-0.2056,-0.2039,-0.1992,-0.1605,-0.1048,-0.0616,0.0308,0.1356,0.1788,0.259,0.3332,0.3332,0.3642,0.3889,0.3889,0.3889,0.3889,0.3889,0.3889,0.3889,0.3889,0.3889,0.3889,0.3889,0.3889,0.3889,0.3889,0.3889,0.3889,0.3889,0.3889,0.3889,0.3889,0.3889,0.3889,0.3889,0.3889,0.3889,0.3889,0.3889,0.3889,0.3889,0.3889,0.3889,0.3889,0.3889,0.3889,0.3889,0.3889,0.3889,0.3889,0.3889,0.3889,0.3889,0.3889,0.3889,-0.7145,-0.6717,-0.6874,-0.7166,-0.7355,-0.7359,-0.6977,-0.641,-0.5921,-0.5929,-0.5934,-0.5968,-0.5955,-0.5948,-0.6003,-0.6003,-0.6003,-0.6031,-0.618,-0.6186,-0.6151,-0.6011,-0.6133,-0.618,-0.618,-0.6264,-0.6355,-0.6514,-0.652,-0.652,-0.652,-0.652,-0.6516,-0.6508,-0.6359,-0.6313,-0.6304,-0.6223,-0.6223,-0.6302,-0.6221,-0.6223,-0.6306,-0.6398,-0.6512,-0.6453,-0.5709,-0.5374,-0.5312,-0.389,-0.3288,-0.3227,-0.2617,-0.2264,-0.2171,-0.2202,-0.2106,-0.2014,-0.1986,-0.1977,-0.1853,-0.0925,-0.0555,-0.0308,0.0678,0.1726,0.2529,0.259,0.3271,0.3889,0.3889,0.3889,0.3889,0.3889,0.3889,0.3889,0.3889,0.3889,0.3889,0.3889,0.3889,0.3889,0.3889,0.3889,0.3889,0.3889,0.3889,0.3889,0.3889,0.3889,0.3889,0.3889,0.3889,0.3889,0.3889,0.3889,0.3889,0.3889,0.3889,0.3889,0.3889,0.3889,0.3889,0.3889,0.3889,0.3889,0.3889,0.3889,0.3889,0.3889,0.3889,0.3889,-0.7223,-0.6779,-0.7002,-0.7239,-0.7246,-0.7217,-0.693,-0.6591,-0.6243,-0.6008,-0.5976,-0.6005,-0.6114,-0.6141,-0.6153,-0.6153,-0.6153,-0.6184,-0.6274,-0.6225,-0.6174,-0.6155,-0.617,-0.618,-0.618,-0.6264,-0.6355,-0.6514,-0.652,-0.652,-0.652,-0.652,-0.6421,-0.6349,-0.6327,-0.6282,-0.621,-0.619,-0.619,-0.621,-0.619,-0.619,-0.6212,-0.6304,-0.6386,-0.6449,-0.5583,-0.5325,-0.5304,-0.4269,-0.3888,-0.4024,-0.3742,-0.3335,-0.2955,-0.2816,-0.2467,-0.2014,-0.1986,-0.1977,-0.1977,-0.1729,-0.1172,-0.0308,0.0678,0.1726,0.2652,0.3394,0.3765,0.3889,0.3889,0.3889,0.3889,0.3889,0.3889,0.3889,0.3889,0.3889,0.3889,0.3889,0.3889,0.3889,0.3889,0.3889,0.3889,0.3889,0.3889,0.3889,0.3889,0.3889,0.3889,0.3889,0.3889,0.3889,0.3889,0.3889,0.3889,0.3889,0.3889,0.3889,0.3889,0.3889,0.3889,0.3889,0.3889,0.3889,0.3889,0.3889,0.3889,0.3889,0.3889,0.3889,-0.7334,-0.6929,-0.7138,-0.7437,-0.7528,-0.7493,-0.7189,-0.7018,-0.674,-0.6346,-0.6147,-0.6127,-0.6172,-0.618,-0.6194,-0.6237,-0.6176,-0.6166,-0.6298,-0.6237,-0.6166,-0.6125,-0.6121,-0.6135,-0.6176,-0.6223,-0.6308,-0.651,-0.6413,-0.6388,-0.6388,-0.6347,-0.63,-0.6253,-0.6251,-0.6208,-0.6121,-0.6121,-0.6121,-0.6119,-0.6076,-0.6078,-0.6125,-0.6257,-0.6368,-0.6449,-0.5961,-0.5773,-0.5837,-0.489,-0.4633,-0.4715,-0.4159,-0.3804,-0.3541,-0.3173,-0.2763,-0.2431,-0.2105,-0.1977,-0.1914,-0.1419,-0.1234,-0.0925,0.0555,0.1356,0.1973,0.2961,0.358,0.3889,0.3889,0.3889,0.3889,0.3889,0.3889,0.3889,0.3889,0.3889,0.3889,0.3889,0.3889,0.3889,0.3889,0.3889,0.3889,0.3889,0.3889,0.3889,0.3889,0.3889,0.3889,0.3889,0.3889,0.3889,0.3889,0.3889,0.3889,0.3889,0.3889,0.3889,0.3889,0.3889,0.3889,0.3889,0.3889,0.3889,0.3889,0.3889,0.3889,0.3889,0.3889,0.3889,-0.7689,-0.7246,-0.7352,-0.7619,-0.7785,-0.7811,-0.7447,-0.7385,-0.7232,-0.6717,-0.6436,-0.6246,-0.618,-0.6192,-0.6223,-0.6284,-0.617,-0.6063,-0.6272,-0.6217,-0.6133,-0.5998,-0.599,-0.6019,-0.6151,-0.6172,-0.6243,-0.6461,-0.6335,-0.6294,-0.6294,-0.6221,-0.6174,-0.6159,-0.6157,-0.6117,-0.5968,-0.5968,-0.5968,-0.5966,-0.5953,-0.5965,-0.5996,-0.614,-0.6321,-0.6469,-0.6327,-0.6335,-0.6392,-0.5564,-0.5295,-0.5303,-0.4571,-0.426,-0.4096,-0.3522,-0.3242,-0.3085,-0.2531,-0.2346,-0.216,-0.1233,-0.1481,-0.179,0.0123,0.074,0.0986,0.2158,0.3085,0.3703,0.3889,0.3889,0.3889,0.3889,0.3889,0.3889,0.3889,0.3889,0.3889,0.3889,0.3889,0.3889,0.3889,0.3889,0.3889,0.3889,0.3889,0.3889,0.3889,0.3889,0.3889,0.3889,0.3889,0.3889,0.3889,0.3889,0.3889,0.3889,0.3889,0.3889,0.3889,0.3889,0.3889,0.3889,0.3889,0.3889,0.3889,0.3889,0.3889,0.3889,0.3889,0.3889,-0.8514,-0.7858,-0.7508,-0.7663,-0.7785,-0.7811,-0.7447,-0.7385,-0.7293,-0.7027,-0.6753,-0.6569,-0.6246,-0.6245,-0.6276,-0.621,-0.618,-0.6172,-0.6194,-0.6125,-0.6003,-0.5992,-0.599,-0.5994,-0.6007,-0.6137,-0.619,-0.6215,-0.6206,-0.6198,-0.6198,-0.6186,-0.6147,-0.6009,-0.6007,-0.5964,-0.5937,-0.5935,-0.5935,-0.5935,-0.5923,-0.5965,-0.5992,-0.6015,-0.6135,-0.6217,-0.6204,-0.6206,-0.6204,-0.59,-0.5924,-0.6054,-0.5767,-0.5368,-0.4906,-0.4718,-0.4258,-0.376,-0.3698,-0.3637,-0.3513,-0.2899,-0.2776,-0.2529,-0.0801,-0.0308,0.0062,0.1973,0.259,0.29,0.3703,0.3889,0.3889,0.3889,0.3889,0.3889,0.3889,0.3889,0.3889,0.3889,0.3889,0.3889,0.3889,0.3889,0.3889,0.3889,0.3889,0.3889,0.3889,0.3889,0.3889,0.3889,0.3889,0.3889,0.3889,0.3889,0.3889,0.3889,0.3889,0.3889,0.3889,0.3889,0.3889,0.3889,0.3889,0.3889,0.3889,0.3889,0.3889,0.3889,0.3889,0.3889,-0.9064,-0.8036,-0.7478,-0.7733,-0.7834,-0.7872,-0.7689,-0.7689,-0.7582,-0.7261,-0.7173,-0.7014,-0.6558,-0.6304,-0.6172,-0.618,-0.6098,-0.6051,-0.6102,-0.6033,-0.5916,-0.5916,-0.5916,-0.5934,-0.5986,-0.6025,-0.6129,-0.6178,-0.6135,-0.611,-0.611,-0.6059,-0.6016,-0.5916,-0.5916,-0.5957,-0.5916,-0.5916,-0.5916,-0.5916,-0.5916,-0.5939,-0.5918,-0.5968,-0.61,-0.6178,-0.6129,-0.6135,-0.6168,-0.599,-0.5992,-0.6096,-0.5967,-0.5754,-0.5472,-0.5061,-0.4742,-0.4435,-0.4006,-0.3883,-0.3881,-0.3575,-0.3513,-0.3267,-0.2033,-0.1601,-0.1293,0.0123,0.1108,0.1786,0.2402,0.3083,0.3703,0.3889,0.3889,0.3889,0.3889,0.3889,0.3889,0.3889,0.3889,0.3889,0.3889,0.3889,0.3889,0.3889,0.3889,0.3889,0.3889,0.3889,0.3889,0.3889,0.3889,0.3889,0.3889,0.3889,0.3889,0.3889,0.3889,0.3889,0.3889,0.3889,0.3889,0.3889,0.3889,0.3889,0.3889,0.3889,0.3889,0.3889,0.3889,0.3889,-0.9215,-0.8196,-0.7661,-0.7711,-0.7782,-0.7837,-0.7864,-0.7872,-0.7811,-0.7566,-0.7516,-0.7351,-0.6927,-0.646,-0.6128,-0.6233,-0.6064,-0.5941,-0.5948,-0.5959,-0.5916,-0.5916,-0.5916,-0.5945,-0.595,-0.5956,-0.6045,-0.6108,-0.6055,-0.5956,-0.5956,-0.5953,-0.5916,-0.5916,-0.5916,-0.5916,-0.5916,-0.5916,-0.5916,-0.5916,-0.5916,-0.5916,-0.5919,-0.5926,-0.6053,-0.611,-0.6007,-0.6076,-0.6104,-0.5972,-0.5957,-0.595,-0.5943,-0.5916,-0.5855,-0.5358,-0.5174,-0.5112,-0.4559,-0.4436,-0.4375,-0.4189,-0.4127,-0.4004,-0.3141,-0.2832,-0.2586,-0.1478,-0.0431,0.0554,0.1539,0.2527,0.3332,0.3765,0.3889,0.3889,0.3889,0.3889,0.3889,0.3889,0.3889,0.3889,0.3889,0.3889,0.3889,0.3889,0.3889,0.3889,0.3889,0.3889,0.3889,0.3889,0.3889,0.3889,0.3889,0.3889,0.3889,0.3889,0.3889,0.3889,0.3889,0.3889,0.3889,0.3889,0.3889,0.3889,0.3889,0.3889,0.3889,0.3889,0.3889,0.3889,-0.8754,-0.8394,-0.8356,-0.7525,-0.7538,-0.7739,-0.7847,-0.7872,-0.7872,-0.7869,-0.7633,-0.7396,-0.7342,-0.6864,-0.646,-0.637,-0.6107,-0.5919,-0.5923,-0.5921,-0.5916,-0.5916,-0.5916,-0.5919,-0.5923,-0.5925,-0.5925,-0.5931,-0.5927,-0.5925,-0.5925,-0.5919,-0.5916,-0.5916,-0.5916,-0.5916,-0.5916,-0.5916,-0.5916,-0.5916,-0.5916,-0.5916,-0.5916,-0.5923,-0.5927,-0.5935,-0.5956,-0.5944,-0.5931,-0.5921,-0.5921,-0.5923,-0.5919,-0.5916,-0.5916,-0.5855,-0.5855,-0.5855,-0.5794,-0.5794,-0.5671,-0.5051,-0.4865,-0.4742,-0.4004,-0.382,-0.3512,-0.191,-0.1417,-0.0801,0.1788,0.2529,0.2775,0.3703,0.3889,0.3889,0.3889,0.3889,0.3889,0.3889,0.3889,0.3889,0.3889,0.3889,0.3889,0.3889,0.3889,0.3889,0.3889,0.3889,0.3889,0.3889,0.3889,0.3889,0.3889,0.3889,0.3889,0.3889,0.3889,0.3889,0.3889,0.3889,0.3889,0.3889,0.3889,0.3889,0.3889,0.3889,0.3889,0.3889,0.3889,0.3889,-1.0438,-0.9406,-0.8434,-0.8376,-0.7919,-0.7616,-0.7736,-0.7818,-0.7872,-0.7872,-0.7811,-0.775,-0.775,-0.7173,-0.6756,-0.6721,-0.6458,-0.6314,-0.6314,-0.6129,-0.6067,-0.6251,-0.6314,-0.6414,-0.6537,-0.6648,-0.6657,-0.6535,-0.6532,-0.6469,-0.6221,-0.6221,-0.6101,-0.5916,-0.5916,-0.5916,-0.5916,-0.5916,-0.5916,-0.5916,-0.5916,-0.5916,-0.5916,-0.5916,-0.5916,-0.5919,-0.5951,-0.5947,-0.5916,-0.5916,-0.5916,-0.5916,-0.5916,-0.5916,-0.5916,-0.5916,-0.5916,-0.5916,-0.5916,-0.5916,-0.5855,-0.5607,-0.5544,-0.5483,-0.5239,-0.5177,-0.5053,-0.4498,-0.3694,-0.277,-0.1599,-0.0062,0.1603,0.3271,0.3642,0.3703,0.3889,0.3889,0.3889,0.3889,0.3889,0.3889,0.3889,0.3889,0.3889,0.3889,0.3889,0.3889,0.3889,0.3889,0.3889,0.3889,0.3889,0.3889,0.3889,0.3889,0.3889,0.3889,0.3889,0.3889,0.3889,0.3889,0.3889,0.3889,0.3889,0.3889,0.3889,0.3889,0.3889,0.3889,0.3889,0.3889,-1.1408,-1.0412,-0.9332,-0.8889,-0.8373,-0.7852,-0.7714,-0.7761,-0.7823,-0.7861,-0.7872,-0.7872,-0.7872,-0.7508,-0.7217,-0.7131,-0.6883,-0.6688,-0.6785,-0.6602,-0.6539,-0.6726,-0.6789,-0.6876,-0.696,-0.7072,-0.707,-0.6908,-0.69,-0.6775,-0.6589,-0.6589,-0.6467,-0.6226,-0.6226,-0.6162,-0.6039,-0.6039,-0.6039,-0.5916,-0.5916,-0.5916,-0.5916,-0.5916,-0.5916,-0.5916,-0.5916,-0.5916,-0.5916,-0.5916,-0.5916,-0.5916,-0.5916,-0.5916,-0.5916,-0.5916,-0.5916,-0.5916,-0.5916,-0.5916,-0.5916,-0.5916,-0.5916,-0.5916,-0.5916,-0.5916,-0.5855,-0.5607,-0.4926,-0.4062,-0.3322,-0.1539,0.0431,0.2219,0.265,0.2836,0.3455,0.3765,0.3889,0.3889,0.3889,0.3889,0.3889,0.3889,0.3889,0.3889,0.3889,0.3889,0.3889,0.3889,0.3889,0.3889,0.3889,0.3889,0.3889,0.3889,0.3889,0.3889,0.3889,0.3889,0.3889,0.3889,0.3889,0.3889,0.3889,0.3889,0.3889,0.3889,0.3889,0.3889,0.3889,0.3889,0.0,0.0,0.0,-0.9133,-0.8679,-0.8571,-0.7895,-0.7744,-0.778,-0.7842,-0.7867,-0.7867,-0.7872,-0.7872,-0.7851,-0.7663,-0.7306,-0.7154,-0.7326,-0.7279,-0.7279,-0.7343,-0.7343,-0.7299,-0.7127,-0.7118,-0.7075,-0.6974,-0.6903,-0.69,-0.69,-0.69,-0.69,-0.69,-0.69,-0.6714,-0.6403,-0.6403,-0.6221,-0.5919,-0.5916,-0.5916,-0.5916,-0.5916,-0.5916,-0.5916,-0.5916,-0.5916,-0.5916,-0.5916,-0.5916,-0.5916,-0.5916,-0.5916,-0.5916,-0.5916,-0.5916,-0.5916,-0.5916,-0.5916,-0.5916,-0.5916,-0.5916,-0.5916,-0.5916,-0.5916,-0.5794,-0.5111,-0.4926,-0.4556,-0.2955,-0.1846,-0.0738,0.0615,0.0984,0.1354,0.2651,0.3455,0.3889,0.3889,0.3889,0.3889,0.3889,0.3889,0.3889,0.3889,0.3889,0.3889,0.3889,0.3889,0.3889,0.3889,0.3889,0.3889,0.3889,0.3889,0.3889,0.3889,0.3889,0.3889,0.3889,0.3889,0.3889,0.3889,0.3889,0.3889,0.3889,0.3889,0.3889,0.3889,0.3889,0.3889,-1.2689,0.0,0.0,0.0,0.0,0.0,-0.8555,-0.8373,-0.8241,-0.7866,-0.7747,-0.7774,-0.7856,-0.7872,-0.791,-0.7973,-0.7751,-0.7589,-0.7694,-0.7517,-0.7452,-0.7709,-0.7712,-0.7798,-0.7877,-0.7867,-0.788,-0.7764,-0.7678,-0.7508,-0.7266,-0.7021,-0.69,-0.69,-0.69,-0.6839,-0.6775,-0.6775,-0.6714,-0.6594,-0.6405,-0.6283,-0.6283,-0.6039,-0.5916,-0.5916,-0.5916,-0.5916,-0.5916,-0.5916,-0.5916,-0.5916,-0.5916,-0.5916,-0.5916,-0.5916,-0.5916,-0.5916,-0.5916,-0.5916,-0.5916,-0.5916,-0.5916,-0.5916,-0.5916,-0.5916,-0.5855,-0.5669,-0.5607,-0.5297,-0.3876,-0.3322,-0.2706,-0.1169,-0.0062,0.0801,0.1416,0.2466,0.3271,0.3271,0.3271,0.3332,0.358,0.3642,0.3703,0.3889,0.3889,0.3889,0.3889,0.3889,0.3889,0.3889,0.3889,0.3889,0.3889,0.3889,0.3889,0.3889,0.3889,0.3889,0.3889,0.3889,0.3889,0.3889,0.3889,0.3889,0.3889,0.3889,0.3889,0.3889,0.3889,0.3889,-1.3369,-1.2845,0.0,-1.1685,0.0,0.0,-0.9609,-0.902,-0.8597,-0.8446,-0.8096,-0.7793,-0.7858,-0.7872,-0.7974,-0.8097,-0.7988,-0.7901,-0.8063,-0.7994,-0.7956,-0.8154,-0.822,-0.8241,-0.8259,-0.8312,-0.8239,-0.813,-0.8051,-0.7865,-0.7633,-0.7447,-0.7327,-0.7327,-0.7327,-0.7266,-0.7082,-0.7082,-0.7021,-0.69,-0.6714,-0.6589,-0.6589,-0.6407,-0.6348,-0.6287,-0.6162,-0.6099,-0.6099,-0.5978,-0.5916,-0.5916,-0.5916,-0.5916,-0.5916,-0.5916,-0.5916,-0.5916,-0.5916,-0.5916,-0.5916,-0.5916,-0.5916,-0.5916,-0.5916,-0.5916,-0.5916,-0.5916,-0.5916,-0.573,-0.4926,-0.474,-0.437,-0.283,-0.1908,-0.1108,-0.0431,0.0801,0.2035,0.3023,0.3208,0.3332,0.3642,0.3642,0.3703,0.3889,0.3889,0.3889,0.3889,0.3889,0.3889,0.3889,0.3889,0.3889,0.3889,0.3889,0.3889,0.3889,0.3889,0.3889,0.3889,0.3889,0.3889,0.3889,0.3889,0.3889,0.3889,0.3889,0.3889,0.3889,0.3889,0.3889,-1.3993,-1.3727,0.0,-1.2203,-1.1742,0.0,-1.0769,-0.9748,-0.9071,-0.9456,-0.885,-0.8236,-0.8251,-0.8251,-0.823,-0.822,-0.8265,-0.8311,-0.8383,-0.8505,-0.8573,-0.8587,-0.8587,-0.8549,-0.8446,-0.8424,-0.8323,-0.8155,-0.8111,-0.8048,-0.7877,-0.7872,-0.7872,-0.7872,-0.7872,-0.775,-0.7447,-0.7447,-0.7327,-0.7023,-0.6962,-0.6962,-0.6962,-0.69,-0.6839,-0.6839,-0.6467,-0.6342,-0.6344,-0.6039,-0.5916,-0.5916,-0.5916,-0.5916,-0.5916,-0.5916,-0.5916,-0.5916,-0.5916,-0.5916,-0.5916,-0.5916,-0.5916,-0.5916,-0.5916,-0.5916,-0.5916,-0.5916,-0.5916,-0.5916,-0.5916,-0.5916,-0.5607,-0.443,-0.3999,-0.3568,-0.2461,-0.117,0.0431,0.2528,0.3146,0.3394,0.3517,0.3517,0.3455,0.3393,0.3331,0.3331,0.3331,0.3331,0.3394,0.3579,0.364,0.3702,0.3765,0.3889,0.3889,0.3828,0.3889,0.3889,0.3889,0.3889,0.3889,0.3889,0.3889,0.3889,0.3889,0.3889,0.3889,0.3889,0.3889,0.3889,-1.5345,-1.5032,-1.4711,-1.3439,-1.2982,0.0,-1.1494,-1.1139,-1.0858,-1.0151,-1.0144,-1.028,-1.0403,-1.0426,-1.0091,-0.9196,-0.9219,-0.9078,-0.8499,-0.8437,-0.8484,-0.8576,-0.8587,-0.8579,-0.8557,-0.8473,-0.8359,-0.8209,-0.8019,-0.7958,-0.7872,-0.7872,-0.7872,-0.7872,-0.7872,-0.7872,-0.7811,-0.7811,-0.775,-0.7689,-0.7447,-0.7327,-0.7263,-0.6773,-0.6528,-0.6464,-0.6162,-0.5978,-0.5978,-0.5916,-0.5916,-0.5916,-0.5916,-0.5916,-0.5916,-0.5916,-0.5916,-0.5916,-0.5916,-0.5916,-0.5916,-0.5916,-0.5916,-0.5916,-0.5916,-0.5916,-0.5916,-0.5916,-0.5916,-0.5916,-0.5916,-0.5916,-0.5855,-0.5546,-0.4679,-0.3813,-0.3568,-0.2523,-0.1416,-0.0677,0.0986,0.2037,0.1295,0.1171,0.0863,0.0062,-0.0062,-0.0062,-0.0062,-0.0062,0.0369,0.1478,0.1785,0.2279,0.3085,0.3642,0.3826,0.358,0.3765,0.3889,0.3889,0.3889,0.3889,0.3889,0.3889,0.3889,0.3889,0.3889,0.3889,0.3889,0.3889,0.3889,-1.6673,-1.6351,-1.6021,-1.4758,-1.4317,0.0,0.0,-1.2208,-1.1747,-1.1278,-1.0941,-1.0723,-1.0639,-1.0655,-1.0514,-1.0087,-0.9617,-0.9456,-0.9747,-0.8962,-0.844,-0.8494,-0.8554,-0.8587,-0.8587,-0.8535,-0.8429,-0.8186,-0.8011,-0.7872,-0.7872,-0.7818,-0.7812,-0.7869,-0.7815,-0.7812,-0.7872,-0.7872,-0.7842,-0.7788,-0.7723,-0.7599,-0.7548,-0.7296,-0.7138,-0.7136,-0.6773,-0.653,-0.641,-0.6223,-0.6039,-0.5916,-0.5916,-0.5916,-0.5916,-0.5916,-0.5916,-0.5916,-0.5916,-0.5916,-0.5916,-0.5916,-0.5916,-0.5916,-0.5916,-0.5916,-0.5916,-0.5916,-0.5916,-0.5916,-0.5916,-0.5916,-0.5916,-0.5916,-0.536,-0.4925,-0.4925,-0.3877,-0.2892,-0.2707,-0.1231,-0.0062,-0.0246,-0.0246,-0.0431,-0.0923,-0.0984,-0.0984,-0.0984,-0.0984,-0.0738,-0.0062,0.0123,0.0431,0.0985,0.1293,0.1417,0.1293,0.1355,0.1787,0.2403,0.2465,0.2774,0.3455,0.3642,0.3703,0.3703,0.3826,0.3889,0.3889,0.3889,0.3889,-1.787,-1.7576,-1.7289,-1.6062,-1.5658,-1.5318,0.0,0.0,0.0,-1.2786,-1.2067,-1.1324,-1.1108,-1.1004,-1.1013,-1.1027,-1.0311,-1.0022,-1.0992,-0.9844,-0.8931,-0.9048,-0.8708,-0.8659,-0.8878,-0.8662,-0.844,-0.8186,-0.8011,-0.7872,-0.7872,-0.7763,-0.7744,-0.7837,-0.7728,-0.7709,-0.7801,-0.7804,-0.7758,-0.7668,-0.7782,-0.779,-0.7706,-0.776,-0.7811,-0.7811,-0.7447,-0.7143,-0.69,-0.6589,-0.6344,-0.6101,-0.5978,-0.5916,-0.5916,-0.5916,-0.5916,-0.5916,-0.5916,-0.5916,-0.5916,-0.5916,-0.5916,-0.5916,-0.5916,-0.5916,-0.5916,-0.5916,-0.5916,-0.5916,-0.5916,-0.5916,-0.5916,-0.5916,-0.5916,-0.5916,-0.5916,-0.5049,-0.4307,-0.4307,-0.3446,-0.2523,-0.1723,-0.1538,-0.1661,-0.1907,-0.1969,-0.1969,-0.1969,-0.1969,-0.1846,-0.16,-0.1477,-0.1415,-0.123,-0.1046,-0.1046,-0.1107,-0.1046,-0.0492,0.0554,0.0615,0.1108,0.2219,0.2466,0.2651,0.2651,0.2836,0.3269,0.3889,0.3889,0.3889,-1.9022,-1.865,-1.8373,-1.7336,-1.708,-1.6908,-1.6423,0.0,-1.5261,-1.4782,0.0,-1.3786,-1.3786,0.0,0.0,-1.2418,-1.2036,-1.1632,-1.092,-1.0876,-1.0985,-1.1282,-0.9523,-0.8761,-0.9967,-0.8975,-0.8263,-0.8172,-0.8011,-0.7872,-0.7872,-0.7763,-0.7706,-0.772,-0.7603,-0.7546,-0.7559,-0.7559,-0.7551,-0.754,-0.7663,-0.7714,-0.7706,-0.7517,-0.7447,-0.7447,-0.7082,-0.6962,-0.69,-0.6839,-0.6839,-0.6716,-0.6103,-0.5916,-0.5916,-0.5916,-0.5916,-0.5916,-0.5916,-0.5916,-0.5916,-0.5916,-0.5916,-0.5916,-0.5916,-0.5916,-0.5916,-0.5916,-0.5916,-0.5916,-0.5916,-0.5916,-0.5916,-0.5916,-0.5916,-0.5916,-0.5916,-0.5794,-0.5669,-0.5669,-0.5546,-0.5051,-0.3815,-0.3568,-0.3999,-0.5174,-0.536,-0.536,-0.536,-0.536,-0.4865,-0.369,-0.3321,-0.2768,-0.1969,-0.1354,-0.1107,-0.1416,-0.1169,-0.0923,-0.08,-0.08,-0.0677,-0.0554,-0.0492,-0.0492,-0.0492,-0.0431,0.1047,0.3889,0.3889,0.3889,-1.9816,-1.9683,-1.9446,-1.8419,-1.818,-1.7956,-1.7167,-1.6835,-1.6558,-1.6183,0.0,0.0,0.0,0.0,0.0,0.0,-1.4395,-1.3825,-1.4196,-1.2598,-1.1403,-1.1419,-1.0493,-0.9804,-0.9824,-1.0036,-0.9604,-0.8251,-0.8576,-0.8579,-0.7928,-0.7695,-0.7627,-0.7698,-0.7513,-0.7448,-0.7519,-0.7519,-0.7483,-0.7415,-0.7538,-0.7557,-0.7494,-0.7436,-0.743,-0.743,-0.7311,-0.717,-0.7047,-0.7047,-0.7026,-0.69,-0.6594,-0.6346,-0.616,-0.616,-0.6039,-0.5916,-0.5916,-0.5916,-0.5916,-0.5916,-0.5916,-0.5916,-0.5916,-0.5916,-0.5916,-0.5916,-0.5916,-0.5916,-0.5916,-0.5916,-0.5916,-0.5916,-0.5916,-0.5916,-0.5916,-0.5916,-0.5916,-0.5916,-0.5916,-0.573,-0.5174,-0.5049,-0.5235,-0.5794,-0.5916,-0.5916,-0.5916,-0.5916,-0.5669,-0.5111,-0.4926,-0.4679,-0.431,-0.4002,-0.3879,-0.4063,-0.3199,-0.2706,-0.2706,-0.1969,-0.16,-0.16,-0.1416,-0.1292,-0.1292,-0.1107,-0.0308,0.1047,0.1847,0.265,-2.0454,-2.0428,-2.0238,-1.9401,-1.9217,-1.9026,-1.8272,-1.7902,-1.7692,-1.7586,-1.7366,0.0,0.0,0.0,-1.7414,-1.7633,0.0,-1.6039,-1.7042,-1.4997,-1.3135,-1.2343,-1.1825,-1.1169,-1.0095,-1.0891,-1.0838,-0.9165,-0.9674,-0.9712,-0.8952,-0.8645,-0.8546,-0.8645,-0.8383,-0.8288,-0.8389,-0.8389,-0.8337,-0.8239,-0.8323,-0.8335,-0.8243,-0.8378,-0.8439,-0.8439,-0.8439,-0.8225,-0.7809,-0.7809,-0.7582,-0.7143,-0.7143,-0.6957,-0.6648,-0.6464,-0.6221,-0.6039,-0.5916,-0.5916,-0.5916,-0.5916,-0.5916,-0.5916,-0.5916,-0.5916,-0.5916,-0.5916,-0.5916,-0.5916,-0.5916,-0.5916,-0.5916,-0.5916,-0.5916,-0.5916,-0.5916,-0.5916,-0.5916,-0.5916,-0.5916,-0.5916,-0.5916,-0.5916,-0.5916,-0.5916,-0.5916,-0.5916,-0.5916,-0.5916,-0.5916,-0.5916,-0.5916,-0.5916,-0.5916,-0.5916,-0.5916,-0.5916,-0.4988,-0.4432,-0.4432,-0.357,-0.3077,-0.3077,-0.2831,-0.2707,-0.2707,-0.2461,-0.2153,-0.1784,-0.0246,0.0985,-2.0849,-2.0699,-2.0609,-2.0337,-2.0246,-2.0246,-2.0201,-1.9446,-1.8845,-1.9241,-1.8544,-1.7963,-1.8258,-1.8134,-1.8052,-1.8311,-1.8115,0.0,0.0,-1.8262,-1.7344,-1.5137,-1.3804,-1.2529,-1.1299,-1.1181,-1.1316,-1.1442,-1.1403,-1.143,-1.1543,-1.1278,-1.1089,-1.1097,-1.0755,-1.0574,-1.0578,-1.0578,-1.0574,-1.057,-1.0639,-1.0667,-1.0667,-1.0833,-1.0908,-1.0908,-1.0908,-1.0313,-0.941,-0.941,-0.884,-0.7872,-0.7872,-0.7689,-0.7263,-0.6648,-0.6403,-0.6342,-0.6039,-0.5916,-0.5916,-0.5916,-0.5916,-0.5916,-0.5916,-0.5916,-0.5916,-0.5916,-0.5916,-0.5916,-0.5916,-0.5916,-0.5916,-0.5916,-0.5916,-0.5916,-0.5916,-0.5916,-0.5916,-0.5916,-0.5916,-0.5916,-0.5916,-0.5916,-0.5916,-0.5916,-0.5916,-0.5916,-0.5916,-0.5916,-0.5916,-0.5916,-0.5916,-0.5916,-0.5916,-0.5916,-0.5916,-0.5916,-0.5855,-0.5855,-0.5855,-0.5794,-0.5794,-0.5794,-0.5794,-0.5732,-0.5732,-0.5732,-0.5049,-0.3752,-0.1846,-0.0923,-2.0942,-2.0916,-2.0826,-2.06,-2.0564,-2.0518,-2.0337,-2.0056,-1.9929,-2.0314,-2.0107,-1.997,-2.0304,-2.0525,-2.0687,-2.0751,-2.0299,-1.9962,0.0,-1.9023,-1.7908,-1.6977,-1.6193,-1.4977,-1.3115,-1.3527,-1.3226,-1.1608,-1.2201,-1.2325,-1.1557,-1.1334,-1.1094,-1.092,-1.0798,-1.0726,-1.0726,-1.0726,-1.0726,-1.0726,-1.0733,-1.0706,-1.0765,-1.0766,-1.0795,-1.0795,-1.0795,-1.0614,-1.0379,-1.0379,-1.031,-1.0196,-1.0196,-1.0257,-0.9983,-0.7867,-0.6896,-0.6714,-0.6594,-0.6594,-0.653,-0.6283,-0.6221,-0.616,-0.5978,-0.5916,-0.5916,-0.5916,-0.5916,-0.5916,-0.5916,-0.5916,-0.5916,-0.5916,-0.5916,-0.5916,-0.5916,-0.5916,-0.5916,-0.5916,-0.5916,-0.5916,-0.5916,-0.5916,-0.5916,-0.5916,-0.5916,-0.5916,-0.5916,-0.5916,-0.5916,-0.5916,-0.5916,-0.5916,-0.5916,-0.5916,-0.5916,-0.5916,-0.5916,-0.5916,-0.5916,-0.5916,-0.5916,-0.5916,-0.5916,-0.5916,-0.5916,-0.5916,-0.5669,-0.5235,-0.4556,-0.3324,-2.1141,-2.1141,-2.1096,-2.0871,-2.0826,-2.0771,-2.0646,-2.0635,-2.0781,-2.1316,-2.1371,-2.1435,-2.1893,-2.212,-2.2192,-2.2192,-2.182,-2.1464,0.0,-2.0405,-1.9585,-1.9127,-1.7946,-1.6474,-1.4763,-1.5092,-1.4658,-1.278,-1.3384,-1.3514,-1.2718,-1.2538,-1.2375,-1.2125,-1.1982,-1.1932,-1.1932,-1.1932,-1.1932,-1.1932,-1.1932,-1.1932,-1.1932,-1.1932,-1.1932,-1.1932,-1.1932,-1.1771,-1.1444,-1.1444,-1.1437,-1.1417,-1.1417,-1.1522,-1.143,-0.8958,-0.7566,-0.69,-0.69,-0.69,-0.6839,-0.6653,-0.6589,-0.6528,-0.6346,-0.6162,-0.6099,-0.6099,-0.5978,-0.5916,-0.5916,-0.5916,-0.5916,-0.5916,-0.5916,-0.5916,-0.5916,-0.5916,-0.5916,-0.5916,-0.5916,-0.5916,-0.5916,-0.5916,-0.5916,-0.5916,-0.5916,-0.5916,-0.5916,-0.5916,-0.5916,-0.5916,-0.5916,-0.5916,-0.5916,-0.5916,-0.5916,-0.5916,-0.5916,-0.5916,-0.5916,-0.5916,-0.5916,-0.5916,-0.5916,-0.5916,-0.5916,-0.5916,-0.5916,-0.5916,-0.5884,-0.4948]},{"header":{"parameterUnit":"m.s-1","parameterCategory":1,"la1":30.6,"la2":29.2853,"lo1":-89.7004,"lo2":-87.6739,"dy":0.0162,"dx":0.0183,"nx":112,"ny":82,"refTime":"2026-05-06T12:00:00:Z","depth":0,"parameterNumber":3,"parameterNumberName":"V-component_of_WINDS"},"data":[0.0,0.0,0.0,0.0,0.0,0.0,0.0,0.0,0.0,0.0,0.0,0.0,0.0,0.0,0.0,0.0,0.0,0.0,0.0,0.0,0.0,0.0,0.0,0.0,0.0,0.0,0.0,0.0,0.0,0.0,0.0,0.0,0.0,0.0,0.0,0.0,0.0,0.0,0.0,0.0,0.0,0.0,0.0,0.0,0.0,0.0,0.0,0.0,0.0,0.0,0.0,0.0,0.0,0.0,0.0,0.0,0.0,0.0,0.0,0.0,0.0,0.0,0.0,0.0,0.0,0.0,0.0,0.0,0.0,0.0,0.0,0.0,0.0,0.0,0.0,0.0,0.0,0.0,0.0,0.0,0.0,0.0,0.0,0.0,0.0,0.0,0.0,0.0,0.0,0.0,2.4536,2.3784,2.324,2.3163,2.3849,2.2541,2.1618,2.1402,0.0,0.0,0.0,0.0,0.0,0.0,0.0,0.0,0.0,0.0,0.0,0.0,0.0,0.0,0.0,0.0,0.0,0.0,0.0,0.0,0.0,0.0,0.0,0.0,0.0,0.0,0.0,0.0,0.0,0.0,0.0,0.0,0.0,0.0,0.0,0.0,0.0,0.0,0.0,0.0,0.0,0.0,0.0,0.0,0.0,0.0,0.0,0.0,0.0,0.0,0.0,0.0,0.0,0.0,0.0,0.0,0.0,0.0,0.0,0.0,0.0,0.0,0.0,0.0,0.0,0.0,0.0,0.0,0.0,0.0,0.0,0.0,0.0,0.0,0.0,0.0,0.0,0.0,0.0,0.0,0.0,0.0,0.0,0.0,0.0,0.0,0.0,0.0,0.0,0.0,0.0,0.0,0.0,0.0,0.0,0.0,0.0,0.0,0.0,0.0,0.0,0.0,0.0,0.0,2.3936,2.3808,2.4346,2.4485,2.395,2.3662,2.2895,2.1483,0.0,0.0,0.0,0.0,0.0,0.0,0.0,0.0,0.0,0.0,0.0,0.0,0.0,0.0,0.0,0.0,0.0,0.0,0.0,0.0,0.0,0.0,0.0,0.0,0.0,0.0,0.0,0.0,0.0,0.0,0.0,0.0,0.0,0.0,0.0,0.0,0.0,0.0,0.0,0.0,0.0,0.0,0.0,0.0,0.0,0.0,0.0,0.0,0.0,0.0,0.0,0.0,0.0,0.0,0.0,0.0,0.0,0.0,0.0,0.0,0.0,0.0,0.0,0.0,0.0,0.0,0.0,0.0,0.0,0.0,0.0,0.0,0.0,0.0,0.0,0.0,0.0,0.0,0.0,0.0,0.0,0.0,0.0,0.0,0.0,0.0,0.0,0.0,0.0,0.0,0.0,0.0,0.0,0.0,0.0,0.0,0.0,0.0,0.0,0.0,0.0,0.0,0.0,2.4714,2.4499,2.4492,2.4854,2.4967,2.4627,2.4164,2.3367,2.2128,2.2052,0.0,0.0,0.0,0.0,0.0,0.0,0.0,0.0,0.0,0.0,0.0,0.0,0.0,0.0,0.0,0.0,0.0,0.0,0.0,0.0,0.0,0.0,0.0,0.0,0.0,0.0,0.0,0.0,0.0,0.0,0.0,0.0,0.0,0.0,0.0,0.0,0.0,0.0,0.0,0.0,0.0,0.0,0.0,0.0,0.0,0.0,0.0,0.0,0.0,0.0,0.0,0.0,0.0,0.0,0.0,0.0,0.0,0.0,0.0,0.0,0.0,0.0,0.0,0.0,0.0,0.0,0.0,0.0,0.0,0.0,0.0,0.0,0.0,0.0,0.0,0.0,0.0,0.0,0.0,0.0,0.0,0.0,0.0,0.0,0.0,0.0,0.0,0.0,0.0,0.0,0.0,0.0,0.0,0.0,0.0,0.0,0.0,0.0,0.0,0.0,0.0,0.0,2.5076,2.5107,2.5119,2.512,2.5132,2.5205,2.4589,2.3744,2.2677,2.3009,0.0,0.0,0.0,0.0,0.0,0.0,0.0,0.0,0.0,0.0,0.0,0.0,0.0,0.0,0.0,0.0,0.0,0.0,0.0,0.0,0.0,0.0,0.0,0.0,0.0,0.0,0.0,0.0,0.0,0.0,0.0,0.0,0.0,0.0,0.0,0.0,0.0,0.0,0.0,0.0,0.0,0.0,0.0,0.0,0.0,0.0,0.0,0.0,0.0,0.0,0.0,0.0,0.0,0.0,0.0,0.0,0.0,0.0,0.0,0.0,0.0,0.0,0.0,0.0,0.0,0.0,0.0,0.0,0.0,0.0,0.0,0.0,0.0,0.0,0.0,0.0,0.0,0.0,0.0,0.0,0.0,0.0,0.0,0.0,0.0,0.0,0.0,0.0,0.0,0.0,0.0,0.0,0.0,0.0,0.0,0.0,0.0,0.0,0.0,0.0,0.0,0.0,2.5101,2.5119,2.518,2.5185,2.5185,2.5191,2.5134,2.4383,2.2715,2.4172,0.0,0.0,0.0,0.0,0.0,0.0,0.0,0.0,0.0,0.0,0.0,0.0,0.0,0.0,0.0,0.0,0.0,0.0,0.0,0.0,0.0,0.0,0.0,0.0,0.0,0.0,0.0,0.0,0.0,0.0,0.0,0.0,0.0,0.0,0.0,0.0,0.0,0.0,0.0,0.0,0.0,0.0,0.0,0.0,0.0,0.0,0.0,0.0,0.0,0.0,0.0,0.0,0.0,0.0,0.0,0.0,0.0,0.0,0.0,0.0,0.0,0.0,0.0,0.0,0.0,0.0,0.0,0.0,0.0,0.0,0.0,0.0,0.0,0.0,0.0,0.0,0.0,0.0,0.0,0.0,0.0,0.0,0.0,0.0,0.0,0.0,0.0,0.0,0.0,0.0,0.0,0.0,0.0,0.0,0.0,0.0,0.0,0.0,0.0,0.0,0.0,0.0,2.5138,2.5174,2.521,2.5191,2.5191,2.5191,2.5191,2.4465,2.2715,0.0,0.0,0.0,0.0,0.0,0.0,0.0,0.0,0.0,0.0,0.0,0.0,0.0,0.0,0.0,0.0,0.0,0.0,0.0,0.0,0.0,0.0,0.0,0.0,0.0,0.0,0.0,0.0,0.0,0.0,0.0,0.0,0.0,0.0,0.0,0.0,0.0,0.0,0.0,0.0,0.0,0.0,0.0,0.0,0.0,0.0,0.0,0.0,0.0,0.0,0.0,0.0,0.0,0.0,0.0,0.0,0.0,0.0,0.0,0.0,0.0,0.0,0.0,0.0,0.0,0.0,0.0,0.0,0.0,0.0,0.0,0.0,0.0,0.0,0.0,0.0,0.0,0.0,0.0,0.0,0.0,0.0,0.0,0.0,0.0,0.0,0.0,0.0,0.0,0.0,0.0,0.0,0.0,0.0,0.0,0.0,0.0,0.0,0.0,0.0,0.0,0.0,2.5476,2.5557,2.5587,2.5587,2.5587,2.5478,2.5229,2.4956,2.4154,2.2696,0.0,0.0,0.0,0.0,0.0,0.0,0.0,0.0,0.0,0.0,0.0,0.0,0.0,0.0,0.0,0.0,0.0,0.0,0.0,0.0,0.0,0.0,0.0,0.0,0.0,0.0,0.0,0.0,0.0,0.0,0.0,0.0,0.0,0.0,0.0,0.0,0.0,0.0,0.0,0.0,0.0,0.0,0.0,0.0,0.0,0.0,0.0,0.0,0.0,0.0,0.0,0.0,0.0,0.0,0.0,0.0,0.0,0.0,0.0,0.0,0.0,0.0,0.0,0.0,0.0,0.0,0.0,0.0,0.0,0.0,0.0,0.0,0.0,0.0,0.0,0.0,0.0,0.0,0.0,0.0,0.0,0.0,0.0,0.0,0.0,0.0,0.0,0.0,0.0,0.0,0.0,0.0,0.0,0.0,0.0,0.0,0.0,0.0,0.0,0.0,0.0,0.0,2.6282,2.6402,2.6402,2.6402,2.6402,2.6084,2.5287,2.4415,2.3537,0.0,0.0,0.0,0.0,0.0,0.0,0.0,0.0,0.0,0.0,0.0,0.0,0.0,0.0,0.0,0.0,0.0,0.0,0.0,0.0,0.0,0.0,0.0,0.0,0.0,0.0,0.0,0.0,0.0,0.0,0.0,0.0,0.0,0.0,0.0,0.0,0.0,0.0,0.0,0.0,0.0,0.0,0.0,0.0,0.0,0.0,0.0,0.0,0.0,0.0,0.0,0.0,0.0,0.0,0.0,0.0,0.0,0.0,0.0,0.0,0.0,0.0,0.0,0.0,0.0,0.0,0.0,0.0,0.0,0.0,0.0,0.0,0.0,0.0,0.0,0.0,0.0,0.0,0.0,0.0,0.0,0.0,0.0,0.0,0.0,0.0,0.0,0.0,0.0,0.0,0.0,0.0,0.0,0.0,0.0,0.0,0.0,0.0,0.0,0.0,0.0,0.0,0.0,2.6371,2.6944,2.7319,2.7319,2.6765,2.6288,2.6064,2.4721,2.3537,2.2658,0.0,0.0,0.0,0.0,0.0,0.0,0.0,0.0,0.0,0.0,0.0,0.0,0.0,0.0,0.0,0.0,0.0,0.0,0.0,0.0,0.0,0.0,0.0,0.0,0.0,0.0,0.0,0.0,0.0,0.0,0.0,0.0,0.0,0.0,0.0,0.0,0.0,0.0,0.0,0.0,0.0,0.0,0.0,0.0,0.0,0.0,0.0,0.0,0.0,0.0,0.0,0.0,0.0,0.0,0.0,0.0,0.0,0.0,0.0,0.0,0.0,0.0,0.0,0.0,0.0,0.0,0.0,0.0,0.0,0.0,0.0,0.0,0.0,0.0,0.0,0.0,0.0,0.0,0.0,0.0,0.0,0.0,0.0,0.0,0.0,0.0,0.0,0.0,0.0,0.0,0.0,0.0,0.0,0.0,0.0,0.0,0.0,0.0,0.0,0.0,0.0,0.0,2.6867,2.7669,2.8172,2.8172,2.7714,2.7128,2.646,2.518,2.39,2.2677,0.0,0.0,0.0,0.0,0.0,0.0,0.0,0.0,0.0,0.0,0.0,0.0,0.0,0.0,0.0,0.0,0.0,0.0,0.0,0.0,0.0,0.0,0.0,0.0,0.0,0.0,0.0,0.0,0.0,0.0,0.0,0.0,0.0,0.0,0.0,0.0,0.0,0.0,0.0,0.0,0.0,0.0,0.0,0.0,0.0,0.0,0.0,0.0,0.0,0.0,0.0,0.0,0.0,0.0,0.0,0.0,0.0,0.0,0.0,0.0,0.0,0.0,0.0,0.0,0.0,0.0,0.0,0.0,0.0,0.0,0.0,0.0,0.0,0.0,0.0,0.0,0.0,0.0,0.0,0.0,0.0,0.0,0.0,0.0,0.0,0.0,0.0,0.0,0.0,0.0,0.0,0.0,0.0,0.0,0.0,0.0,0.0,0.0,0.0,0.0,0.0,0.0,2.7714,2.8516,2.9025,2.9025,2.8949,2.823,2.6536,2.5663,2.4427,2.2616,0.0,0.0,0.0,0.0,0.0,0.0,0.0,0.0,0.0,0.0,0.0,0.0,0.0,0.0,0.0,0.0,0.0,0.0,0.0,0.0,0.0,0.0,0.0,0.0,0.0,0.0,0.0,0.0,0.0,0.0,0.0,0.0,0.0,0.0,0.0,0.0,0.0,0.0,0.0,0.0,0.0,0.0,0.0,0.0,0.0,0.0,0.0,0.0,0.0,0.0,0.0,0.0,0.0,0.0,0.0,0.0,0.0,0.0,0.0,0.0,3.2111,3.2209,0.0,0.0,0.0,0.0,0.0,0.0,0.0,0.0,0.0,0.0,0.0,0.0,0.0,0.0,0.0,0.0,0.0,0.0,0.0,0.0,0.0,0.0,0.0,0.0,0.0,0.0,0.0,0.0,0.0,0.0,0.0,0.0,0.0,0.0,0.0,0.0,0.0,0.0,0.0,0.0,2.8605,2.9395,2.9917,2.9917,2.9318,2.823,2.6536,2.5663,2.4211,2.1869,2.2462,0.0,0.0,0.0,0.0,0.0,0.0,0.0,0.0,0.0,0.0,0.0,0.0,0.0,0.0,0.0,0.0,0.0,0.0,0.0,0.0,0.0,0.0,0.0,0.0,0.0,0.0,0.0,0.0,0.0,0.0,0.0,0.0,0.0,0.0,0.0,0.0,0.0,0.0,0.0,0.0,0.0,0.0,0.0,0.0,0.0,0.0,0.0,0.0,0.0,0.0,0.0,0.0,0.0,0.0,0.0,0.0,0.0,0.0,0.0,3.404,3.3339,0.0,0.0,0.0,0.0,0.0,0.0,0.0,0.0,0.0,0.0,0.0,0.0,0.0,0.0,0.0,0.0,0.0,0.0,0.0,0.0,0.0,0.0,0.0,0.0,0.0,0.0,0.0,0.0,0.0,0.0,0.0,0.0,0.0,0.0,0.0,0.0,0.0,0.0,0.0,0.0,2.889,2.9655,3.0211,3.0211,2.9784,2.8848,2.7166,2.6667,2.5386,2.287,2.2851,0.0,0.0,0.0,0.0,0.0,0.0,0.0,0.0,0.0,0.0,0.0,0.0,0.0,0.0,0.0,0.0,0.0,0.0,0.0,0.0,0.0,0.0,0.0,0.0,0.0,0.0,0.0,0.0,0.0,0.0,0.0,0.0,0.0,0.0,0.0,0.0,0.0,0.0,0.0,0.0,0.0,0.0,0.0,0.0,0.0,0.0,0.0,0.0,0.0,0.0,0.0,0.0,0.0,3.8227,3.8578,3.8694,3.7818,3.7896,3.8617,3.659,3.5187,3.4391,3.5772,0.0,0.0,0.0,0.0,0.0,0.0,0.0,0.0,0.0,0.0,0.0,0.0,0.0,0.0,0.0,0.0,0.0,0.0,0.0,0.0,0.0,0.0,3.1808,3.088,3.1162,3.1073,2.9001,0.0,0.0,0.0,0.0,0.0,0.0,0.0,0.0,0.0,0.0,0.0,2.9131,2.9751,3.0211,3.0211,3.0211,2.9516,2.7835,2.7754,2.6712,2.4181,2.3527,2.3156,0.0,0.0,0.0,0.0,0.0,0.0,0.0,0.0,0.0,0.0,0.0,0.0,0.0,0.0,0.0,0.0,0.0,0.0,0.0,0.0,0.0,0.0,0.0,0.0,0.0,0.0,0.0,0.0,0.0,0.0,0.0,0.0,3.4282,3.5262,0.0,0.0,0.0,0.0,0.0,0.0,0.0,0.0,0.0,0.0,0.0,0.0,0.0,3.7873,3.9265,3.8658,3.8714,3.9454,3.8811,3.8909,3.961,3.8733,3.8792,3.9649,4.0058,0.0,3.7837,3.8071,0.0,0.0,0.0,0.0,0.0,0.0,0.0,0.0,0.0,0.0,0.0,0.0,0.0,0.0,0.0,0.0,0.0,0.0,0.0,0.0,0.0,0.0,3.3558,3.275,3.2546,3.2443,3.2107,3.0929,3.0106,3.0687,3.0331,3.0099,0.0,0.0,0.0,0.0,0.0,0.0,3.0025,3.0128,3.0211,3.0211,3.0211,2.9516,2.7835,2.7754,2.6737,2.4238,2.4116,2.3813,2.312,2.2872,0.0,0.0,0.0,0.0,0.0,0.0,0.0,0.0,0.0,0.0,0.0,0.0,0.0,0.0,0.0,0.0,0.0,0.0,0.0,0.0,0.0,0.0,0.0,0.0,0.0,0.0,0.0,0.0,0.0,3.4995,3.6333,3.7242,3.7014,3.6607,0.0,0.0,0.0,0.0,0.0,0.0,0.0,0.0,0.0,4.0083,4.0096,4.0677,4.1926,4.1555,4.1555,4.1926,4.1555,4.1575,4.1926,4.1536,4.1575,4.1965,4.2335,4.2062,4.1283,4.0351,3.9162,3.7935,0.0,0.0,0.0,0.0,3.7038,3.7253,3.6512,3.6493,3.6707,3.622,0.0,0.0,0.0,0.0,0.0,0.0,0.0,3.5167,3.5134,3.4987,3.4845,3.4856,3.4488,3.4085,3.4056,3.3122,3.2233,3.2053,3.1748,3.147,3.1359,3.1104,0.0,0.0,0.0,3.071,3.0207,3.0591,3.0739,3.0249,3.0211,2.9722,2.8579,2.8546,2.7739,2.5744,2.5285,2.4938,2.4588,2.3614,2.3556,0.0,0.0,0.0,0.0,0.0,0.0,0.0,0.0,0.0,0.0,0.0,0.0,0.0,0.0,0.0,0.0,0.0,0.0,0.0,0.0,0.0,0.0,0.0,0.0,0.0,0.0,0.0,0.0,3.7461,3.8465,3.9394,3.9485,3.9139,0.0,0.0,0.0,0.0,0.0,0.0,4.1695,4.1733,4.2149,4.3005,4.2997,4.3387,4.4263,4.403,4.3932,4.3932,4.3718,4.3718,4.3932,4.3698,4.3718,4.3932,4.3932,4.3815,4.3504,4.2257,4.0835,3.9474,3.9474,3.9357,3.9162,3.9162,3.9298,3.9435,3.924,3.9298,3.9337,3.848,3.8052,3.7701,3.6824,0.0,0.0,0.0,0.0,3.643,3.6951,3.6536,3.6105,3.6606,3.6273,3.5766,3.5507,3.4999,3.4345,3.3435,3.2912,3.2492,3.21,3.192,0.0,3.0852,3.134,3.1546,3.0867,3.1195,3.1255,3.0605,3.0353,2.9998,2.9442,2.9318,2.8737,2.754,2.6763,2.6342,2.6342,2.5095,2.5017,2.6303,0.0,0.0,0.0,0.0,0.0,0.0,0.0,0.0,0.0,0.0,0.0,0.0,0.0,0.0,0.0,0.0,0.0,0.0,0.0,0.0,0.0,0.0,0.0,0.0,0.0,0.0,0.0,0.0,0.0,4.2106,4.2146,0.0,0.0,0.0,0.0,4.204,4.2202,4.2618,4.3437,4.3478,4.388,4.4741,4.4777,4.5186,4.6063,4.5244,4.4835,4.4816,4.3994,4.4033,4.4816,4.3971,4.4052,4.4835,4.4835,4.4364,4.3582,4.3504,4.2939,4.2101,4.2101,4.1633,4.0971,4.0971,4.1458,4.2003,4.1224,4.1477,4.1984,4.1166,4.0351,3.9513,3.8636,3.8363,0.0,0.0,3.8088,3.7962,3.7872,3.7717,3.7587,3.7636,3.7597,3.7368,3.6596,3.6351,3.6039,3.5238,3.3775,3.2913,3.3644,0.0,3.2588,3.2481,3.2562,3.2623,3.2577,3.1935,3.1484,3.1446,3.0759,3.0277,3.0244,2.9711,2.9363,2.9272,2.8512,2.8074,2.8074,2.7996,2.7976,2.8074,2.8028,0.0,0.0,0.0,0.0,0.0,0.0,0.0,0.0,0.0,0.0,0.0,0.0,0.0,0.0,0.0,0.0,0.0,0.0,0.0,0.0,0.0,0.0,0.0,0.0,0.0,0.0,0.0,0.0,4.3192,4.3668,0.0,4.2789,4.2733,4.3314,4.4702,4.4827,4.5462,4.6865,4.6957,4.709,4.7402,4.7411,4.756,4.7871,4.756,4.7404,4.7404,4.7092,4.7111,4.7404,4.7092,4.7111,4.7404,4.7404,4.7228,4.6956,4.6956,4.5432,4.3133,4.3133,4.2958,4.2705,4.2705,4.288,4.3094,4.2802,4.29,4.3094,4.2802,4.2491,4.2081,4.1205,4.0581,4.0023,3.9321,3.8704,3.8319,3.8642,3.8282,3.7961,3.8426,3.8113,3.7617,3.733,3.7255,3.7151,3.6865,3.5463,3.4233,3.4001,3.3731,3.3329,3.276,3.3158,3.3337,3.2776,3.2451,3.2069,3.156,3.0785,3.0337,3.0418,3.0276,2.9972,2.9485,2.972,2.9613,2.9067,2.9574,2.9866,2.9866,2.9863,2.9612,0.0,0.0,0.0,0.0,0.0,0.0,0.0,0.0,0.0,0.0,0.0,0.0,0.0,0.0,0.0,0.0,0.0,0.0,0.0,0.0,0.0,0.0,0.0,0.0,0.0,4.3592,4.4617,4.4961,4.5738,4.5872,4.5008,4.5228,4.5886,4.6999,4.708,4.7587,4.8737,4.8808,4.8922,4.9195,4.9204,4.9219,4.9246,4.9219,4.9063,4.8798,4.8791,4.8806,4.8806,4.8806,4.8806,4.8806,4.8806,4.8806,4.8806,4.8806,4.7443,4.5335,4.5023,4.4731,4.4481,4.4481,4.4481,4.4481,4.4481,4.4286,4.4033,4.4033,4.3835,4.3484,4.2919,4.2374,4.1795,4.1086,4.0427,3.9965,4.0022,3.9588,3.9169,3.9401,3.9011,3.8495,3.819,3.8132,3.8056,3.775,3.6578,3.5482,3.4934,3.4598,3.4216,3.3635,3.4044,3.422,3.3681,3.3355,3.3001,3.2506,3.1758,3.1313,3.1403,3.1211,3.1017,3.0821,3.1076,3.1115,3.0823,3.1096,3.1388,3.1678,3.1687,3.1399,3.0801,0.0,0.0,0.0,0.0,0.0,0.0,0.0,0.0,0.0,0.0,0.0,0.0,0.0,0.0,0.0,0.0,0.0,0.0,0.0,0.0,0.0,0.0,0.0,4.4979,4.5739,4.6612,4.7531,4.833,4.8477,4.7628,4.8301,4.8803,4.8842,4.8844,4.8854,4.8912,4.8918,4.9297,5.0096,5.0116,5.0143,5.0215,5.0143,4.9733,4.8968,4.8934,4.8923,4.8923,4.8884,4.8884,4.8884,4.8884,4.8884,4.8884,4.8884,4.8865,4.8748,4.7871,4.7014,4.6277,4.6277,4.6277,4.6277,4.6277,4.5732,4.503,4.4991,4.4403,4.3718,4.3659,4.364,4.3603,4.3433,4.3302,4.2974,4.1982,4.1634,4.1342,4.0549,4.0377,4.0129,3.9279,3.9088,3.882,3.7941,3.7139,3.6576,3.6538,3.5832,3.5267,3.5248,3.5248,0.0,3.5397,3.4648,3.4141,3.4297,3.3641,3.3204,3.3204,3.2547,3.2501,3.3358,3.2638,3.256,3.3397,3.2657,3.2618,3.3458,3.3455,3.3437,3.3399,0.0,0.0,0.0,0.0,0.0,0.0,0.0,0.0,0.0,0.0,0.0,0.0,0.0,0.0,0.0,0.0,0.0,0.0,0.0,0.0,0.0,4.5695,4.6856,4.6856,4.7574,4.817,4.8437,4.8664,4.8718,4.8477,4.8666,4.9067,4.9699,4.9747,5.0296,5.1567,5.1631,5.2024,5.2863,5.2851,5.2841,5.287,5.2847,5.2719,5.2497,5.1865,5.1554,5.1534,5.0891,5.0618,5.0618,5.0618,5.0618,5.0618,5.0618,5.0248,4.9586,4.8768,4.83,4.8086,4.8086,4.8086,4.8086,4.8086,4.793,4.7618,4.6995,4.6624,4.6196,4.4929,4.454,4.4359,4.3499,4.3234,4.3088,4.2619,4.247,4.2393,4.2163,4.2106,4.1877,4.0998,4.0807,4.0578,3.9737,3.8897,3.8113,3.7483,3.7177,3.6814,3.6233,3.6137,3.5954,3.5455,3.4648,3.4141,3.4297,3.3641,3.3204,3.3204,3.3092,3.3144,3.3378,3.3729,3.4021,3.4255,3.4645,3.4969,3.5207,3.4637,3.403,0.0,0.0,0.0,0.0,0.0,0.0,0.0,0.0,0.0,0.0,0.0,0.0,0.0,0.0,0.0,0.0,0.0,0.0,0.0,0.0,0.0,0.0,4.7969,4.8894,4.9638,4.9515,4.9471,4.9844,4.9883,5.0037,5.0401,5.0438,5.0803,5.1673,5.1734,5.2186,5.3181,5.3223,5.3434,5.3936,5.3927,5.3894,5.3903,5.3896,5.3892,5.3899,5.3393,5.3136,5.3124,5.2629,5.2391,5.2391,5.2391,5.2391,5.2353,5.2002,5.1554,5.0969,0.0,0.0,0.0,0.0,4.8806,4.8806,4.8806,4.8806,4.8729,4.8202,4.8047,4.7852,4.6842,4.6277,4.5823,4.5099,4.457,4.4119,4.3556,4.3379,4.3214,4.2889,4.2794,4.266,4.2144,4.203,4.1915,4.1437,4.0635,0.0,3.9374,3.84,3.754,3.7082,3.7005,3.6763,3.6068,3.5534,3.5162,3.4997,3.4586,3.4319,3.4319,3.4061,0.0,0.0,0.0,3.4759,3.5129,3.6337,0.0,0.0,0.0,0.0,0.0,3.6046,0.0,0.0,3.5057,3.494,0.0,0.0,0.0,0.0,0.0,0.0,0.0,0.0,0.0,0.0,0.0,0.0,0.0,0.0,0.0,0.0,5.0416,5.1082,5.2624,5.1511,5.0787,5.1472,5.1629,5.1999,5.2763,5.2858,5.3171,5.3949,5.3999,5.4033,5.4131,5.41,0.0,0.0,0.0,5.4203,5.4183,5.4184,5.4192,5.4183,5.4091,5.404,5.404,5.3939,5.3907,5.3907,5.3907,5.3907,5.3829,5.3073,5.2684,5.245,5.0794,4.9703,4.9079,4.9079,4.9079,4.9079,4.9079,0.0,0.0,4.8962,4.8943,4.8923,4.8826,4.8261,4.7584,4.7276,4.6557,4.5636,4.4675,4.4288,4.3968,4.3252,4.308,4.3042,4.2966,4.2947,4.2908,4.2813,4.2106,4.1504,4.1523,3.9564,3.795,3.7881,3.7861,3.7651,3.7054,3.6967,3.676,3.6248,3.6103,0.0,3.6181,3.5382,3.5226,3.6006,3.5324,3.5285,3.6162,3.7681,3.8146,3.7357,3.8101,3.8504,3.8502,3.86,3.8659,3.8619,3.702,3.6669,0.0,0.0,0.0,0.0,0.0,0.0,0.0,0.0,0.0,0.0,0.0,0.0,0.0,0.0,0.0,5.0926,5.2331,5.3366,5.3698,5.3463,5.3053,5.2507,5.3073,5.3561,5.3737,5.375,5.3821,5.3996,5.3994,5.4287,5.4928,5.5016,5.535,5.6067,5.6087,5.6043,5.5993,5.601,5.6004,5.5994,5.5271,0.0,5.4913,5.4212,5.3907,5.3907,5.3907,5.3907,5.3888,5.3712,5.3229,5.2508,5.1456,5.095,5.0813,5.0813,5.0813,5.0813,5.0813,5.0813,5.0696,4.9995,4.9761,4.9644,4.9001,4.867,0.0,4.7451,4.6984,4.6513,4.5522,4.5151,4.501,4.4838,4.4819,4.4609,4.3911,4.3758,4.3567,4.2928,4.2106,4.1532,4.1637,4.0621,3.9591,3.8996,3.8904,3.8695,3.8084,3.8015,3.8015,3.8004,3.737,3.7233,3.7935,3.7194,3.6766,3.6941,3.6785,3.7097,3.7954,3.8324,3.8425,3.8258,3.8414,3.8497,3.8505,3.9204,3.9555,3.9519,3.8494,3.8096,0.0,0.0,0.0,0.0,0.0,0.0,0.0,0.0,0.0,0.0,0.0,4.7252,4.8605,0.0,5.1824,5.3132,5.3717,5.4147,5.4596,5.4654,5.4322,5.3444,5.3737,5.4166,5.4615,5.465,5.4823,5.527,5.5289,5.5484,5.5875,5.594,5.6135,5.6538,5.6558,5.6531,5.6494,5.6494,5.6494,5.6494,5.6058,5.5856,5.5844,5.5408,5.5197,5.5197,5.5197,5.5197,5.5178,5.473,5.4043,5.3171,5.2294,5.169,5.13,5.13,5.13,5.13,5.13,5.13,5.1222,5.0794,5.0657,5.0579,5.017,4.9742,4.9286,4.8758,4.7872,4.6984,4.6485,4.592,4.549,4.549,4.549,4.5374,4.4932,4.4855,4.472,4.4325,4.3574,4.2876,4.2502,4.1705,4.0835,4.0079,3.9887,3.9623,3.902,3.895,3.8828,3.8533,3.811,3.8032,3.8461,3.811,3.7857,3.7857,3.8266,3.8694,3.9123,3.9571,3.9805,3.9805,3.9805,3.9805,3.9805,4.0234,4.0448,4.0448,3.9999,3.98,0.0,0.0,0.0,0.0,0.0,0.0,0.0,0.0,4.6853,4.7439,4.8623,4.9813,5.069,5.2136,5.3661,5.5066,5.4849,5.4752,5.5454,5.5552,5.5357,5.4791,5.4596,5.4771,5.5474,5.5552,5.5845,5.6547,5.6606,5.6606,5.6606,5.6606,5.6582,5.6511,5.6511,5.6525,5.6514,5.6514,5.652,5.6511,5.6517,5.6507,5.6501,5.6504,5.6507,5.6507,5.6507,5.6507,5.6429,5.5567,5.4784,5.4063,5.319,5.243,5.1768,5.1417,5.13,5.13,5.13,5.13,5.13,5.13,5.13,5.13,5.13,5.0813,5.0229,5.0053,4.8885,4.7634,4.7284,4.657,4.5904,4.5742,4.5703,4.5703,4.5703,4.5703,4.5703,4.5703,4.5052,4.4285,4.3608,4.275,4.1835,4.0885,4.0642,4.0411,3.996,3.9885,3.9657,3.9078,3.885,3.8753,3.8753,3.8753,3.8811,3.8987,3.9513,3.9883,4.0058,4.0737,4.1107,4.1107,4.1107,4.1107,4.1107,4.1107,4.1185,4.1322,4.1322,4.1244,4.353,4.3147,4.3439,4.4374,4.4816,4.5829,0.0,4.8996,4.9176,5.1499,5.2138,5.2526,5.3405,5.4361,5.5066,5.5261,5.5864,5.6333,5.645,5.645,5.6684,5.7309,5.6743,5.6352,5.645,5.645,5.6489,5.6586,5.6606,5.6606,5.6606,5.6606,5.6604,5.6584,5.6584,5.6582,5.6582,5.6582,5.6582,5.6584,5.6536,5.6501,5.6501,5.6504,5.6507,5.6507,5.6507,5.6507,5.6429,5.5567,5.5134,5.4959,5.4082,5.3693,5.3424,5.1865,5.13,5.13,5.13,5.13,5.13,5.13,5.13,5.13,5.13,5.1222,5.0989,5.0229,4.9761,4.9154,4.7595,4.7023,4.6665,4.5884,4.5703,4.5703,4.5703,4.5703,4.5703,4.5703,4.5052,4.4512,4.4522,4.3709,4.2568,4.1092,4.0859,4.0873,4.0932,4.0922,4.0906,4.0815,4.0117,3.9649,3.9649,3.9649,3.998,4.0757,4.0175,4.0156,4.0912,4.1049,4.1107,4.1107,4.1107,4.1107,4.1107,4.1107,4.1477,4.2179,4.2179,4.177,4.5689,4.6138,4.6628,4.702,4.79,4.8925,4.9879,5.0205,5.0765,5.2374,5.3093,5.3873,5.5259,5.6196,5.6743,5.6743,5.7484,5.7875,5.7367,5.7738,5.7992,5.7816,5.7953,5.805,5.805,5.805,5.805,5.805,5.805,5.805,5.805,5.805,5.805,5.805,5.805,5.7816,5.7309,5.7309,5.7055,5.6604,5.6539,5.6501,5.6501,5.6504,5.6507,5.6507,5.6507,5.6507,5.6468,5.6113,5.5957,5.586,5.5002,5.4667,5.4453,5.2703,5.206,5.1982,5.1476,5.13,5.13,5.13,5.13,5.13,5.13,5.13,5.1222,5.0852,5.0341,4.975,4.903,4.8064,4.7193,4.6824,4.6358,4.5988,4.5988,4.5988,4.5988,4.5988,4.5716,4.5342,4.4895,4.4465,4.3791,4.2634,4.1974,4.1643,4.1783,4.138,4.1107,4.1107,4.0776,4.0565,4.0565,4.0565,4.0718,4.1088,4.0757,4.0718,4.1088,4.1555,4.1809,4.1809,4.2296,4.2549,4.2549,4.2549,4.2997,4.3799,4.3289,4.3153,4.7058,4.7853,4.8391,4.8654,4.9882,5.0994,5.0856,5.1313,5.2078,5.3192,5.3912,5.4888,5.6606,5.7406,5.7875,5.8128,5.8695,5.889,5.8246,5.8499,5.8695,5.8538,5.8851,5.9297,5.9766,5.9375,5.9102,5.9102,5.9102,5.9102,5.9102,5.9102,5.9102,5.9102,5.9102,5.8792,5.8168,5.7914,5.7504,5.6938,5.664,5.6508,5.6501,5.6504,5.6507,5.6507,5.6507,5.6507,5.6507,5.6507,5.6507,5.6448,5.5801,5.5567,5.5372,5.3872,5.3015,5.2508,5.1885,5.1495,5.13,5.13,5.13,5.13,5.13,5.13,5.13,5.13,5.0852,5.0307,5.0053,4.9099,4.8066,4.7618,4.7014,4.6491,4.6258,4.6199,4.6199,4.6199,4.6199,4.6004,4.5361,4.5264,4.5046,4.4403,4.3498,4.282,4.2679,4.214,4.1789,4.1789,4.1789,4.1789,4.1789,4.1789,4.1789,4.1789,4.1789,4.1789,4.1789,4.2354,4.2666,4.2666,4.3289,4.3601,4.3601,4.3601,4.4052,4.4874,4.4247,4.4559,4.7369,4.7418,4.7656,4.8574,4.9462,5.0575,5.2236,5.2646,5.3153,5.4871,5.524,5.5767,5.7445,5.7777,5.807,5.8929,5.9083,5.9083,5.9063,5.8363,5.846,6.0119,5.9592,5.9766,6.1464,6.0098,5.9102,5.9102,5.9102,5.9102,5.9102,5.9102,5.9102,5.9102,5.9102,5.9083,5.9063,5.8226,5.7797,5.7758,5.6904,5.6497,5.6501,5.6504,5.6507,5.6507,5.6507,5.6507,5.6507,5.6507,5.6507,5.6507,5.6468,5.6468,5.6351,5.545,5.4043,5.2606,5.2567,5.2002,5.13,5.13,5.13,5.13,5.13,5.13,5.13,5.13,5.1281,5.1067,5.0229,4.9956,4.9508,4.7891,4.7482,4.7228,4.6375,4.6199,4.6199,4.6199,4.6199,4.6199,4.618,4.616,4.616,4.6141,4.5377,4.452,4.3679,4.3543,4.3523,4.3523,4.3523,4.3523,4.3523,4.3523,4.3523,4.3523,4.3523,4.3523,4.3523,4.3543,4.3562,4.3562,4.3582,4.3601,4.3601,4.3601,4.4052,4.4894,4.4874,4.579,4.8959,4.9161,4.9414,5.0303,5.1187,5.198,5.2567,5.3151,5.3893,5.5064,5.53,5.5806,5.7484,5.8265,5.8753,5.9044,6.0078,6.0625,6.0041,6.0217,6.0393,6.0393,6.0646,6.082,6.0842,6.0822,6.082,6.082,6.082,6.082,6.082,6.082,6.082,6.082,6.082,6.0549,5.9963,5.9671,5.8948,5.7797,5.6924,5.6494,5.6503,5.6492,5.65,5.6507,5.6507,5.6507,5.6507,5.6507,5.6507,5.6507,5.6507,5.6507,5.6468,5.6171,5.5333,5.416,5.2995,5.2411,5.208,5.1495,5.13,5.13,5.13,5.13,5.13,5.13,5.13,5.1222,5.095,5.0424,4.9859,4.9294,4.83,4.7423,4.7131,4.6608,4.6199,4.6199,4.6199,4.6199,4.6199,4.6199,4.6199,4.6199,4.5459,4.4598,4.3718,4.3601,4.3601,4.3601,4.3601,4.3601,4.3601,4.3601,4.3601,4.3601,4.3601,4.3601,4.3601,4.4169,4.4462,4.4462,4.5027,4.5338,4.5338,4.5338,4.5767,4.6608,4.6024,4.6394,5.0308,5.071,5.1211,5.2109,5.2741,5.3249,5.3563,5.4068,5.4713,5.5571,5.5767,5.6177,5.7543,5.8519,5.92,5.9514,6.0761,6.1503,6.0939,6.1076,6.1134,6.0881,6.1076,6.1134,6.0881,6.1369,6.1698,6.1698,6.1698,6.1698,6.1698,6.1698,6.1698,6.1698,6.1698,6.1425,6.0861,6.0568,5.9534,5.7797,5.6918,5.6508,5.6503,5.6492,5.6496,5.6507,5.6507,5.6507,5.6507,5.6507,5.6507,5.6507,5.6507,5.6507,5.6507,5.6507,5.6152,5.547,5.4028,5.3112,5.2508,5.1943,5.1554,5.13,5.13,5.13,5.13,5.13,5.13,5.13,5.13,5.0872,5.0385,5.0073,4.9177,4.83,4.8027,4.7521,4.7131,4.7131,4.7131,4.7131,4.7131,4.6878,4.6764,4.7072,4.6394,4.5514,4.4637,4.454,4.454,4.454,4.454,4.454,4.454,4.454,4.454,4.454,4.454,4.454,4.454,4.5066,4.5361,4.5361,4.5907,4.6199,4.6199,4.6199,4.6491,4.7033,4.6784,4.6956,5.1394,5.2046,5.288,5.3773,5.4029,5.4283,5.5103,5.5337,5.5591,5.643,5.6606,5.6821,0.0,5.848,5.9397,6.0256,6.1134,6.1718,6.1757,6.1017,6.0764,6.1601,6.0978,6.0783,6.162,6.1698,6.1698,6.1698,6.1698,6.1698,6.1698,6.1698,6.1698,6.1698,6.1698,6.1698,6.1698,6.0783,5.9495,5.7855,5.6949,5.6504,5.6501,5.6504,5.6507,5.6507,5.6507,5.6507,5.6507,5.6507,5.6507,5.6507,5.6507,5.6507,5.6507,5.6507,5.6507,5.639,5.5548,5.4141,5.2723,5.2625,5.2041,5.1359,5.132,5.13,5.13,5.13,5.13,5.13,5.13,5.13,5.1086,5.0268,5.0034,4.9781,4.9021,4.8826,4.8806,4.8806,4.8806,4.8806,4.8806,4.8105,4.7852,4.867,4.8105,4.7267,4.6433,4.6336,4.6316,4.6277,4.6277,4.6258,4.6199,4.6199,4.6199,4.6199,4.6199,4.6199,4.6199,4.6199,4.6199,4.6199,4.6199,4.6219,4.6277,4.6277,4.6297,4.6355,4.717,4.7579,5.3038,5.3405,5.3633,5.3925,5.4498,5.5025,5.524,5.5806,5.6333,5.6547,5.6606,5.6665,5.6879,5.8109,5.9397,6.0256,6.1134,6.1932,6.2579,6.1915,6.1444,6.1679,6.1503,6.1464,6.1679,6.1698,6.1698,6.1698,6.1698,6.1698,6.1698,6.1698,6.1698,6.1698,6.1698,6.1698,6.1698,6.0198,5.9202,5.8753,5.7233,5.6494,5.6501,5.65,5.65,5.6507,5.6507,5.6507,5.6507,5.6507,5.6507,5.6507,5.6507,5.6507,5.6507,5.6507,5.6507,5.6468,5.6253,5.545,5.4316,5.3015,5.245,5.2158,5.1495,5.13,5.13,5.13,5.13,5.13,5.13,5.13,5.1242,5.1028,5.0463,4.9937,4.9742,4.9216,4.8806,4.8806,4.8806,4.8806,4.8806,4.8612,4.8534,4.8768,4.8612,4.8397,4.8164,4.8144,4.7891,4.7248,4.717,4.692,4.6258,4.6199,4.6199,4.6199,4.6199,4.6199,4.6199,4.6199,4.6199,4.6199,4.6199,4.653,4.717,4.717,4.7501,4.8144,4.8378,4.8787,5.4284,5.4708,5.5017,5.5118,5.5513,5.5864,5.5864,5.6255,5.6489,5.6118,5.6333,5.6372,5.5591,5.7445,5.9261,5.9749,6.1193,6.2442,6.293,6.2579,6.213,6.1757,6.1698,6.1698,6.1698,6.1698,6.1698,6.1698,6.1698,6.1698,6.1698,6.1698,6.1698,6.1698,6.1698,6.1698,6.1698,6.0354,5.9475,5.9083,5.7718,5.6865,5.6501,5.6496,5.6496,5.6507,5.6507,5.6507,5.6507,5.6507,5.6507,5.6507,5.6507,5.6507,5.6507,5.6507,5.6507,5.6507,5.6507,5.6171,5.5548,5.4184,5.3483,5.3015,5.2138,5.1865,5.1787,5.1417,5.13,5.13,5.13,5.13,5.13,5.13,5.093,5.0579,5.0579,5.0229,4.9898,4.9898,4.9898,4.9898,4.9898,4.9586,4.9469,4.9839,4.9566,4.9469,4.9859,4.9255,4.8612,4.8125,4.8066,4.7871,4.7384,4.7345,4.7345,4.7345,4.6975,4.6936,4.7326,4.6608,4.6569,4.7326,4.6975,4.7189,4.8066,4.8066,4.8319,4.8826,4.9547,4.9937,5.5204,5.5823,5.6427,5.6551,5.6591,5.6567,5.645,5.6333,5.604,5.5279,5.563,5.5689,5.442,5.6684,5.8887,5.9222,6.1174,6.2735,6.2969,6.2891,6.2559,6.1796,6.1698,6.1698,6.1698,6.1698,6.1698,6.1698,6.1698,6.1698,6.1698,6.1698,6.1698,6.1698,6.1698,6.1698,6.1698,6.0842,5.9963,5.9083,5.8217,5.7343,5.6501,5.6504,5.6507,5.6507,5.6507,5.6507,5.6507,5.6507,5.6507,5.6507,5.6507,5.6507,5.6507,5.6507,5.6507,5.6507,5.6507,5.6507,5.637,5.5489,5.4686,5.3907,5.3034,5.2684,5.245,5.169,5.1398,5.13,5.13,5.13,5.13,5.13,5.13,5.13,5.13,5.13,5.13,5.13,5.13,5.13,5.13,5.0677,5.0424,5.1183,5.0657,5.0443,5.1203,5.0034,4.9099,4.8962,4.8962,4.8923,4.8806,4.8806,4.8806,4.8806,4.8086,4.8008,4.8768,4.7345,4.7267,4.8768,4.8066,4.8144,4.9138,4.9138,4.9196,4.9333,5.0794,5.1067,5.5894,5.6241,5.6422,5.6504,5.657,5.6411,5.5689,5.4966,0.0,5.4264,5.3776,5.3717,5.4869,5.6157,5.7719,5.9827,6.0568,6.1349,6.2794,6.2384,6.1874,6.1718,6.1698,6.1698,6.1698,6.1698,6.1698,6.1698,6.1698,6.1698,6.1698,6.1698,6.1698,6.1698,6.1698,6.1698,6.1698,6.0842,5.9963,5.9083,5.8217,5.7343,5.6501,5.6504,5.6507,5.6507,5.6507,5.6507,5.6507,5.6507,5.6507,5.6507,5.6507,5.6507,5.6507,5.6507,5.6507,5.6507,5.6507,5.6507,5.637,5.5489,5.5095,5.4803,5.3946,5.3171,5.2567,5.243,5.1865,5.13,5.13,5.13,5.13,5.13,5.13,5.13,5.13,5.13,5.13,5.13,5.13,5.13,5.13,5.1164,5.1125,5.1281,5.1164,5.1125,5.1281,5.1047,5.0599,4.9878,4.9781,4.9527,4.8865,4.8806,4.8806,4.8806,4.8651,4.8631,4.8787,4.8514,4.8495,4.8787,4.8651,4.9333,5.0872,5.0872,5.1242,5.1943,5.2236,5.2294,5.6188,5.632,5.6364,5.6429,5.6504,5.6303,5.539,0.0,0.0,5.2871,5.2988,5.3027,5.2051,5.4059,5.6279,5.7508,5.8843,6.0334,6.2071,6.1952,6.1698,6.1698,6.1698,6.1698,6.1698,6.1698,6.1698,6.1698,6.1698,6.1698,6.1698,6.1698,6.1698,6.1698,6.1698,6.1698,6.1698,6.1291,6.0412,5.9083,5.8685,5.7772,5.6501,5.6504,5.6507,5.6507,5.6507,5.6507,5.6507,5.6507,5.6507,5.6507,5.6507,5.6507,5.6507,5.6507,5.6507,5.6507,5.6507,5.6507,5.6429,5.6015,5.5879,5.5704,5.4846,5.4277,5.3849,5.3405,5.2645,5.1982,5.1982,5.1632,5.13,5.13,5.13,5.13,5.13,5.13,5.13,5.13,5.13,5.13,5.13,5.13,5.13,5.13,5.13,5.13,5.13,5.13,5.1145,5.0716,5.0677,5.0521,5.0131,5.0092,5.0092,5.0092,4.9683,4.9625,5.0073,4.9664,4.9859,5.0755,5.0326,5.0716,5.1982,5.1515,5.1515,5.1924,5.2391,5.2353,5.6295,5.6294,5.6305,5.6364,5.6291,5.5954,5.5054,5.46,0.0,5.1717,5.2083,5.2064,4.9684,5.1908,5.4335,5.5058,5.6906,5.8998,6.1108,6.1412,6.1483,6.1679,6.1698,6.1698,6.1698,6.1698,6.1698,6.1698,6.1698,6.1698,6.1698,6.1698,6.1698,6.1698,6.1698,6.1698,6.1698,6.1698,6.0917,5.9375,5.9388,5.8552,5.7047,5.6855,5.676,5.676,5.6565,5.6507,5.6507,5.6507,5.6507,5.6507,5.6507,5.6507,5.6507,5.6507,5.6507,5.6507,5.6507,5.6507,5.6507,5.6507,5.6507,5.637,5.5684,5.5353,5.5056,5.4375,5.356,5.284,5.2645,5.2099,5.1534,5.1339,5.13,5.13,5.13,5.13,5.13,5.13,5.13,5.13,5.13,5.13,5.13,5.13,5.13,5.13,5.13,5.13,5.13,5.13,5.13,5.13,5.13,5.13,5.13,5.13,5.0833,5.0774,5.1281,5.0813,5.1106,5.2294,5.1651,5.1729,5.2606,5.1904,5.1573,5.1593,5.2275,5.2138,5.631,5.6299,5.6292,5.6301,5.5756,5.5013,5.4207,0.0,5.1595,5.1357,5.0165,4.9561,5.0834,5.0741,5.1485,5.4608,5.5369,5.6697,5.9979,6.0474,6.0803,6.1601,6.1698,6.1698,6.1698,6.1698,6.1698,6.1698,6.1698,6.1698,6.1698,6.1698,6.1698,6.1698,6.1698,6.1698,6.1698,6.1698,6.1213,6.0276,6.0288,5.9784,5.8825,5.7985,5.7598,5.7559,5.6819,5.6507,5.6507,5.6507,5.6507,5.6507,5.6507,5.6507,5.6507,5.6507,5.6507,5.6507,5.6507,5.6507,5.6507,5.6507,5.6507,5.6487,5.6409,5.5821,5.5173,5.5095,5.4453,5.3599,5.282,5.2547,5.2275,5.1495,5.13,5.13,5.13,5.13,5.13,5.13,5.13,5.13,5.13,5.13,5.13,5.13,5.13,5.13,5.13,5.13,5.13,5.13,5.13,5.13,5.13,5.13,5.13,5.13,5.1963,5.2041,5.1339,5.1982,5.206,5.1437,5.1339,5.1729,5.2606,5.2528,5.2489,5.2489,5.2567,5.2138,5.6155,5.6296,5.6292,5.6292,5.5695,5.4869,5.3976,5.2875,5.173,5.0665,4.9913,4.9309,4.8962,4.9065,4.999,5.2372,5.2805,5.4231,5.8173,5.834,5.8742,6.0637,6.0895,6.1115,6.164,6.1698,6.1698,6.1698,6.1698,6.1698,6.1698,6.1698,6.1698,6.1698,6.1698,6.1698,6.1698,6.1698,6.1252,6.0393,6.0405,5.9941,5.9098,5.8667,5.8198,5.7676,5.7364,5.6955,5.6507,5.6507,5.6507,5.6507,5.6507,5.6507,5.6507,5.6507,5.6507,5.6507,5.6507,5.6507,5.6507,5.6507,5.6507,5.6507,5.6507,5.6253,5.5976,5.5976,5.5353,5.4472,5.3619,5.2606,5.1729,5.1378,5.13,5.13,5.13,5.13,5.13,5.13,5.13,5.13,5.13,5.13,5.13,5.13,5.13,5.13,5.13,5.13,5.13,5.13,5.13,5.13,5.13,5.13,5.13,5.13,5.1632,5.1671,5.132,5.2138,5.245,5.2099,5.208,5.2255,5.2606,5.208,5.1826,5.1826,5.1826,5.1632,5.5689,5.6097,5.6233,5.5981,5.5294,5.4461,5.3518,5.2693,5.1775,5.0545,4.9868,4.9143,4.792,4.8006,4.8833,5.0532,5.1284,5.2979,5.6784,5.7055,5.7616,5.9707,5.9993,6.0366,6.1232,6.1542,6.1698,6.1698,6.1698,6.1698,6.1698,6.1698,6.1698,6.1698,6.1698,6.1698,6.1698,6.1698,6.1386,6.0778,6.0753,6.0425,5.9829,5.9521,5.9055,5.8431,5.7929,5.7384,5.6838,5.6604,5.6507,5.6507,5.6507,5.6507,5.6507,5.6507,5.6507,5.6507,5.6507,5.6507,5.6507,5.6507,5.6507,5.6507,5.6507,5.6507,5.6507,5.6507,5.5684,5.4667,5.4063,5.2606,5.13,5.13,5.13,5.13,5.13,5.13,5.13,5.13,5.13,5.13,5.13,5.13,5.13,5.13,5.13,5.13,5.13,5.13,5.13,5.13,5.13,5.13,5.13,5.13,5.13,5.13,5.1534,5.1573,5.132,5.2138,5.2489,5.2216,5.2216,5.2216,5.2216,5.1593,5.13,5.13,5.13,5.13,5.4789,5.5631,5.6097,5.5223,5.4349,5.3481,5.2601,5.1785,5.1202,5.1183,4.9804,4.8599,4.858,4.7881,4.7881,4.9635,5.137,5.3417,5.6047,5.7144,5.803,5.9004,5.9101,5.9469,6.0339,6.1193,6.1698,6.1698,6.1698,6.1698,6.1698,6.1698,6.1698,6.1698,6.1698,6.1698,6.1698,6.1698,6.1693,6.1699,6.1625,6.1584,6.1541,6.0686,6.0282,6.0185,5.8451,5.7695,5.7637,5.6838,5.6507,5.6507,5.6507,5.6507,5.6507,5.6507,5.6507,5.6507,5.6507,5.6507,5.6507,5.6507,5.6507,5.6507,5.6507,5.6507,5.6507,5.6507,5.5256,5.3907,5.3907,5.2606,5.13,5.13,5.13,5.13,5.13,5.13,5.13,5.13,5.13,5.13,5.13,5.13,5.13,5.13,5.13,5.13,5.13,5.13,5.13,5.13,5.13,5.13,5.13,5.13,5.13,5.13,5.2119,5.2197,5.1339,5.2138,5.2197,5.1339,5.132,5.132,5.132,5.13,5.13,5.13,5.13,5.13,5.3735,5.4317,5.4472,5.4174,5.3455,5.2737,5.2465,5.1785,5.1027,5.0425,4.9396,4.8425,4.7822,4.7007,4.7376,5.0309,5.0756,5.2046,5.5794,5.6604,5.7358,5.8853,6.0116,6.0991,6.1252,6.1542,6.1698,6.1698,6.1698,6.1698,6.1698,6.1698,6.1698,6.1698,6.1698,6.1698,6.1698,6.1698,6.1693,6.1699,6.1625,6.1604,6.158,6.1305,6.0867,6.0263,5.9717,5.8802,5.7676,5.7423,5.6994,5.6507,5.6507,5.6507,5.6507,5.6507,5.6507,5.6507,5.6507,5.6507,5.6507,5.6507,5.6507,5.6507,5.6507,5.6507,5.6507,5.6507,5.5236,5.3907,5.3907,5.2606,5.13,5.13,5.13,5.13,5.13,5.13,5.13,5.13,5.13,5.13,5.13,5.13,5.13,5.13,5.13,5.13,5.13,5.13,5.13,5.13,5.13,5.13,5.13,5.13,5.13,5.13,5.1554,5.1593,5.132,5.1554,5.1573,5.132,5.13,5.13,5.13,5.13,5.13,5.13,5.1248,5.1541,5.2169,5.3191,5.3618,5.3281,5.2795,5.2329,5.2018,5.1552,5.1047,5.0503,4.9435,4.8425,4.79,4.7084,4.7414,5.025,5.0775,5.2139,5.5819,5.664,5.7397,5.8853,6.0327,6.1213,6.1213,6.1503,6.1698,6.1698,6.1698,6.1698,6.1698,6.1698,6.1698,6.1698,6.1698,6.1698,6.1698,6.1693,6.1685,6.1651,6.1615,6.1592,6.161,6.1597,6.1295,6.0769,6.0438,5.9678,0.0,5.7968,5.7403,5.6916,5.6624,5.6507,5.6507,5.6507,5.6507,5.6507,5.6507,5.6507,5.6507,5.6507,5.6507,5.6507,5.6507,5.6507,5.6507,5.6507,5.5236,5.3907,5.3907,5.2606,5.13,5.13,5.13,5.13,5.13,5.13,5.13,5.13,5.13,5.13,5.13,5.13,5.13,5.13,5.13,5.13,5.13,5.13,5.13,5.13,5.13,5.13,5.13,5.13,5.13,5.13,5.13,5.13,5.13,5.13,5.13,5.13,5.13,5.13,5.13,5.13,5.13,5.132,5.1934,5.2324,0.0,5.1942,5.3139,5.2336,5.2135,5.1921,5.1183,5.1066,0.0,5.1027,4.9784,4.8677,4.8599,4.7939,4.7958,4.9712,5.1338,5.3308,5.5924,5.7091,5.8091,5.9139,5.999,6.0477,6.0481,6.1219,6.1686,6.169,6.1686,6.1686,6.169,6.1683,6.1701,6.1686,6.1701,6.1698,6.1698,6.1707,6.1673,6.1595,6.1596,6.1591,6.1607,6.1607,6.1607,6.1549,6.073,6.036,6.0165,5.8548,5.7812,5.7637,5.6877,5.6546,5.6507,5.6507,5.6507,5.6507,5.6507,5.6507,5.6507,5.6507,5.6507,5.6507,5.6507,5.6507,5.6507,5.6507,5.5295,5.3985,5.3927,5.2645,5.1378,5.132,5.13,5.13,5.13,5.13,5.13,5.13,5.13,5.13,5.13,5.13,5.132,5.1378,5.1339,5.132,5.1378,5.1339,5.13,5.13,5.13,5.13,5.13,5.13,5.13,5.13,5.13,5.13,5.13,5.13,5.13,5.13,5.13,5.13,5.13,5.1417,5.1476,5.1534,5.3264,5.3669,4.5727,0.0,4.9743,4.9535,4.9495,4.9435,0.0,4.9726,5.0017,4.9357,0.0,4.9401,4.8716,4.8425,4.8871,5.0619,5.1746,5.3098,5.5052,5.7201,5.9182,6.0755,6.1151,6.1308,6.1242,6.1465,6.1601,6.1554,6.1582,6.1601,6.1554,6.1632,6.1676,6.1638,6.1678,6.1698,6.1698,6.1696,6.1663,6.1595,6.1591,6.1608,6.1607,6.1607,6.1607,6.1588,6.1373,6.0925,6.0263,5.9854,5.8899,5.7676,5.7501,5.7033,5.6507,5.6507,5.6507,5.6507,5.6507,5.6507,5.6507,5.6507,5.6507,5.6507,5.6507,5.6507,5.6507,5.6507,5.5723,5.4745,5.4063,5.3093,5.2138,5.1456,5.13,5.13,5.13,5.13,5.13,5.13,5.13,5.13,5.13,5.13,5.1534,5.2197,5.1729,5.1534,5.2216,5.171,5.13,5.13,5.13,5.13,5.13,5.13,5.13,5.13,5.13,5.13,5.13,5.13,5.13,5.13,5.13,5.13,5.13,5.2645,5.3288,5.3323,5.5025,5.6023,4.3692,4.5708,4.7849,4.7978,4.8299,4.8602,4.8599,0.0,0.0,0.0,0.0,4.9163,4.8696,4.8599,4.9163,5.093,5.1882,5.3285,5.583,5.8133,5.9895,6.0842,6.1312,6.1549,6.151,6.1527,6.1549,6.151,6.1527,6.1549,6.1508,6.1579,6.1582,6.1555,6.1582,6.1634,6.1701,6.1693,6.1679,6.1595,6.1607,6.1603,6.1607,6.1607,6.1607,6.1607,6.1607,6.1334,6.0867,6.0458,5.9503,5.8295,5.8295,5.7559,5.6546,5.6916,5.6819,5.6507,5.6507,5.6507,5.6507,5.6507,5.6507,5.6507,5.6507,5.6507,5.6507,5.6507,5.5879,5.5095,5.4628,5.356,5.2489,5.2002,5.1593,5.1417,5.1807,5.1573,5.1417,5.1826,5.1904,5.1904,5.1904,5.2236,5.2645,5.3132,5.2801,5.2664,5.3151,5.2781,5.2489,5.2489,5.2489,5.2489,5.2489,5.2138,5.1729,5.1339,5.13,5.13,5.13,5.13,5.13,5.13,5.169,5.1904,5.1904,5.3658,5.4492,5.455,5.6636,5.7405,4.2887,4.4696,4.6565,4.6816,4.766,4.8371,4.8239,0.0,0.0,0.0,0.0,0.0,4.8794,4.9007,4.9668,5.1144,5.2173,5.3963,5.7313,5.9107,6.0177,6.0447,6.108,6.149,6.1481,6.149,6.149,6.1481,6.149,6.149,6.1481,6.1498,6.1503,6.1495,6.1503,6.1555,6.166,6.1672,6.1642,6.1571,6.1576,6.1595,6.1592,6.158,6.1591,6.1606,6.1592,6.1607,6.1549,6.0808,5.9971,5.9191,5.9055,5.8046,5.676,5.7306,5.7091,5.6507,5.6507,5.6507,5.6507,5.6507,5.6507,5.6507,5.6507,5.6507,5.6507,5.6507,5.5976,5.5372,5.5232,5.4102,5.2957,5.284,5.2236,5.1904,5.2645,5.2216,5.1924,5.2664,5.2801,5.2801,5.2801,5.3405,5.3946,5.4082,5.3985,5.3946,5.4082,5.3985,5.3907,5.3907,5.3907,5.3907,5.3907,5.3229,5.2489,5.1749,5.1456,5.1359,5.1495,5.1378,5.1437,5.169,5.2294,5.2723,5.2995,5.4749,5.5587,5.5645,5.8061,5.8377,4.2355,4.3691,4.4746,4.4957,4.626,4.7311,4.6566,0.0,0.0,0.0,0.0,0.0,0.0,5.0853,5.1901,5.2173,5.3553,5.554,5.8241,5.8868,5.958,6.1052,6.1383,6.1481,6.1415,6.1461,6.1476,6.1415,6.1466,6.1476,6.1408,6.1463,6.1504,6.1498,6.1501,6.1514,6.1525,6.1527,6.1531,6.1517,6.1518,6.1542,6.1598,6.1541,6.1557,6.1605,6.1595,6.1607,6.1588,6.1451,6.0886,6.0029,5.9289,5.8392,5.7442,5.6896,5.6604,5.6507,5.6507,5.6507,5.6507,5.6507,5.6507,5.6507,5.6507,5.6507,5.6507,5.6507,5.6409,5.6132,5.5392,5.4998,5.4608,5.3888,5.3599,5.3541,5.3677,5.3599,5.3541,5.3673,5.3693,5.3693,5.3693,5.381,5.4141,5.4881,5.4375,5.416,5.4901,5.4355,5.3907,5.3907,5.3907,5.3907,5.3907,5.3771,5.3638,5.3522,5.2119,5.1632,5.2372,5.169,5.1982,5.3463,5.2918,5.3327,5.4803,5.6483,5.7321,5.736,5.923,5.9561,4.1132,4.2862,4.4484,4.4581,4.6281,4.7856,4.7484,4.7714,0.0,0.0,0.0,0.0,0.0,5.1591,5.2853,5.4271,5.5184,5.6427,5.8506,5.9205,5.9807,6.0604,6.1143,6.1428,6.14,6.1434,6.1428,6.14,6.1441,6.1428,6.14,6.1437,6.1456,6.1458,6.145,6.1456,6.1456,6.1456,6.1463,6.1502,6.1502,6.151,6.154,6.1504,6.154,6.1608,6.1596,6.1601,6.1607,6.1607,6.1085,6.0301,6.0389,5.9586,5.8295,5.7462,5.6878,5.6491,5.65,5.6507,5.6507,5.6507,5.6507,5.6507,5.6507,5.6507,5.6507,5.6507,5.6507,5.6409,5.6015,5.5548,5.5095,5.4706,5.4238,5.4024,5.4492,5.4219,5.4043,5.4511,5.4589,5.4589,5.4589,5.4983,5.5431,5.584,5.5567,5.545,5.584,5.5548,5.5295,5.5295,5.5295,5.5295,5.5295,5.4866,5.4394,5.3927,5.3151,5.2879,5.3288,5.2918,5.3073,5.3888,5.3966,5.4394,5.5193,5.6873,5.7695,5.7734,5.8996,5.9133,4.095,4.2805,4.4697,4.511,0.0,4.8322,4.8778,4.8743,0.0,0.0,0.0,0.0,5.1086,5.2193,5.3805,5.6214,5.6758,5.7399,5.8894,5.9671,6.0176,6.037,6.0992,6.1393,6.1393,6.1393,6.1393,6.1393,6.1393,6.1393,6.1393,6.1393,6.1393,6.1393,6.1393,6.1393,6.1393,6.1393,6.1437,6.1481,6.1481,6.147,6.1508,6.1475,6.1511,6.1601,6.1601,6.16,6.1592,6.1592,6.1211,6.0644,6.1136,6.0378,5.8928,5.8036,5.7324,5.677,5.6569,5.6508,5.6508,5.6508,5.65,5.6507,5.6507,5.6507,5.6507,5.6507,5.6507,5.6507,5.6507,5.5996,5.5509,5.5509,5.4983,5.4691,5.5353,5.4983,5.471,5.5372,5.5509,5.5509,5.5509,5.6054,5.6507,5.6507,5.6507,5.6507,5.6507,5.6507,5.6507,5.6507,5.6507,5.6507,5.6507,5.5899,5.5217,5.4554,5.4126,5.3985,5.4199,5.4004,5.4087,5.4496,5.4959,5.5388,5.5801,5.7068,5.7695,5.7715,5.8373,5.8237,4.3215,4.4105,4.4994,4.6615,4.7159,4.7727,4.9343,4.9141,0.0,5.0678,0.0,0.0,5.1183,5.3183,5.5398,5.7211,5.8137,5.8933,5.9885,6.006,6.0409,6.1199,6.1354,6.1393,6.1393,6.1393,6.1393,6.1393,6.1393,6.1393,6.1393,6.1393,6.1393,6.1393,6.1393,6.1393,6.1393,6.1393,6.1407,6.1415,6.1415,6.1447,6.1493,6.145,6.1478,6.1605,6.16,6.16,6.1592,6.1592,6.1552,6.1433,6.0752,5.9913,5.8991,5.8104,5.7762,5.7585,5.6772,5.6503,5.6503,5.6503,5.6491,5.6507,5.6507,5.6507,5.6507,5.6507,5.6507,5.6507,5.6507,5.6448,5.6409,5.6409,5.637,5.6331,5.639,5.637,5.6331,5.639,5.6409,5.6409,5.6409,5.6468,5.6507,5.6507,5.6507,5.6507,5.6507,5.6507,5.6507,5.6507,5.6507,5.6507,5.6507,5.6448,5.639,5.6312,5.4788,5.4258,5.5076,5.4336,5.4652,5.6273,5.5587,5.5976,5.7516,5.7637,5.7695,5.7695,5.7754,5.7364,4.2173,4.3451,4.4871,4.6033,4.7145,0.0,0.0,5.0785,5.1295,5.2504,5.2756,0.0,5.3455,5.4796,5.6194,5.7405,5.7871,5.8331,5.9166,5.9768,6.0215,6.0545,6.107,6.1393,6.1393,6.1393,6.1393,6.1393,6.1393,6.1393,6.1393,6.1393,6.1393,6.1393,6.1393,6.114,6.0604,6.1128,6.1128,6.0604,6.114,6.1407,6.1441,6.1421,6.1445,6.1532,6.1537,6.1562,6.1602,6.1602,6.1614,6.1621,6.1284,6.0644,5.9799,5.8938,5.8274,5.7675,5.6803,5.6508,5.6506,5.6506,5.6494,5.6507,5.6507,5.6507,5.6507,5.6507,5.6507,5.6507,5.6507,5.6507,5.6507,5.6507,5.6507,5.6507,5.6507,5.6507,5.6507,5.6507,5.6507,5.6507,5.6507,5.6507,5.6507,5.6507,5.6507,5.6507,5.6507,5.6507,5.6507,5.6507,5.6507,5.6507,5.6507,5.6507,5.6507,5.6507,5.5883,5.5665,5.5996,5.5684,5.5821,5.6487,5.6171,5.6327,5.6955,5.6955,5.6955,5.6955,5.6955,5.6799,4.1953,4.3407,4.5104,4.5671,0.0,0.0,5.1121,5.1962,5.279,5.4226,5.4291,5.4291,5.4893,5.5709,5.6583,5.7463,5.7813,5.8176,5.8719,5.9302,5.9691,5.9691,6.0468,6.0992,6.0992,6.1237,6.1393,6.1393,6.1393,6.1393,6.1393,6.1393,6.1393,6.1393,6.1121,6.0837,6.0506,6.0837,6.0837,6.0526,6.1128,6.1393,6.1393,6.1393,6.1434,6.1503,6.1503,6.1529,6.1595,6.1595,6.1635,6.1692,6.166,6.1302,6.0673,5.9511,5.8711,5.804,5.6894,5.6495,5.6502,5.6502,5.6492,5.6496,5.6496,5.6504,5.6507,5.6507,5.6507,5.6507,5.6507,5.6507,5.6507,5.6507,5.6507,5.6507,5.6507,5.6507,5.6507,5.6507,5.6507,5.6507,5.6507,5.6507,5.6507,5.6507,5.6507,5.6507,5.6507,5.6507,5.6507,5.6507,5.6507,5.6507,5.6507,5.6507,5.6507,5.6507,5.6507,5.6507,5.6507,5.6507,5.6507,5.6507,5.6507,5.6507,5.6507,5.6507,5.6507,5.6507,5.6507,5.6507,4.3171,4.4361,4.5807,4.5807,0.0,0.0,5.2094,5.2369,5.3159,5.576,5.5612,5.5009,5.5009,5.5728,5.6583,5.7444,5.8253,5.8778,5.8797,5.8797,5.8797,5.8797,5.9574,6.0099,6.0099,6.0875,6.1393,6.1393,6.1393,6.1393,6.1393,6.1393,6.1393,6.1393,6.0565,6.0526,6.1373,6.0545,6.0545,6.1393,6.1393,6.1393,6.1393,6.1393,6.1434,6.1503,6.1503,6.1549,6.1595,6.1595,6.1634,6.1698,6.1698,6.1698,6.1488,5.9738,5.9108,5.8855,5.7103,5.6502,5.6502,5.6502,5.6497,5.6506,5.6506,5.6494,5.6507,5.6507,5.6507,5.6507,5.6507,5.6507,5.6507,5.6507,5.6507,5.6507,5.6507,5.6507,5.6507,5.6507,5.6507,5.6507,5.6507,5.6507,5.6507,5.6507,5.6507,5.6507,5.6507,5.6507,5.6507,5.6507,5.6507,5.6507,5.6507,5.6507,5.6507,5.6507,5.6507,5.6507,5.6507,5.6507,5.6507,5.6507,5.6507,5.6507,5.6507,5.6507,5.6507,5.6507,5.6507,5.6507,4.3162,4.4361,4.5962,4.6561,4.9281,0.0,0.0,5.3693,0.0,0.0,5.6097,5.5903,5.5903,5.6136,5.6369,5.6641,5.6894,5.7263,5.7865,5.8447,5.8797,5.8797,5.9574,6.0099,6.0099,6.0332,6.074,6.1354,6.1393,6.1393,6.1393,6.1393,6.1393,6.1393,6.114,6.0837,6.0487,6.0837,6.0837,6.0487,6.1109,6.1393,6.1393,6.1393,6.1407,6.1428,6.1428,6.147,6.1537,6.1631,6.1674,6.1698,6.1698,6.1698,6.1486,5.974,5.9091,5.8851,5.7163,5.6532,5.6502,5.6502,5.6497,5.6506,5.6506,5.6494,5.6507,5.6507,5.6507,5.6507,5.6507,5.6507,5.6507,5.6507,5.6507,5.6507,5.6507,5.6507,5.6507,5.6507,5.6507,5.6507,5.6507,5.6507,5.6507,5.6507,5.6507,5.6507,5.6507,5.6507,5.6507,5.6507,5.6507,5.6507,5.6507,5.6507,5.6507,5.6507,5.6507,5.6507,5.6507,5.6507,5.6507,5.6507,5.6507,5.6507,5.6507,5.6507,5.6507,5.6507,5.6507,5.6507,4.4592,4.5708,4.7115,4.8314,5.0674,5.3038,5.4343,5.5065,5.5623,5.6188,5.6583,5.6699,5.635,5.6583,5.6822,5.6822,5.6822,5.7107,5.7962,5.8486,5.8681,5.835,5.9069,5.9574,5.9574,5.9904,6.0468,6.1335,6.1393,6.1393,6.1393,6.1393,6.1393,6.1393,6.107,6.0623,6.0099,6.0273,6.0273,6.0099,6.0273,6.0545,6.0895,6.1237,6.1393,6.14,6.1428,6.1466,6.1505,6.1618,6.1663,6.1666,6.1696,6.1483,6.1017,5.961,5.889,5.8382,5.7055,5.6579,5.6533,5.65,5.6503,5.6507,5.6495,5.6503,5.6503,5.6503,5.6504,5.6507,5.6507,5.6507,5.6507,5.6507,5.6507,5.6507,5.6507,5.6507,5.6507,5.6507,5.6507,5.6507,5.6507,5.6507,5.6507,5.6507,5.6507,5.6507,5.6507,5.6507,5.6507,5.6507,5.6507,5.6507,5.6507,5.6507,5.6507,5.6507,5.6507,5.6507,5.6507,5.6507,5.6507,5.6507,5.6507,5.6507,5.6507,5.6507,5.6507,5.6507,5.6507,5.6507,4.6762,4.7792,4.8914,5.0589,5.2337,5.4072,5.5816,5.6257,5.633,5.6408,5.7055,5.7386,5.666,5.7191,5.7716,5.7716,5.7716,5.7988,5.8797,5.8855,5.8525,5.7794,5.835,5.8797,5.8797,5.9593,6.0468,6.1335,6.1393,6.1393,6.1393,6.1393,6.1354,6.1276,6.0506,6.006,5.9982,5.9205,5.9205,5.9963,5.9186,5.9205,6.0001,6.0875,6.1315,6.14,6.1395,6.1425,6.149,6.14,6.1455,6.1576,6.1487,6.1013,6.0273,5.9334,5.8478,5.768,5.6879,5.6606,5.6591,5.6535,5.6501,5.6503,5.65,5.6497,5.6506,5.6503,5.6507,5.6507,5.6507,5.6507,5.6507,5.6507,5.6507,5.6507,5.6507,5.6507,5.6507,5.6507,5.6507,5.6507,5.6507,5.6507,5.6507,5.6507,5.6507,5.6507,5.6507,5.6507,5.6507,5.6507,5.6507,5.6507,5.6507,5.6507,5.6507,5.6507,5.6507,5.6507,5.6507,5.6507,5.6507,5.6507,5.6507,5.6507,5.6507,5.6507,5.6507,5.6507,5.6507,5.6507,4.6928,4.8237,4.9823,5.1505,5.324,5.482,5.5939,5.6216,5.6433,5.7165,5.7463,5.7735,5.8176,5.8428,5.8545,5.8545,5.8545,5.8836,5.9691,5.9224,5.8739,5.8564,5.87,5.8797,5.8797,5.9593,6.0468,6.1335,6.1393,6.1393,6.1393,6.1393,6.1089,6.0409,6.0196,5.9768,5.9088,5.8894,5.8894,5.9088,5.8894,5.8894,5.9108,5.9982,6.0759,6.1361,6.076,6.0861,6.1392,6.0102,6.0324,6.1392,6.0098,5.9888,6.0142,5.8624,5.7955,5.768,5.6879,5.6606,5.6606,5.6575,5.6531,5.6503,5.65,5.6497,5.65,5.65,5.6496,5.6507,5.6507,5.6507,5.6507,5.6507,5.6507,5.6507,5.6507,5.6507,5.6507,5.6507,5.6507,5.6507,5.6507,5.6507,5.6507,5.6507,5.6507,5.6507,5.6507,5.6507,5.6507,5.6507,5.6507,5.6507,5.6507,5.6507,5.6507,5.6507,5.6507,5.6507,5.6507,5.6507,5.6507,5.6507,5.6507,5.6507,5.6507,5.6507,5.6507,5.6507,5.6507,5.6507,4.7998,4.9301,5.079,5.2917,5.4423,5.5512,5.6025,5.6145,5.6415,5.7365,5.7877,5.8292,5.8719,5.8797,5.8933,5.9341,5.8758,5.8661,5.9924,5.9341,5.8661,5.8273,5.8234,5.837,5.8758,5.9205,6.0021,6.1296,6.1011,6.0778,6.0778,6.039,5.9943,5.9496,5.9477,5.9069,5.8234,5.8234,5.8234,5.8214,5.7806,5.7826,5.8273,5.9535,6.0584,6.1361,6.0527,6.0644,6.1324,5.9643,5.9703,6.0755,5.9484,5.9018,5.8956,5.8116,5.7531,5.7116,5.6738,5.6606,5.6589,5.6564,5.6549,5.6535,5.6501,5.6507,5.6508,5.6504,5.6508,5.6507,5.6507,5.6507,5.6507,5.6507,5.6507,5.6507,5.6507,5.6507,5.6507,5.6507,5.6507,5.6507,5.6507,5.6507,5.6507,5.6507,5.6507,5.6507,5.6507,5.6507,5.6507,5.6507,5.6507,5.6507,5.6507,5.6507,5.6507,5.6507,5.6507,5.6507,5.6507,5.6507,5.6507,5.6507,5.6507,5.6507,5.6507,5.6507,5.6507,5.6507,5.6507,5.6507,4.8891,5.036,5.1904,5.4213,5.5393,5.602,5.609,5.6098,5.6354,5.7283,5.818,5.881,5.8797,5.8914,5.9205,5.9788,5.87,5.8299,5.9671,5.9147,5.835,5.7677,5.7599,5.7871,5.8525,5.8719,5.9399,6.083,6.0273,5.9885,5.9885,5.9186,5.8739,5.8603,5.8583,5.8195,5.7386,5.7386,5.7386,5.7366,5.6641,5.6758,5.7658,5.9037,6.0137,6.0907,6.0196,6.0273,6.0817,5.9133,5.904,5.9863,5.8905,5.8184,5.7667,5.7588,5.7095,5.6498,5.6545,5.6572,5.656,5.651,5.6543,5.6573,5.6523,5.6499,5.6495,5.6502,5.6498,5.65,5.6507,5.6507,5.6507,5.6507,5.6507,5.6507,5.6507,5.6507,5.6507,5.6507,5.6507,5.6507,5.6507,5.6507,5.6507,5.6507,5.6507,5.6507,5.6507,5.6507,5.6507,5.6507,5.6507,5.6507,5.6507,5.6507,5.6507,5.6507,5.6507,5.6507,5.6507,5.6507,5.6507,5.6507,5.6507,5.6507,5.6507,5.6507,5.6507,5.6507,5.6507,5.6507,4.7981,5.0683,5.342,5.4523,5.5393,5.602,5.609,5.6098,5.6346,5.7226,5.8144,5.8794,5.881,5.9419,5.971,5.9088,5.8797,5.8719,5.8933,5.8273,5.7716,5.7619,5.7599,5.7638,5.7755,5.8389,5.8894,5.9127,5.905,5.8972,5.8972,5.8855,5.8486,5.7774,5.7755,5.7347,5.6486,5.6466,5.6466,5.6466,5.635,5.6758,5.7619,5.7832,5.837,5.9147,5.903,5.905,5.903,5.7334,5.7567,5.883,5.7269,5.7053,5.7525,5.6777,5.6461,5.6418,5.6422,5.6426,5.6434,5.6488,5.6514,5.6506,5.6498,5.6503,5.6504,5.6508,5.6503,5.6508,5.65,5.6507,5.6507,5.6507,5.6507,5.6507,5.6507,5.6507,5.6507,5.6507,5.6507,5.6507,5.6507,5.6507,5.6507,5.6507,5.6507,5.6507,5.6507,5.6507,5.6507,5.6507,5.6507,5.6507,5.6507,5.6507,5.6507,5.6507,5.6507,5.6507,5.6507,5.6507,5.6507,5.6507,5.6507,5.6507,5.6507,5.6507,5.6507,5.6507,5.6507,5.6507,4.9509,5.1466,5.3207,5.5026,5.5741,5.6012,5.6037,5.6037,5.617,5.6587,5.7385,5.8172,5.8697,5.8745,5.8719,5.8797,5.802,5.7573,5.8059,5.7399,5.6881,5.6881,5.6881,5.7055,5.7561,5.793,5.8311,5.8778,5.837,5.8137,5.8137,5.7651,5.7243,5.6881,5.6881,5.668,5.6291,5.6291,5.6291,5.6291,5.6291,5.6505,5.69,5.7386,5.804,5.8778,5.8311,5.837,5.8681,5.6991,5.701,5.8001,5.6777,5.6524,5.6827,5.6434,5.6324,5.6349,5.6401,5.6409,5.639,5.643,5.6434,5.6448,5.6448,5.6442,5.645,5.6445,5.6434,5.6436,5.6433,5.6478,5.65,5.6507,5.6507,5.6507,5.6507,5.6507,5.6507,5.6507,5.6507,5.6507,5.6507,5.6507,5.6507,5.6507,5.6507,5.6507,5.6507,5.6507,5.6507,5.6507,5.6507,5.6507,5.6507,5.6507,5.6507,5.6507,5.6507,5.6507,5.6507,5.6507,5.6507,5.6507,5.6507,5.6507,5.6507,5.6507,5.6507,5.6507,5.6507,5.6507,4.972,5.1026,5.2037,5.4437,5.5374,5.576,5.5954,5.6012,5.602,5.6054,5.6613,5.7284,5.7986,5.7824,5.7703,5.8084,5.7101,5.6524,5.7191,5.6699,5.6291,5.6291,5.6291,5.6563,5.7211,5.7269,5.7515,5.8117,5.7612,5.7269,5.7269,5.6641,5.6291,5.6291,5.6291,5.6291,5.6291,5.6291,5.6291,5.6291,5.6291,5.6291,5.6311,5.6978,5.7593,5.8137,5.7755,5.7806,5.8078,5.6816,5.668,5.7211,5.6544,5.6291,5.6298,5.6288,5.6306,5.6311,5.6359,5.6369,5.6373,5.6368,5.6372,5.6381,5.6397,5.6394,5.6405,5.6426,5.6424,5.6423,5.6424,5.6467,5.6503,5.6496,5.6507,5.6507,5.6507,5.6507,5.6507,5.6507,5.6507,5.6507,5.6507,5.6507,5.6507,5.6507,5.6507,5.6507,5.6507,5.6507,5.6507,5.6507,5.6507,5.6507,5.6507,5.6507,5.6507,5.6507,5.6507,5.6507,5.6507,5.6507,5.6507,5.6507,5.6507,5.6507,5.6507,5.6507,5.6507,5.6507,5.6507,5.6507,4.6666,4.822,4.9931,5.1899,5.3633,5.5064,5.5838,5.6012,5.6012,5.5993,5.6084,5.6175,5.6241,5.6931,5.7254,5.6458,5.633,5.6311,5.635,5.633,5.6291,5.6291,5.6291,5.6311,5.635,5.6369,5.6369,5.6427,5.6388,5.6369,5.6369,5.6311,5.6291,5.6291,5.6291,5.6291,5.6291,5.6291,5.6291,5.6291,5.6291,5.6291,5.6291,5.635,5.6388,5.6466,5.7269,5.7153,5.6427,5.633,5.633,5.635,5.6311,5.6291,5.6291,5.6298,5.6298,5.6298,5.6304,5.6304,5.6317,5.6317,5.6314,5.6324,5.6381,5.6394,5.6414,5.6471,5.6486,5.6498,5.6495,5.6506,5.6494,5.65,5.6507,5.6507,5.6507,5.6507,5.6507,5.6507,5.6507,5.6507,5.6507,5.6507,5.6507,5.6507,5.6507,5.6507,5.6507,5.6507,5.6507,5.6507,5.6507,5.6507,5.6507,5.6507,5.6507,5.6507,5.6507,5.6507,5.6507,5.6507,5.6507,5.6507,5.6507,5.6507,5.6507,5.6507,5.6507,5.6507,5.6507,5.6507,4.6599,4.7834,4.9085,5.1432,5.2986,5.4194,5.5045,5.5625,5.6012,5.6012,5.602,5.6029,5.6029,5.6381,5.6551,5.626,5.6684,5.7074,5.7074,5.7113,5.712,5.708,5.7074,5.6846,5.6282,5.6701,5.6779,5.6262,5.6243,5.6231,5.6239,5.6239,5.6272,5.6291,5.6291,5.6291,5.6291,5.6291,5.6291,5.6291,5.6291,5.6291,5.6291,5.6291,5.6291,5.6311,5.6622,5.6583,5.6291,5.6291,5.6291,5.6291,5.6291,5.6291,5.6291,5.6291,5.6291,5.6291,5.6291,5.6291,5.6298,5.6303,5.629,5.6296,5.6339,5.6345,5.6336,5.6364,5.6363,5.6377,5.6364,5.6445,5.6501,5.6507,5.6504,5.65,5.6507,5.6507,5.6507,5.6507,5.6507,5.6507,5.6507,5.6507,5.6507,5.6507,5.6507,5.6507,5.6507,5.6507,5.6507,5.6507,5.6507,5.6507,5.6507,5.6507,5.6507,5.6507,5.6507,5.6507,5.6507,5.6507,5.6507,5.6507,5.6507,5.6507,5.6507,5.6507,5.6507,5.6507,5.6507,5.6507,4.5969,4.6965,4.8008,5.0414,5.1769,5.2936,5.4456,5.5219,5.5664,5.5935,5.6012,5.6012,5.6012,5.6082,5.6238,5.6544,5.7086,5.7582,5.7865,5.7945,5.7952,5.7911,5.7904,5.7559,5.6684,5.7083,5.7064,5.6257,5.6199,5.6194,5.6197,5.6197,5.6211,5.6278,5.6278,5.6265,5.6278,5.6278,5.6278,5.6291,5.6291,5.6291,5.6291,5.6291,5.6291,5.6291,5.6291,5.6291,5.6291,5.6291,5.6291,5.6291,5.6291,5.6291,5.6291,5.6291,5.6291,5.6291,5.6291,5.6291,5.6291,5.6291,5.6291,5.6291,5.6291,5.6291,5.6298,5.6303,5.6308,5.6318,5.6328,5.6405,5.6463,5.648,5.6461,5.6472,5.6496,5.6496,5.6507,5.6507,5.6507,5.6507,5.6507,5.6507,5.6507,5.6507,5.6507,5.6507,5.6507,5.6507,5.6507,5.6507,5.6507,5.6507,5.6507,5.6507,5.6507,5.6507,5.6507,5.6507,5.6507,5.6507,5.6507,5.6507,5.6507,5.6507,5.6507,5.6507,5.6507,5.6507,5.6507,5.6507,0.0,0.0,0.0,4.8682,4.9856,5.1221,5.4036,5.4669,5.492,5.5799,5.5973,5.5973,5.6012,5.6012,5.6311,5.7243,5.7428,5.7742,5.8606,5.875,5.875,5.8742,5.8742,5.8393,5.7529,5.7451,5.7102,5.6288,5.6218,5.6199,5.6199,5.6199,5.6199,5.6199,5.6199,5.6202,5.6199,5.6199,5.6239,5.6311,5.6291,5.6291,5.6291,5.6291,5.6291,5.6291,5.6291,5.6291,5.6291,5.6291,5.6291,5.6291,5.6291,5.6291,5.6291,5.6291,5.6291,5.6291,5.6291,5.6291,5.6291,5.6291,5.6291,5.6291,5.6291,5.6291,5.6304,5.6292,5.6308,5.632,5.6387,5.6395,5.6401,5.6403,5.6398,5.6429,5.6481,5.6496,5.6507,5.6507,5.6507,5.6507,5.6507,5.6507,5.6507,5.6507,5.6507,5.6507,5.6507,5.6507,5.6507,5.6507,5.6507,5.6507,5.6507,5.6507,5.6507,5.6507,5.6507,5.6507,5.6507,5.6507,5.6507,5.6507,5.6507,5.6507,5.6507,5.6507,5.6507,5.6507,5.6507,5.6507,4.4252,0.0,0.0,0.0,0.0,0.0,5.1125,5.1769,5.2403,5.4671,5.5122,5.5316,5.5896,5.6012,5.6283,5.7181,5.7901,5.8632,5.9445,5.9606,5.9614,5.9562,5.9581,5.9235,5.8357,5.828,5.7904,5.7052,5.6413,5.6082,5.6133,5.6164,5.6199,5.6199,5.6199,5.6206,5.6194,5.6194,5.6202,5.6236,5.6218,5.6232,5.6232,5.6278,5.6291,5.6291,5.6291,5.6291,5.6291,5.6291,5.6291,5.6291,5.6291,5.6291,5.6291,5.6291,5.6291,5.6291,5.6291,5.6291,5.6291,5.6291,5.6291,5.6291,5.6291,5.6291,5.6298,5.6297,5.6303,5.6294,5.6312,5.6328,5.6341,5.6394,5.6445,5.6459,5.6427,5.647,5.6507,5.6507,5.6507,5.6503,5.6508,5.6504,5.65,5.6507,5.6507,5.6507,5.6507,5.6507,5.6507,5.6507,5.6507,5.6507,5.6507,5.6507,5.6507,5.6507,5.6507,5.6507,5.6507,5.6507,5.6507,5.6507,5.6507,5.6507,5.6507,5.6507,5.6507,5.6507,5.6507,5.6507,4.4071,4.443,0.0,4.5798,0.0,0.0,4.9724,5.0509,5.1375,5.4091,5.4993,5.5451,5.5915,5.6012,5.6293,5.7164,5.7751,5.8532,5.9732,6.0214,6.0435,6.0409,6.04,6.0062,5.9232,5.9145,5.8623,5.7396,5.6835,5.6407,5.6084,5.609,5.6125,5.6125,5.6125,5.6133,5.6157,5.6157,5.6164,5.6199,5.6202,5.6197,5.6197,5.6238,5.6264,5.6271,5.6265,5.6252,5.6252,5.6285,5.6291,5.6291,5.6291,5.6291,5.6291,5.6291,5.6291,5.6291,5.6291,5.6291,5.6291,5.6291,5.6291,5.6291,5.6291,5.6291,5.6291,5.6291,5.6291,5.6291,5.6308,5.6305,5.6315,5.6355,5.6393,5.6415,5.6404,5.6459,5.6506,5.6501,5.6491,5.6503,5.6504,5.6504,5.65,5.6507,5.6507,5.6507,5.6507,5.6507,5.6507,5.6507,5.6507,5.6507,5.6507,5.6507,5.6507,5.6507,5.6507,5.6507,5.6507,5.6507,5.6507,5.6507,5.6507,5.6507,5.6507,5.6507,5.6507,5.6507,5.6507,5.6507,4.3877,4.4207,0.0,4.5542,4.5199,0.0,4.8826,4.9857,5.0798,5.3288,5.4718,5.5525,5.5622,5.5622,5.5901,5.6692,5.7001,5.7764,5.9648,6.0518,6.1002,6.1099,6.1099,6.0828,6.0093,5.9938,5.9223,5.757,5.726,5.6815,5.6051,5.6012,5.6012,5.6012,5.6012,5.6029,5.609,5.609,5.6125,5.6184,5.6191,5.6191,5.6191,5.6199,5.6206,5.6206,5.6211,5.6206,5.6225,5.6278,5.6291,5.6291,5.6291,5.6291,5.6291,5.6291,5.6291,5.6291,5.6291,5.6291,5.6291,5.6291,5.6291,5.6291,5.6291,5.6291,5.6291,5.6291,5.6291,5.6291,5.6291,5.6291,5.6303,5.6291,5.6303,5.6313,5.6372,5.6433,5.6483,5.6486,5.6494,5.65,5.6492,5.6492,5.6496,5.648,5.6484,5.6484,5.6484,5.6484,5.65,5.6488,5.6484,5.648,5.6496,5.6507,5.6507,5.6511,5.6507,5.6507,5.6507,5.6507,5.6507,5.6507,5.6507,5.6507,5.6507,5.6507,5.6507,5.6507,5.6507,5.6507,4.3485,4.3656,4.3807,4.4479,4.4004,0.0,4.5464,4.6396,4.7505,4.9617,5.1291,5.2579,5.3211,5.3326,5.347,5.3869,5.5093,5.6917,5.9533,6.0035,6.0364,6.1021,6.1099,6.1041,6.0886,6.0286,5.9474,5.841,5.7056,5.6177,5.6012,5.6012,5.6012,5.6012,5.6012,5.6012,5.602,5.602,5.6029,5.6037,5.609,5.6125,5.6114,5.6175,5.6204,5.6192,5.6265,5.6285,5.6285,5.6291,5.6291,5.6291,5.6291,5.6291,5.6291,5.6291,5.6291,5.6291,5.6291,5.6291,5.6291,5.6291,5.6291,5.6291,5.6291,5.6291,5.6291,5.6291,5.6291,5.6291,5.6291,5.6291,5.6298,5.6309,5.631,5.6297,5.6313,5.6369,5.6427,5.6422,5.6515,5.6565,5.6508,5.6492,5.6478,5.6426,5.6426,5.6426,5.6426,5.6426,5.6424,5.6426,5.6417,5.6438,5.6498,5.6504,5.6492,5.6508,5.6496,5.6507,5.6507,5.6507,5.6507,5.6507,5.6507,5.6507,5.6507,5.6507,5.6507,5.6507,5.6507,5.6507,4.3014,4.3159,4.3282,4.3791,4.3259,0.0,0.0,4.5561,4.6468,4.837,4.9868,5.0994,5.1431,5.1507,5.1676,5.2198,5.3518,5.5033,5.6727,5.8655,6.0054,6.0441,6.0867,6.1099,6.1099,6.0731,5.9977,5.8709,5.6998,5.6012,5.6012,5.5625,5.5586,5.5993,5.5606,5.5586,5.6012,5.6012,5.5799,5.5412,5.5835,5.5833,5.5465,5.5893,5.611,5.6091,5.6175,5.6223,5.6257,5.6258,5.6278,5.6291,5.6291,5.6291,5.6291,5.6291,5.6291,5.6291,5.6291,5.6291,5.6291,5.6291,5.6291,5.6291,5.6291,5.6291,5.6291,5.6291,5.6291,5.6291,5.6291,5.6291,5.6291,5.6291,5.6308,5.6289,5.6289,5.6331,5.6352,5.6361,5.6432,5.6484,5.6464,5.6445,5.6444,5.6418,5.6398,5.6398,5.6398,5.6398,5.6401,5.6406,5.6406,5.6404,5.6456,5.645,5.6447,5.645,5.6448,5.6456,5.6453,5.645,5.6475,5.6496,5.6504,5.65,5.65,5.6492,5.6507,5.6507,5.6507,5.6507,4.2616,4.2696,4.2792,4.3246,4.2875,4.2811,0.0,0.0,0.0,4.7306,4.8623,4.9542,4.9591,4.9635,4.9933,5.0789,5.1836,5.2787,5.3432,5.6552,5.8877,5.9215,6.0055,6.0654,6.0761,6.0674,6.0054,5.8709,5.6998,5.6012,5.6012,5.5238,5.5103,5.576,5.4987,5.4851,5.5509,5.5528,5.52,5.4561,5.5374,5.5432,5.4832,5.5653,5.602,5.602,5.609,5.6149,5.6199,5.6197,5.6225,5.6272,5.6285,5.6291,5.6291,5.6291,5.6291,5.6291,5.6291,5.6291,5.6291,5.6291,5.6291,5.6291,5.6291,5.6291,5.6291,5.6291,5.6291,5.6291,5.6291,5.6291,5.6291,5.6291,5.6291,5.6291,5.6291,5.6297,5.63,5.63,5.634,5.6369,5.638,5.6385,5.6382,5.6374,5.6372,5.6372,5.6372,5.6372,5.6376,5.6383,5.6387,5.6388,5.6393,5.6396,5.6396,5.6395,5.6396,5.6404,5.6403,5.6403,5.6434,5.648,5.6489,5.6481,5.6481,5.6472,5.6487,5.6507,5.6507,5.6507,4.235,4.2259,4.238,4.2773,4.2812,4.265,4.2232,0.0,4.4796,4.4339,0.0,4.7106,4.7106,0.0,0.0,4.8675,4.9656,5.0634,5.1651,5.3456,5.5227,5.6721,5.8072,5.9061,5.9562,5.9167,5.8797,5.8613,5.6998,5.6012,5.6012,5.5238,5.4832,5.4929,5.4097,5.3691,5.3788,5.3788,5.373,5.3652,5.4523,5.489,5.4832,5.5686,5.609,5.609,5.6157,5.6191,5.6199,5.6206,5.6206,5.6221,5.6291,5.6291,5.6291,5.6291,5.6291,5.6291,5.6291,5.6291,5.6291,5.6291,5.6291,5.6291,5.6291,5.6291,5.6291,5.6291,5.6291,5.6291,5.6291,5.6291,5.6291,5.6291,5.6291,5.6291,5.6291,5.6304,5.6297,5.6297,5.6309,5.6317,5.6316,5.6313,5.6303,5.6306,5.6308,5.6308,5.6308,5.6308,5.6314,5.6305,5.6308,5.6338,5.6391,5.639,5.6395,5.6408,5.6394,5.6399,5.64,5.64,5.6402,5.6403,5.6404,5.6404,5.6404,5.6404,5.6435,5.6507,5.6507,5.6507,4.1898,4.1852,4.1941,4.236,4.2442,4.2431,4.2356,4.3014,4.3561,4.3284,0.0,0.0,0.0,0.0,0.0,0.0,4.8209,4.9431,4.9712,5.173,5.3645,5.4899,5.56,5.6321,5.717,5.6915,5.7009,5.7793,5.6126,5.5335,5.5965,5.4755,5.4271,5.4774,5.3459,5.2995,5.3498,5.3498,5.3246,5.2763,5.3633,5.3768,5.3323,5.4199,5.4594,5.4594,5.461,5.4924,5.5393,5.5393,5.5711,5.6199,5.6236,5.6245,5.6246,5.6246,5.6278,5.6291,5.6291,5.6291,5.6291,5.6291,5.6291,5.6291,5.6291,5.6291,5.6291,5.6291,5.6291,5.6291,5.6291,5.6291,5.6291,5.6291,5.6291,5.6291,5.6291,5.6291,5.6291,5.6291,5.6291,5.6291,5.6306,5.6297,5.63,5.6304,5.6291,5.6291,5.6291,5.6291,5.6297,5.6292,5.6308,5.631,5.6339,5.6342,5.6351,5.6338,5.6335,5.6341,5.6341,5.6372,5.6403,5.6403,5.6408,5.6391,5.6391,5.6395,5.6405,5.6435,5.6434,5.6461,4.159,4.1538,4.1609,4.1963,4.2047,4.2113,4.2402,4.256,4.2711,4.2987,4.3118,0.0,0.0,0.0,4.478,4.5638,0.0,4.8285,4.8292,5.0027,5.1717,5.2935,5.3614,5.4293,5.5138,5.5066,5.5435,5.6666,5.5214,5.4731,5.5731,5.4198,5.358,5.4198,5.2558,5.196,5.2597,5.2597,5.2269,5.1652,5.2548,5.2625,5.2046,5.2895,5.3281,5.3281,5.3281,5.3828,5.4699,5.4699,5.5263,5.6149,5.6149,5.6153,5.617,5.6192,5.6239,5.6278,5.6291,5.6291,5.6291,5.6291,5.6291,5.6291,5.6291,5.6291,5.6291,5.6291,5.6291,5.6291,5.6291,5.6291,5.6291,5.6291,5.6291,5.6291,5.6291,5.6291,5.6291,5.6291,5.6291,5.6291,5.6291,5.6291,5.6291,5.6291,5.6291,5.6291,5.6291,5.6291,5.6291,5.6291,5.6291,5.6291,5.6291,5.6291,5.6291,5.6291,5.6303,5.631,5.631,5.6352,5.6361,5.6361,5.6374,5.6361,5.6361,5.6372,5.6365,5.6378,5.6386,5.6437,4.159,4.1403,4.1448,4.1582,4.1626,4.1626,4.1648,4.1941,4.245,4.3215,4.3688,4.4183,4.4907,4.5167,4.5537,4.6337,4.6582,0.0,0.0,4.7886,4.8641,5.0495,5.2432,5.3734,5.4026,5.4051,5.4402,5.5313,5.4523,5.4358,5.5192,5.3632,5.2733,5.2772,5.1147,5.0287,5.0306,5.0306,5.0287,5.0268,5.1151,5.1564,5.1564,5.2368,5.2731,5.2731,5.2731,5.3368,5.4407,5.4407,5.5037,5.6012,5.6012,5.6037,5.6114,5.617,5.6199,5.6206,5.6278,5.6291,5.6291,5.6291,5.6291,5.6291,5.6291,5.6291,5.6291,5.6291,5.6291,5.6291,5.6291,5.6291,5.6291,5.6291,5.6291,5.6291,5.6291,5.6291,5.6291,5.6291,5.6291,5.6291,5.6291,5.6291,5.6291,5.6291,5.6291,5.6291,5.6291,5.6291,5.6291,5.6291,5.6291,5.6291,5.6291,5.6291,5.6291,5.6291,5.6298,5.6298,5.6298,5.6304,5.6304,5.6304,5.6304,5.631,5.631,5.631,5.6297,5.6301,5.6376,5.6399,4.1324,4.1272,4.1318,4.1431,4.1471,4.1493,4.1582,4.1697,4.2017,4.2829,4.312,4.3442,4.417,4.4778,4.5262,4.5534,4.627,4.6884,0.0,4.7083,4.7268,4.7942,4.9837,5.0563,4.9159,5.1152,5.2802,5.3461,5.3649,5.3922,5.4371,5.332,5.2473,5.1931,5.0799,5.0195,5.0195,5.0195,5.0195,5.0195,5.0493,5.0638,5.0646,5.0925,5.1059,5.1059,5.1059,5.1595,5.2479,5.2479,5.3349,5.4682,5.4682,5.5009,5.5555,5.5973,5.616,5.6202,5.6236,5.6236,5.6223,5.6232,5.6239,5.6246,5.6285,5.6291,5.6291,5.6291,5.6291,5.6291,5.6291,5.6291,5.6291,5.6291,5.6291,5.6291,5.6291,5.6291,5.6291,5.6291,5.6291,5.6291,5.6291,5.6291,5.6291,5.6291,5.6291,5.6291,5.6291,5.6291,5.6291,5.6291,5.6291,5.6291,5.6291,5.6291,5.6291,5.6291,5.6291,5.6291,5.6291,5.6291,5.6291,5.6291,5.6291,5.6291,5.6291,5.6291,5.6297,5.63,5.632,5.6367,4.1157,4.1157,4.118,4.1295,4.1318,4.1433,4.1866,4.1958,4.2256,4.3343,4.3576,4.3828,4.4517,4.5102,4.5501,4.5501,4.6135,4.656,0.0,4.6373,4.628,4.5753,4.7212,4.8014,4.7362,4.8793,5.0494,5.2228,5.246,5.2729,5.3228,5.2729,5.2045,5.1241,5.0392,4.9942,4.9942,4.9942,4.9942,4.9942,4.9942,4.9942,4.9942,4.9942,4.9942,4.9942,4.9942,5.0482,5.1357,5.1357,5.2399,5.4002,5.4002,5.4498,5.5256,5.5769,5.6054,5.6199,5.6199,5.6199,5.6206,5.6209,5.6197,5.6204,5.6245,5.6265,5.6252,5.6252,5.6285,5.6291,5.6291,5.6291,5.6291,5.6291,5.6291,5.6291,5.6291,5.6291,5.6291,5.6291,5.6291,5.6291,5.6291,5.6291,5.6291,5.6291,5.6291,5.6291,5.6291,5.6291,5.6291,5.6291,5.6291,5.6291,5.6291,5.6291,5.6291,5.6291,5.6291,5.6291,5.6291,5.6291,5.6291,5.6291,5.6291,5.6291,5.6291,5.6291,5.6291,5.6291,5.5981,5.5855]}]]